Time,TemperatureF,DewpointF,PressureIn,WindDirection,WindDirectionDegrees,WindSpeedMPH,WindSpeedGustMPH,Humidity,HourlyPrecipIn,Conditions,Clouds,dailyrainin,SolarRadiationWatts/m^2,SoftwareType,DateUTC
2013-05-04 00:00:00,38.8,37.2,-100.00,North,-999,-999.0,-999.0,94,-99.99,,,-99.99,1.0,HOBO +U30 +Weather +,2013-05-04 04:00:00,
2013-05-04 00:01:00,38.8,37.3,-100.00,North,-999,-999.0,-999.0,94,-99.99,,,-99.99,1.0,HOBO +U30 +Weather +,2013-05-04 04:01:00,
2013-05-04 00:02:00,38.8,37.2,-100.00,North,-999,-999.0,-999.0,94,-99.99,,,-99.99,1.0,HOBO +U30 +Weather +,2013-05-04 04:02:00,
2013-05-04 00:03:00,38.7,37.1,-100.00,North,-999,-999.0,-999.0,94,-99.99,,,-99.99,1.0,HOBO +U30 +Weather +,2013-05-04 04:03:00,
2013-05-04 00:04:00,38.8,37.3,-100.00,North,-999,-999.0,-999.0,94,-99.99,,,-99.99,1.0,HOBO +U30 +Weather +,2013-05-04 04:04:00,
2013-05-04 00:05:00,38.8,37.3,-100.00,North,-999,-999.0,-999.0,94,-99.99,,,-99.99,1.0,HOBO +U30 +Weather +,2013-05-04 04:05:00,
2013-05-04 00:06:00,38.8,37.2,-100.00,North,-999,-999.0,-999.0,94,-99.99,,,-99.99,1.0,HOBO +U30 +Weather +,2013-05-04 04:06:00,
2013-05-04 00:07:00,38.7,37.1,-100.00,North,-999,-999.0,-999.0,94,-99.99,,,-99.99,1.0,HOBO +U30 +Weather +,2013-05-04 04:07:00,
2013-05-04 00:08:00,38.6,36.9,-100.00,North,-999,-999.0,-999.0,93,-99.99,,,-99.99,1.0,HOBO +U30 +Weather +,2013-05-04 04:08:00,
2013-05-04 00:09:00,38.4,36.8,-100.00,North,-999,-999.0,-999.0,93,-99.99,,,-99.99,1.0,HOBO +U30 +Weather +,2013-05-04 04:09:00,
2013-05-04 00:10:00,38.3,36.6,-100.00,North,-999,-999.0,-999.0,93,-99.99,,,-99.99,1.0,HOBO +U30 +Weather +,2013-05-04 04:10:00,
2013-05-04 00:11:00,38.1,36.4,-100.00,North,-999,-999.0,-999.0,93,-99.99,,,-99.99,1.0,HOBO +U30 +Weather +,2013-05-04 04:11:00,
2013-05-04 00:12:00,37.9,36.2,-100.00,North,-999,-999.0,-999.0,93,-99.99,,,-99.99,1.0,HOBO +U30 +Weather +,2013-05-04 04:12:00,
2013-05-04 00:13:00,37.7,36.0,-100.00,North,-999,-999.0,-999.0,93,-99.99,,,-99.99,1.0,HOBO +U30 +Weather +,2013-05-04 04:13:00,
2013-05-04 00:14:00,37.6,35.8,-100.00,North,-999,-999.0,-999.0,93,-99.99,,,-99.99,1.0,HOBO +U30 +Weather +,2013-05-04 04:14:00,
2013-05-04 00:15:00,37.5,35.8,-100.00,North,-999,-999.0,-999.0,93,-99.99,,,-99.99,1.0,HOBO +U30 +Weather +,2013-05-04 04:15:00,
2013-05-04 00:16:00,37.3,35.6,-100.00,North,-999,-999.0,-999.0,93,-99.99,,,-99.99,1.0,HOBO +U30 +Weather +,2013-05-04 04:16:00,
2013-05-04 00:17:00,37.2,35.5,-100.00,North,-999,-999.0,-999.0,93,-99.99,,,-99.99,1.0,HOBO +U30 +Weather +,2013-05-04 04:17:00,
2013-05-04 00:18:00,37.1,35.4,-100.00,North,-999,-999.0,-999.0,93,-99.99,,,-99.99,1.0,HOBO +U30 +Weather +,2013-05-04 04:18:00,
2013-05-04 00:19:00,37.0,35.3,-100.00,North,-999,-999.0,-999.0,93,-99.99,,,-99.99,1.0,HOBO +U30 +Weather +,2013-05-04 04:19:00,
2013-05-04 00:20:00,36.8,35.1,-100.00,North,-999,-999.0,-999.0,93,-99.99,,,-99.99,1.0,HOBO +U30 +Weather +,2013-05-04 04:20:00,
2013-05-04 00:21:00,36.7,35.0,-100.00,North,-999,-999.0,-999.0,93,-99.99,,,-99.99,1.0,HOBO +U30 +Weather +,2013-05-04 04:21:00,
2013-05-04 00:22:00,36.6,34.9,-100.00,North,-999,-999.0,-999.0,93,-99.99,,,-99.99,1.0,HOBO +U30 +Weather +,2013-05-04 04:22:00,
2013-05-04 00:23:00,36.5,34.8,-100.00,North,-999,-999.0,-999.0,93,-99.99,,,-99.99,1.0,HOBO +U30 +Weather +,2013-05-04 04:23:00,
2013-05-04 00:24:00,36.4,34.6,-100.00,North,-999,-999.0,-999.0,93,-99.99,,,-99.99,1.0,HOBO +U30 +Weather +,2013-05-04 04:24:00,
2013-05-04 00:25:00,36.3,34.5,-100.00,North,-999,-999.0,-999.0,93,-99.99,,,-99.99,1.0,HOBO +U30 +Weather +,2013-05-04 04:25:00,
2013-05-04 00:26:00,36.2,34.5,-100.00,North,-999,-999.0,-999.0,93,-99.99,,,-99.99,1.0,HOBO +U30 +Weather +,2013-05-04 04:26:00,
2013-05-04 00:27:00,36.1,34.3,-100.00,North,-999,-999.0,-999.0,93,-99.99,,,-99.99,1.0,HOBO +U30 +Weather +,2013-05-04 04:27:00,
2013-05-04 00:28:00,36.0,34.3,-100.00,North,-999,-999.0,-999.0,93,-99.99,,,-99.99,1.0,HOBO +U30 +Weather +,2013-05-04 04:28:00,
2013-05-04 00:29:00,35.9,34.2,-100.00,North,-999,-999.0,-999.0,93,-99.99,,,-99.99,1.0,HOBO +U30 +Weather +,2013-05-04 04:29:00,
2013-05-04 00:30:00,35.7,34.0,-100.00,North,-999,-999.0,-999.0,93,-99.99,,,-99.99,1.0,HOBO +U30 +Weather +,2013-05-04 04:30:00,
2013-05-04 00:31:00,35.6,34.0,-100.00,North,-999,-999.0,-999.0,93,-99.99,,,-99.99,1.0,HOBO +U30 +Weather +,2013-05-04 04:31:00,
2013-05-04 00:32:00,35.6,33.9,-100.00,North,-999,-999.0,-999.0,93,-99.99,,,-99.99,1.0,HOBO +U30 +Weather +,2013-05-04 04:32:00,
2013-05-04 00:33:00,35.5,33.9,-100.00,North,-999,-999.0,-999.0,93,-99.99,,,-99.99,1.0,HOBO +U30 +Weather +,2013-05-04 04:33:00,
2013-05-04 00:34:00,35.5,33.9,-100.00,North,-999,-999.0,-999.0,93,-99.99,,,-99.99,1.0,HOBO +U30 +Weather +,2013-05-04 04:34:00,
2013-05-04 00:35:00,35.5,33.9,-100.00,North,-999,-999.0,-999.0,93,-99.99,,,-99.99,1.0,HOBO +U30 +Weather +,2013-05-04 04:35:00,
2013-05-04 00:36:00,35.5,33.9,-100.00,North,-999,-999.0,-999.0,93,-99.99,,,-99.99,1.0,HOBO +U30 +Weather +,2013-05-04 04:36:00,
2013-05-04 00:37:00,35.4,33.8,-100.00,North,-999,-999.0,-999.0,93,-99.99,,,-99.99,1.0,HOBO +U30 +Weather +,2013-05-04 04:37:00,
2013-05-04 00:38:00,35.4,33.8,-100.00,North,-999,-999.0,-999.0,93,-99.99,,,-99.99,1.0,HOBO +U30 +Weather +,2013-05-04 04:38:00,
2013-05-04 00:39:00,35.4,33.8,-100.00,North,-999,-999.0,-999.0,93,-99.99,,,-99.99,1.0,HOBO +U30 +Weather +,2013-05-04 04:39:00,
2013-05-04 00:40:00,35.4,33.9,-100.00,North,-999,-999.0,-999.0,93,-99.99,,,-99.99,1.0,HOBO +U30 +Weather +,2013-05-04 04:40:00,
2013-05-04 00:41:00,35.4,33.9,-100.00,North,-999,-999.0,-999.0,93,-99.99,,,-99.99,1.0,HOBO +U30 +Weather +,2013-05-04 04:41:00,
2013-05-04 00:42:00,35.4,33.9,-100.00,North,-999,-999.0,-999.0,93,-99.99,,,-99.99,1.0,HOBO +U30 +Weather +,2013-05-04 04:42:00,
2013-05-04 00:43:00,35.4,33.8,-100.00,North,-999,-999.0,-999.0,93,-99.99,,,-99.99,1.0,HOBO +U30 +Weather +,2013-05-04 04:43:00,
2013-05-04 00:44:00,35.3,33.7,-100.00,North,-999,-999.0,-999.0,93,-99.99,,,-99.99,1.0,HOBO +U30 +Weather +,2013-05-04 04:44:00,
2013-05-04 00:45:00,35.3,33.7,-100.00,North,-999,-999.0,-999.0,93,-99.99,,,-99.99,1.0,HOBO +U30 +Weather +,2013-05-04 04:45:00,
2013-05-04 00:46:00,35.3,33.8,-100.00,North,-999,-999.0,-999.0,93,-99.99,,,-99.99,1.0,HOBO +U30 +Weather +,2013-05-04 04:46:00,
2013-05-04 00:47:00,35.4,33.8,-100.00,North,-999,-999.0,-999.0,93,-99.99,,,-99.99,1.0,HOBO +U30 +Weather +,2013-05-04 04:47:00,
2013-05-04 00:48:00,35.4,33.8,-100.00,North,-999,-999.0,-999.0,93,-99.99,,,-99.99,1.0,HOBO +U30 +Weather +,2013-05-04 04:48:00,
2013-05-04 00:49:00,35.4,33.9,-100.00,North,-999,-999.0,-999.0,93,-99.99,,,-99.99,1.0,HOBO +U30 +Weather +,2013-05-04 04:49:00,
2013-05-04 00:50:00,35.5,33.9,-100.00,North,-999,-999.0,-999.0,93,-99.99,,,-99.99,1.0,HOBO +U30 +Weather +,2013-05-04 04:50:00,
2013-05-04 00:51:00,35.5,33.9,-100.00,North,-999,-999.0,-999.0,93,-99.99,,,-99.99,1.0,HOBO +U30 +Weather +,2013-05-04 04:51:00,
2013-05-04 00:52:00,35.5,34.0,-100.00,North,-999,-999.0,-999.0,93,-99.99,,,-99.99,1.0,HOBO +U30 +Weather +,2013-05-04 04:52:00,
2013-05-04 00:53:00,35.5,33.9,-100.00,North,-999,-999.0,-999.0,93,-99.99,,,-99.99,1.0,HOBO +U30 +Weather +,2013-05-04 04:53:00,
2013-05-04 00:54:00,35.5,33.9,-100.00,North,-999,-999.0,-999.0,93,-99.99,,,-99.99,1.0,HOBO +U30 +Weather +,2013-05-04 04:54:00,
2013-05-04 00:55:00,35.6,34.0,-100.00,North,-999,-999.0,-999.0,93,-99.99,,,-99.99,1.0,HOBO +U30 +Weather +,2013-05-04 04:55:00,
2013-05-04 00:56:00,35.6,34.0,-100.00,North,-999,-999.0,-999.0,93,-99.99,,,-99.99,1.0,HOBO +U30 +Weather +,2013-05-04 04:56:00,
2013-05-04 00:57:00,35.7,34.2,-100.00,North,-999,-999.0,-999.0,94,-99.99,,,-99.99,1.0,HOBO +U30 +Weather +,2013-05-04 04:57:00,
2013-05-04 00:58:00,36.0,34.5,-100.00,North,-999,-999.0,-999.0,94,-99.99,,,-99.99,1.0,HOBO +U30 +Weather +,2013-05-04 04:58:00,
2013-05-04 00:59:00,36.1,34.6,-100.00,North,-999,-999.0,-999.0,94,-99.99,,,-99.99,1.0,HOBO +U30 +Weather +,2013-05-04 04:59:00,
2013-05-04 01:00:00,36.3,34.8,-100.00,North,-999,-999.0,-999.0,94,-99.99,,,-99.99,1.0,HOBO +U30 +Weather +,2013-05-04 05:00:00,
2013-05-04 01:01:00,36.8,35.4,-100.00,North,-999,-999.0,-999.0,94,-99.99,,,-99.99,1.0,HOBO +U30 +Weather +,2013-05-04 05:01:00,
2013-05-04 01:02:00,36.9,35.5,-100.00,North,-999,-999.0,-999.0,94,-99.99,,,-99.99,1.0,HOBO +U30 +Weather +,2013-05-04 05:02:00,
2013-05-04 01:03:00,37.2,35.9,-100.00,North,-999,-999.0,-999.0,94,-99.99,,,-99.99,1.0,HOBO +U30 +Weather +,2013-05-04 05:03:00,
2013-05-04 01:04:00,37.3,35.9,-100.00,North,-999,-999.0,-999.0,94,-99.99,,,-99.99,1.0,HOBO +U30 +Weather +,2013-05-04 05:04:00,
2013-05-04 01:05:00,37.4,35.9,-100.00,North,-999,-999.0,-999.0,94,-99.99,,,-99.99,1.0,HOBO +U30 +Weather +,2013-05-04 05:05:00,
2013-05-04 01:06:00,37.5,36.1,-100.00,North,-999,-999.0,-999.0,94,-99.99,,,-99.99,1.0,HOBO +U30 +Weather +,2013-05-04 05:06:00,
2013-05-04 01:07:00,37.6,36.2,-100.00,North,-999,-999.0,-999.0,94,-99.99,,,-99.99,1.0,HOBO +U30 +Weather +,2013-05-04 05:07:00,
2013-05-04 01:08:00,37.7,36.3,-100.00,North,-999,-999.0,-999.0,94,-99.99,,,-99.99,1.0,HOBO +U30 +Weather +,2013-05-04 05:08:00,
2013-05-04 01:09:00,37.8,36.4,-100.00,North,-999,-999.0,-999.0,94,-99.99,,,-99.99,1.0,HOBO +U30 +Weather +,2013-05-04 05:09:00,
2013-05-04 01:10:00,37.9,36.5,-100.00,North,-999,-999.0,-999.0,94,-99.99,,,-99.99,1.0,HOBO +U30 +Weather +,2013-05-04 05:10:00,
2013-05-04 01:11:00,38.0,36.6,-100.00,North,-999,-999.0,-999.0,94,-99.99,,,-99.99,1.0,HOBO +U30 +Weather +,2013-05-04 05:11:00,
2013-05-04 01:12:00,38.0,36.6,-100.00,North,-999,-999.0,-999.0,94,-99.99,,,-99.99,1.0,HOBO +U30 +Weather +,2013-05-04 05:12:00,
2013-05-04 01:13:00,38.0,36.6,-100.00,North,-999,-999.0,-999.0,94,-99.99,,,-99.99,1.0,HOBO +U30 +Weather +,2013-05-04 05:13:00,
2013-05-04 01:14:00,38.1,36.7,-100.00,North,-999,-999.0,-999.0,94,-99.99,,,-99.99,1.0,HOBO +U30 +Weather +,2013-05-04 05:14:00,
2013-05-04 01:15:00,37.8,36.2,-100.00,North,-999,-999.0,-999.0,94,-99.99,,,-99.99,1.0,HOBO +U30 +Weather +,2013-05-04 05:15:00,
2013-05-04 01:16:00,37.3,35.6,-100.00,North,-999,-999.0,-999.0,93,-99.99,,,-99.99,1.0,HOBO +U30 +Weather +,2013-05-04 05:16:00,
2013-05-04 01:17:00,37.0,35.4,-100.00,North,-999,-999.0,-999.0,93,-99.99,,,-99.99,1.0,HOBO +U30 +Weather +,2013-05-04 05:17:00,
2013-05-04 01:18:00,36.5,34.6,-100.00,North,-999,-999.0,-999.0,93,-99.99,,,-99.99,1.0,HOBO +U30 +Weather +,2013-05-04 05:18:00,
2013-05-04 01:19:00,35.9,34.1,-100.00,North,-999,-999.0,-999.0,93,-99.99,,,-99.99,1.0,HOBO +U30 +Weather +,2013-05-04 05:19:00,
2013-05-04 01:20:00,35.5,33.7,-100.00,North,-999,-999.0,-999.0,93,-99.99,,,-99.99,1.0,HOBO +U30 +Weather +,2013-05-04 05:20:00,
2013-05-04 01:21:00,35.2,33.4,-100.00,North,-999,-999.0,-999.0,93,-99.99,,,-99.99,1.0,HOBO +U30 +Weather +,2013-05-04 05:21:00,
2013-05-04 01:22:00,34.9,33.2,-100.00,North,-999,-999.0,-999.0,93,-99.99,,,-99.99,1.0,HOBO +U30 +Weather +,2013-05-04 05:22:00,
2013-05-04 01:23:00,34.7,33.0,-100.00,North,-999,-999.0,-999.0,93,-99.99,,,-99.99,1.0,HOBO +U30 +Weather +,2013-05-04 05:23:00,
2013-05-04 01:24:00,34.6,32.9,-100.00,North,-999,-999.0,-999.0,93,-99.99,,,-99.99,1.0,HOBO +U30 +Weather +,2013-05-04 05:24:00,
2013-05-04 01:25:00,34.5,32.9,-100.00,North,-999,-999.0,-999.0,93,-99.99,,,-99.99,1.0,HOBO +U30 +Weather +,2013-05-04 05:25:00,
2013-05-04 01:26:00,34.4,32.8,-100.00,North,-999,-999.0,-999.0,93,-99.99,,,-99.99,1.0,HOBO +U30 +Weather +,2013-05-04 05:26:00,
2013-05-04 01:27:00,34.4,32.8,-100.00,North,-999,-999.0,-999.0,93,-99.99,,,-99.99,1.0,HOBO +U30 +Weather +,2013-05-04 05:27:00,
2013-05-04 01:28:00,34.4,32.8,-100.00,North,-999,-999.0,-999.0,93,-99.99,,,-99.99,1.0,HOBO +U30 +Weather +,2013-05-04 05:28:00,
2013-05-04 01:29:00,34.4,32.9,-100.00,North,-999,-999.0,-999.0,94,-99.99,,,-99.99,1.0,HOBO +U30 +Weather +,2013-05-04 05:29:00,
2013-05-04 01:30:00,34.5,32.9,-100.00,North,-999,-999.0,-999.0,94,-99.99,,,-99.99,1.0,HOBO +U30 +Weather +,2013-05-04 05:30:00,
2013-05-04 01:31:00,34.5,33.0,-100.00,North,-999,-999.0,-999.0,94,-99.99,,,-99.99,1.0,HOBO +U30 +Weather +,2013-05-04 05:31:00,
2013-05-04 01:32:00,34.5,33.0,-100.00,North,-999,-999.0,-999.0,94,-99.99,,,-99.99,1.0,HOBO +U30 +Weather +,2013-05-04 05:32:00,
2013-05-04 01:33:00,34.6,33.0,-100.00,North,-999,-999.0,-999.0,94,-99.99,,,-99.99,1.0,HOBO +U30 +Weather +,2013-05-04 05:33:00,
2013-05-04 01:34:00,34.6,33.1,-100.00,North,-999,-999.0,-999.0,94,-99.99,,,-99.99,1.0,HOBO +U30 +Weather +,2013-05-04 05:34:00,
2013-05-04 01:35:00,34.6,33.1,-100.00,North,-999,-999.0,-999.0,94,-99.99,,,-99.99,1.0,HOBO +U30 +Weather +,2013-05-04 05:35:00,
2013-05-04 01:36:00,34.6,33.1,-100.00,North,-999,-999.0,-999.0,94,-99.99,,,-99.99,1.0,HOBO +U30 +Weather +,2013-05-04 05:36:00,
2013-05-04 01:37:00,34.6,33.0,-100.00,North,-999,-999.0,-999.0,94,-99.99,,,-99.99,1.0,HOBO +U30 +Weather +,2013-05-04 05:37:00,
2013-05-04 01:38:00,34.5,33.0,-100.00,North,-999,-999.0,-999.0,94,-99.99,,,-99.99,1.0,HOBO +U30 +Weather +,2013-05-04 05:38:00,
2013-05-04 01:39:00,34.5,33.0,-100.00,North,-999,-999.0,-999.0,94,-99.99,,,-99.99,1.0,HOBO +U30 +Weather +,2013-05-04 05:39:00,
2013-05-04 01:40:00,34.5,33.0,-100.00,North,-999,-999.0,-999.0,94,-99.99,,,-99.99,1.0,HOBO +U30 +Weather +,2013-05-04 05:40:00,
2013-05-04 01:41:00,34.4,32.9,-100.00,North,-999,-999.0,-999.0,94,-99.99,,,-99.99,1.0,HOBO +U30 +Weather +,2013-05-04 05:41:00,
2013-05-04 01:42:00,34.4,32.9,-100.00,North,-999,-999.0,-999.0,94,-99.99,,,-99.99,1.0,HOBO +U30 +Weather +,2013-05-04 05:42:00,
2013-05-04 01:43:00,34.3,32.8,-100.00,North,-999,-999.0,-999.0,94,-99.99,,,-99.99,1.0,HOBO +U30 +Weather +,2013-05-04 05:43:00,
2013-05-04 01:44:00,34.3,32.8,-100.00,North,-999,-999.0,-999.0,94,-99.99,,,-99.99,1.0,HOBO +U30 +Weather +,2013-05-04 05:44:00,
2013-05-04 01:45:00,34.3,32.8,-100.00,North,-999,-999.0,-999.0,94,-99.99,,,-99.99,1.0,HOBO +U30 +Weather +,2013-05-04 05:45:00,
2013-05-04 01:46:00,34.3,32.8,-100.00,North,-999,-999.0,-999.0,94,-99.99,,,-99.99,1.0,HOBO +U30 +Weather +,2013-05-04 05:46:00,
2013-05-04 01:47:00,34.2,32.7,-100.00,North,-999,-999.0,-999.0,94,-99.99,,,-99.99,1.0,HOBO +U30 +Weather +,2013-05-04 05:47:00,
2013-05-04 01:48:00,34.2,32.7,-100.00,North,-999,-999.0,-999.0,94,-99.99,,,-99.99,1.0,HOBO +U30 +Weather +,2013-05-04 05:48:00,
2013-05-04 01:49:00,34.2,32.7,-100.00,North,-999,-999.0,-999.0,94,-99.99,,,-99.99,1.0,HOBO +U30 +Weather +,2013-05-04 05:49:00,
2013-05-04 01:50:00,34.2,32.7,-100.00,North,-999,-999.0,-999.0,94,-99.99,,,-99.99,1.0,HOBO +U30 +Weather +,2013-05-04 05:50:00,
2013-05-04 01:51:00,34.2,32.7,-100.00,North,-999,-999.0,-999.0,94,-99.99,,,-99.99,1.0,HOBO +U30 +Weather +,2013-05-04 05:51:00,
2013-05-04 01:52:00,34.1,32.7,-100.00,North,-999,-999.0,-999.0,94,-99.99,,,-99.99,1.0,HOBO +U30 +Weather +,2013-05-04 05:52:00,
2013-05-04 01:53:00,34.1,32.7,-100.00,North,-999,-999.0,-999.0,94,-99.99,,,-99.99,1.0,HOBO +U30 +Weather +,2013-05-04 05:53:00,
2013-05-04 01:54:00,34.1,32.7,-100.00,North,-999,-999.0,-999.0,94,-99.99,,,-99.99,1.0,HOBO +U30 +Weather +,2013-05-04 05:54:00,
2013-05-04 01:55:00,34.1,32.7,-100.00,North,-999,-999.0,-999.0,94,-99.99,,,-99.99,1.0,HOBO +U30 +Weather +,2013-05-04 05:55:00,
2013-05-04 01:56:00,34.1,32.7,-100.00,North,-999,-999.0,-999.0,94,-99.99,,,-99.99,1.0,HOBO +U30 +Weather +,2013-05-04 05:56:00,
2013-05-04 01:57:00,34.1,32.7,-100.00,North,-999,-999.0,-999.0,94,-99.99,,,-99.99,1.0,HOBO +U30 +Weather +,2013-05-04 05:57:00,
2013-05-04 01:58:00,34.1,32.6,-100.00,North,-999,-999.0,-999.0,94,-99.99,,,-99.99,1.0,HOBO +U30 +Weather +,2013-05-04 05:58:00,
2013-05-04 01:59:00,34.1,32.6,-100.00,North,-999,-999.0,-999.0,94,-99.99,,,-99.99,1.0,HOBO +U30 +Weather +,2013-05-04 05:59:00,
2013-05-04 02:00:00,34.2,32.8,-100.00,North,-999,-999.0,-999.0,94,-99.99,,,-99.99,1.0,HOBO +U30 +Weather +,2013-05-04 06:00:00,
2013-05-04 02:01:00,34.3,33.0,-100.00,North,-999,-999.0,-999.0,94,-99.99,,,-99.99,1.0,HOBO +U30 +Weather +,2013-05-04 06:01:00,
2013-05-04 02:02:00,34.6,33.3,-100.00,North,-999,-999.0,-999.0,94,-99.99,,,-99.99,1.0,HOBO +U30 +Weather +,2013-05-04 06:02:00,
2013-05-04 02:03:00,34.9,33.7,-100.00,North,-999,-999.0,-999.0,95,-99.99,,,-99.99,1.0,HOBO +U30 +Weather +,2013-05-04 06:03:00,
2013-05-04 02:04:00,35.1,33.8,-100.00,North,-999,-999.0,-999.0,95,-99.99,,,-99.99,1.0,HOBO +U30 +Weather +,2013-05-04 06:04:00,
2013-05-04 02:05:00,35.1,33.8,-100.00,North,-999,-999.0,-999.0,95,-99.99,,,-99.99,1.0,HOBO +U30 +Weather +,2013-05-04 06:05:00,
2013-05-04 02:06:00,35.2,33.9,-100.00,North,-999,-999.0,-999.0,95,-99.99,,,-99.99,1.0,HOBO +U30 +Weather +,2013-05-04 06:06:00,
2013-05-04 02:07:00,35.2,33.9,-100.00,North,-999,-999.0,-999.0,94,-99.99,,,-99.99,1.0,HOBO +U30 +Weather +,2013-05-04 06:07:00,
2013-05-04 02:08:00,35.2,33.8,-100.00,North,-999,-999.0,-999.0,94,-99.99,,,-99.99,1.0,HOBO +U30 +Weather +,2013-05-04 06:08:00,
2013-05-04 02:09:00,35.2,33.9,-100.00,North,-999,-999.0,-999.0,94,-99.99,,,-99.99,1.0,HOBO +U30 +Weather +,2013-05-04 06:09:00,
2013-05-04 02:10:00,35.2,33.9,-100.00,North,-999,-999.0,-999.0,94,-99.99,,,-99.99,1.0,HOBO +U30 +Weather +,2013-05-04 06:10:00,
2013-05-04 02:11:00,35.4,34.1,-100.00,North,-999,-999.0,-999.0,95,-99.99,,,-99.99,1.0,HOBO +U30 +Weather +,2013-05-04 06:11:00,
2013-05-04 02:12:00,35.6,34.4,-100.00,North,-999,-999.0,-999.0,95,-99.99,,,-99.99,1.0,HOBO +U30 +Weather +,2013-05-04 06:12:00,
2013-05-04 02:13:00,35.9,34.7,-100.00,North,-999,-999.0,-999.0,95,-99.99,,,-99.99,1.0,HOBO +U30 +Weather +,2013-05-04 06:13:00,
2013-05-04 02:14:00,36.6,35.4,-100.00,North,-999,-999.0,-999.0,95,-99.99,,,-99.99,1.0,HOBO +U30 +Weather +,2013-05-04 06:14:00,
2013-05-04 02:15:00,37.3,36.2,-100.00,North,-999,-999.0,-999.0,95,-99.99,,,-99.99,1.0,HOBO +U30 +Weather +,2013-05-04 06:15:00,
2013-05-04 02:16:00,38.0,37.0,-100.00,North,-999,-999.0,-999.0,96,-99.99,,,-99.99,1.0,HOBO +U30 +Weather +,2013-05-04 06:16:00,
2013-05-04 02:17:00,38.8,37.8,-100.00,North,-999,-999.0,-999.0,96,-99.99,,,-99.99,1.0,HOBO +U30 +Weather +,2013-05-04 06:17:00,
2013-05-04 02:18:00,39.5,38.5,-100.00,North,-999,-999.0,-999.0,96,-99.99,,,-99.99,1.0,HOBO +U30 +Weather +,2013-05-04 06:18:00,
2013-05-04 02:19:00,40.0,39.0,-100.00,North,-999,-999.0,-999.0,96,-99.99,,,-99.99,1.0,HOBO +U30 +Weather +,2013-05-04 06:19:00,
2013-05-04 02:20:00,40.6,39.7,-100.00,North,-999,-999.0,-999.0,96,-99.99,,,-99.99,1.0,HOBO +U30 +Weather +,2013-05-04 06:20:00,
2013-05-04 02:21:00,41.2,40.2,-100.00,North,-999,-999.0,-999.0,96,-99.99,,,-99.99,1.0,HOBO +U30 +Weather +,2013-05-04 06:21:00,
2013-05-04 02:22:00,41.6,40.7,-100.00,North,-999,-999.0,-999.0,96,-99.99,,,-99.99,1.0,HOBO +U30 +Weather +,2013-05-04 06:22:00,
2013-05-04 02:23:00,42.1,41.1,-100.00,North,-999,-999.0,-999.0,96,-99.99,,,-99.99,1.0,HOBO +U30 +Weather +,2013-05-04 06:23:00,
2013-05-04 02:24:00,42.3,41.4,-100.00,North,-999,-999.0,-999.0,96,-99.99,,,-99.99,1.0,HOBO +U30 +Weather +,2013-05-04 06:24:00,
2013-05-04 02:25:00,42.5,41.5,-100.00,North,-999,-999.0,-999.0,96,-99.99,,,-99.99,1.0,HOBO +U30 +Weather +,2013-05-04 06:25:00,
2013-05-04 02:26:00,42.7,41.6,-100.00,North,-999,-999.0,-999.0,96,-99.99,,,-99.99,1.0,HOBO +U30 +Weather +,2013-05-04 06:26:00,
2013-05-04 02:27:00,42.9,41.8,-100.00,North,-999,-999.0,-999.0,96,-99.99,,,-99.99,1.0,HOBO +U30 +Weather +,2013-05-04 06:27:00,
2013-05-04 02:28:00,43.0,42.0,-100.00,North,-999,-999.0,-999.0,96,-99.99,,,-99.99,1.0,HOBO +U30 +Weather +,2013-05-04 06:28:00,
2013-05-04 02:29:00,43.1,42.0,-100.00,North,-999,-999.0,-999.0,95,-99.99,,,-99.99,1.0,HOBO +U30 +Weather +,2013-05-04 06:29:00,
2013-05-04 02:30:00,43.2,42.0,-100.00,North,-999,-999.0,-999.0,95,-99.99,,,-99.99,1.0,HOBO +U30 +Weather +,2013-05-04 06:30:00,
2013-05-04 02:31:00,43.1,42.0,-100.00,North,-999,-999.0,-999.0,95,-99.99,,,-99.99,1.0,HOBO +U30 +Weather +,2013-05-04 06:31:00,
2013-05-04 02:32:00,43.2,42.0,-100.00,North,-999,-999.0,-999.0,95,-99.99,,,-99.99,1.0,HOBO +U30 +Weather +,2013-05-04 06:32:00,
2013-05-04 02:33:00,43.2,42.0,-100.00,North,-999,-999.0,-999.0,95,-99.99,,,-99.99,1.0,HOBO +U30 +Weather +,2013-05-04 06:33:00,
2013-05-04 02:34:00,43.2,41.9,-100.00,North,-999,-999.0,-999.0,95,-99.99,,,-99.99,1.0,HOBO +U30 +Weather +,2013-05-04 06:34:00,
2013-05-04 02:35:00,43.2,41.9,-100.00,North,-999,-999.0,-999.0,95,-99.99,,,-99.99,1.0,HOBO +U30 +Weather +,2013-05-04 06:35:00,
2013-05-04 02:36:00,43.3,42.0,-100.00,North,-999,-999.0,-999.0,95,-99.99,,,-99.99,1.0,HOBO +U30 +Weather +,2013-05-04 06:36:00,
2013-05-04 02:37:00,43.3,42.0,-100.00,North,-999,-999.0,-999.0,95,-99.99,,,-99.99,1.0,HOBO +U30 +Weather +,2013-05-04 06:37:00,
2013-05-04 02:38:00,43.4,42.1,-100.00,North,-999,-999.0,-999.0,95,-99.99,,,-99.99,1.0,HOBO +U30 +Weather +,2013-05-04 06:38:00,
2013-05-04 02:39:00,43.4,42.0,-100.00,North,-999,-999.0,-999.0,95,-99.99,,,-99.99,1.0,HOBO +U30 +Weather +,2013-05-04 06:39:00,
2013-05-04 02:40:00,43.4,42.0,-100.00,North,-999,-999.0,-999.0,95,-99.99,,,-99.99,1.0,HOBO +U30 +Weather +,2013-05-04 06:40:00,
2013-05-04 02:41:00,43.4,42.0,-100.00,North,-999,-999.0,-999.0,95,-99.99,,,-99.99,1.0,HOBO +U30 +Weather +,2013-05-04 06:41:00,
2013-05-04 02:42:00,43.4,42.0,-100.00,North,-999,-999.0,-999.0,94,-99.99,,,-99.99,1.0,HOBO +U30 +Weather +,2013-05-04 06:42:00,
2013-05-04 02:43:00,43.4,42.0,-100.00,North,-999,-999.0,-999.0,94,-99.99,,,-99.99,1.0,HOBO +U30 +Weather +,2013-05-04 06:43:00,
2013-05-04 02:44:00,43.3,41.9,-100.00,North,-999,-999.0,-999.0,94,-99.99,,,-99.99,1.0,HOBO +U30 +Weather +,2013-05-04 06:44:00,
2013-05-04 02:45:00,43.1,41.7,-100.00,North,-999,-999.0,-999.0,94,-99.99,,,-99.99,1.0,HOBO +U30 +Weather +,2013-05-04 06:45:00,
2013-05-04 02:46:00,43.0,41.6,-100.00,North,-999,-999.0,-999.0,94,-99.99,,,-99.99,1.0,HOBO +U30 +Weather +,2013-05-04 06:46:00,
2013-05-04 02:47:00,42.9,41.5,-100.00,North,-999,-999.0,-999.0,94,-99.99,,,-99.99,1.0,HOBO +U30 +Weather +,2013-05-04 06:47:00,
2013-05-04 02:48:00,42.9,41.5,-100.00,North,-999,-999.0,-999.0,94,-99.99,,,-99.99,1.0,HOBO +U30 +Weather +,2013-05-04 06:48:00,
2013-05-04 02:49:00,42.9,41.5,-100.00,North,-999,-999.0,-999.0,94,-99.99,,,-99.99,1.0,HOBO +U30 +Weather +,2013-05-04 06:49:00,
2013-05-04 02:50:00,42.9,41.5,-100.00,North,-999,-999.0,-999.0,94,-99.99,,,-99.99,1.0,HOBO +U30 +Weather +,2013-05-04 06:50:00,
2013-05-04 02:51:00,42.9,41.6,-100.00,North,-999,-999.0,-999.0,94,-99.99,,,-99.99,1.0,HOBO +U30 +Weather +,2013-05-04 06:51:00,
2013-05-04 02:52:00,42.9,41.6,-100.00,North,-999,-999.0,-999.0,94,-99.99,,,-99.99,1.0,HOBO +U30 +Weather +,2013-05-04 06:52:00,
2013-05-04 02:53:00,42.9,41.6,-100.00,North,-999,-999.0,-999.0,94,-99.99,,,-99.99,1.0,HOBO +U30 +Weather +,2013-05-04 06:53:00,
2013-05-04 02:54:00,43.0,41.6,-100.00,North,-999,-999.0,-999.0,94,-99.99,,,-99.99,1.0,HOBO +U30 +Weather +,2013-05-04 06:54:00,
2013-05-04 02:55:00,43.0,41.7,-100.00,North,-999,-999.0,-999.0,94,-99.99,,,-99.99,1.0,HOBO +U30 +Weather +,2013-05-04 06:55:00,
2013-05-04 02:56:00,43.1,41.8,-100.00,North,-999,-999.0,-999.0,94,-99.99,,,-99.99,1.0,HOBO +U30 +Weather +,2013-05-04 06:56:00,
2013-05-04 02:57:00,43.1,41.8,-100.00,North,-999,-999.0,-999.0,94,-99.99,,,-99.99,1.0,HOBO +U30 +Weather +,2013-05-04 06:57:00,
2013-05-04 02:58:00,43.2,41.8,-100.00,North,-999,-999.0,-999.0,94,-99.99,,,-99.99,1.0,HOBO +U30 +Weather +,2013-05-04 06:58:00,
2013-05-04 02:59:00,43.2,41.8,-100.00,North,-999,-999.0,-999.0,94,-99.99,,,-99.99,1.0,HOBO +U30 +Weather +,2013-05-04 06:59:00,
2013-05-04 03:00:00,43.1,41.7,-100.00,North,-999,-999.0,-999.0,94,-99.99,,,-99.99,1.0,HOBO +U30 +Weather +,2013-05-04 07:00:00,
2013-05-04 03:01:00,43.1,41.7,-100.00,North,-999,-999.0,-999.0,94,-99.99,,,-99.99,1.0,HOBO +U30 +Weather +,2013-05-04 07:01:00,
2013-05-04 03:02:00,43.1,41.7,-100.00,North,-999,-999.0,-999.0,94,-99.99,,,-99.99,1.0,HOBO +U30 +Weather +,2013-05-04 07:02:00,
2013-05-04 03:03:00,43.1,41.7,-100.00,North,-999,-999.0,-999.0,94,-99.99,,,-99.99,1.0,HOBO +U30 +Weather +,2013-05-04 07:03:00,
2013-05-04 03:04:00,43.1,41.7,-100.00,North,-999,-999.0,-999.0,94,-99.99,,,-99.99,1.0,HOBO +U30 +Weather +,2013-05-04 07:04:00,
2013-05-04 03:05:00,43.1,41.7,-100.00,North,-999,-999.0,-999.0,94,-99.99,,,-99.99,1.0,HOBO +U30 +Weather +,2013-05-04 07:05:00,
2013-05-04 03:06:00,43.0,41.6,-100.00,North,-999,-999.0,-999.0,94,-99.99,,,-99.99,1.0,HOBO +U30 +Weather +,2013-05-04 07:06:00,
2013-05-04 03:07:00,43.0,41.6,-100.00,North,-999,-999.0,-999.0,94,-99.99,,,-99.99,1.0,HOBO +U30 +Weather +,2013-05-04 07:07:00,
2013-05-04 03:08:00,42.9,41.5,-100.00,North,-999,-999.0,-999.0,94,-99.99,,,-99.99,1.0,HOBO +U30 +Weather +,2013-05-04 07:08:00,
2013-05-04 03:09:00,43.0,41.6,-100.00,North,-999,-999.0,-999.0,94,-99.99,,,-99.99,1.0,HOBO +U30 +Weather +,2013-05-04 07:09:00,
2013-05-04 03:10:00,42.9,41.5,-100.00,North,-999,-999.0,-999.0,94,-99.99,,,-99.99,1.0,HOBO +U30 +Weather +,2013-05-04 07:10:00,
2013-05-04 03:11:00,42.9,41.6,-100.00,North,-999,-999.0,-999.0,94,-99.99,,,-99.99,1.0,HOBO +U30 +Weather +,2013-05-04 07:11:00,
2013-05-04 03:12:00,42.9,41.6,-100.00,North,-999,-999.0,-999.0,94,-99.99,,,-99.99,1.0,HOBO +U30 +Weather +,2013-05-04 07:12:00,
2013-05-04 03:13:00,42.9,41.5,-100.00,North,-999,-999.0,-999.0,94,-99.99,,,-99.99,1.0,HOBO +U30 +Weather +,2013-05-04 07:13:00,
2013-05-04 03:14:00,42.9,41.5,-100.00,North,-999,-999.0,-999.0,94,-99.99,,,-99.99,1.0,HOBO +U30 +Weather +,2013-05-04 07:14:00,
2013-05-04 03:15:00,42.8,41.4,-100.00,North,-999,-999.0,-999.0,94,-99.99,,,-99.99,1.0,HOBO +U30 +Weather +,2013-05-04 07:15:00,
2013-05-04 03:16:00,42.7,41.3,-100.00,North,-999,-999.0,-999.0,94,-99.99,,,-99.99,1.0,HOBO +U30 +Weather +,2013-05-04 07:16:00,
2013-05-04 03:17:00,42.7,41.3,-100.00,North,-999,-999.0,-999.0,94,-99.99,,,-99.99,1.0,HOBO +U30 +Weather +,2013-05-04 07:17:00,
2013-05-04 03:18:00,42.6,41.2,-100.00,North,-999,-999.0,-999.0,94,-99.99,,,-99.99,1.0,HOBO +U30 +Weather +,2013-05-04 07:18:00,
2013-05-04 03:19:00,42.6,41.2,-100.00,North,-999,-999.0,-999.0,94,-99.99,,,-99.99,1.0,HOBO +U30 +Weather +,2013-05-04 07:19:00,
2013-05-04 03:20:00,42.6,41.2,-100.00,North,-999,-999.0,-999.0,94,-99.99,,,-99.99,1.0,HOBO +U30 +Weather +,2013-05-04 07:20:00,
2013-05-04 03:21:00,42.5,41.1,-100.00,North,-999,-999.0,-999.0,94,-99.99,,,-99.99,1.0,HOBO +U30 +Weather +,2013-05-04 07:21:00,
2013-05-04 03:22:00,42.4,41.1,-100.00,North,-999,-999.0,-999.0,94,-99.99,,,-99.99,1.0,HOBO +U30 +Weather +,2013-05-04 07:22:00,
2013-05-04 03:23:00,42.3,41.0,-100.00,North,-999,-999.0,-999.0,94,-99.99,,,-99.99,1.0,HOBO +U30 +Weather +,2013-05-04 07:23:00,
2013-05-04 03:24:00,42.3,40.9,-100.00,North,-999,-999.0,-999.0,94,-99.99,,,-99.99,1.0,HOBO +U30 +Weather +,2013-05-04 07:24:00,
2013-05-04 03:25:00,42.2,40.9,-100.00,North,-999,-999.0,-999.0,94,-99.99,,,-99.99,1.0,HOBO +U30 +Weather +,2013-05-04 07:25:00,
2013-05-04 03:26:00,42.2,40.9,-100.00,North,-999,-999.0,-999.0,94,-99.99,,,-99.99,1.0,HOBO +U30 +Weather +,2013-05-04 07:26:00,
2013-05-04 03:27:00,42.3,41.0,-100.00,North,-999,-999.0,-999.0,95,-99.99,,,-99.99,1.0,HOBO +U30 +Weather +,2013-05-04 07:27:00,
2013-05-04 03:28:00,42.4,41.1,-100.00,North,-999,-999.0,-999.0,95,-99.99,,,-99.99,1.0,HOBO +U30 +Weather +,2013-05-04 07:28:00,
2013-05-04 03:29:00,42.4,41.1,-100.00,North,-999,-999.0,-999.0,95,-99.99,,,-99.99,1.0,HOBO +U30 +Weather +,2013-05-04 07:29:00,
2013-05-04 03:30:00,42.5,41.2,-100.00,North,-999,-999.0,-999.0,95,-99.99,,,-99.99,1.0,HOBO +U30 +Weather +,2013-05-04 07:30:00,
2013-05-04 03:31:00,42.5,41.2,-100.00,North,-999,-999.0,-999.0,95,-99.99,,,-99.99,1.0,HOBO +U30 +Weather +,2013-05-04 07:31:00,
2013-05-04 03:32:00,42.6,41.3,-100.00,North,-999,-999.0,-999.0,95,-99.99,,,-99.99,1.0,HOBO +U30 +Weather +,2013-05-04 07:32:00,
2013-05-04 03:33:00,42.6,41.3,-100.00,North,-999,-999.0,-999.0,95,-99.99,,,-99.99,1.0,HOBO +U30 +Weather +,2013-05-04 07:33:00,
2013-05-04 03:34:00,42.6,41.3,-100.00,North,-999,-999.0,-999.0,95,-99.99,,,-99.99,1.0,HOBO +U30 +Weather +,2013-05-04 07:34:00,
2013-05-04 03:35:00,42.6,41.3,-100.00,North,-999,-999.0,-999.0,95,-99.99,,,-99.99,1.0,HOBO +U30 +Weather +,2013-05-04 07:35:00,
2013-05-04 03:36:00,42.6,41.3,-100.00,North,-999,-999.0,-999.0,95,-99.99,,,-99.99,1.0,HOBO +U30 +Weather +,2013-05-04 07:36:00,
2013-05-04 03:37:00,42.6,41.3,-100.00,North,-999,-999.0,-999.0,95,-99.99,,,-99.99,1.0,HOBO +U30 +Weather +,2013-05-04 07:37:00,
2013-05-04 03:38:00,42.5,41.2,-100.00,North,-999,-999.0,-999.0,95,-99.99,,,-99.99,1.0,HOBO +U30 +Weather +,2013-05-04 07:38:00,
2013-05-04 03:39:00,42.5,41.2,-100.00,North,-999,-999.0,-999.0,95,-99.99,,,-99.99,1.0,HOBO +U30 +Weather +,2013-05-04 07:39:00,
2013-05-04 03:40:00,42.5,41.2,-100.00,North,-999,-999.0,-999.0,95,-99.99,,,-99.99,1.0,HOBO +U30 +Weather +,2013-05-04 07:40:00,
2013-05-04 03:41:00,42.5,41.2,-100.00,North,-999,-999.0,-999.0,95,-99.99,,,-99.99,1.0,HOBO +U30 +Weather +,2013-05-04 07:41:00,
2013-05-04 03:42:00,42.5,41.2,-100.00,North,-999,-999.0,-999.0,95,-99.99,,,-99.99,1.0,HOBO +U30 +Weather +,2013-05-04 07:42:00,
2013-05-04 03:43:00,42.5,41.2,-100.00,North,-999,-999.0,-999.0,95,-99.99,,,-99.99,1.0,HOBO +U30 +Weather +,2013-05-04 07:43:00,
2013-05-04 03:44:00,42.5,41.2,-100.00,North,-999,-999.0,-999.0,95,-99.99,,,-99.99,1.0,HOBO +U30 +Weather +,2013-05-04 07:44:00,
2013-05-04 03:45:00,42.5,41.2,-100.00,North,-999,-999.0,-999.0,95,-99.99,,,-99.99,1.0,HOBO +U30 +Weather +,2013-05-04 07:45:00,
2013-05-04 03:46:00,42.5,41.2,-100.00,North,-999,-999.0,-999.0,95,-99.99,,,-99.99,1.0,HOBO +U30 +Weather +,2013-05-04 07:46:00,
2013-05-04 03:47:00,42.5,41.2,-100.00,North,-999,-999.0,-999.0,95,-99.99,,,-99.99,1.0,HOBO +U30 +Weather +,2013-05-04 07:47:00,
2013-05-04 03:48:00,42.5,41.2,-100.00,North,-999,-999.0,-999.0,95,-99.99,,,-99.99,1.0,HOBO +U30 +Weather +,2013-05-04 07:48:00,
2013-05-04 03:49:00,42.4,41.1,-100.00,North,-999,-999.0,-999.0,95,-99.99,,,-99.99,1.0,HOBO +U30 +Weather +,2013-05-04 07:49:00,
2013-05-04 03:50:00,42.4,41.1,-100.00,North,-999,-999.0,-999.0,95,-99.99,,,-99.99,1.0,HOBO +U30 +Weather +,2013-05-04 07:50:00,
2013-05-04 03:51:00,42.4,41.1,-100.00,North,-999,-999.0,-999.0,95,-99.99,,,-99.99,1.0,HOBO +U30 +Weather +,2013-05-04 07:51:00,
2013-05-04 03:52:00,42.3,41.0,-100.00,North,-999,-999.0,-999.0,95,-99.99,,,-99.99,1.0,HOBO +U30 +Weather +,2013-05-04 07:52:00,
2013-05-04 03:53:00,42.3,41.0,-100.00,North,-999,-999.0,-999.0,95,-99.99,,,-99.99,1.0,HOBO +U30 +Weather +,2013-05-04 07:53:00,
2013-05-04 03:54:00,42.3,41.0,-100.00,North,-999,-999.0,-999.0,95,-99.99,,,-99.99,1.0,HOBO +U30 +Weather +,2013-05-04 07:54:00,
2013-05-04 03:55:00,42.3,41.0,-100.00,North,-999,-999.0,-999.0,95,-99.99,,,-99.99,1.0,HOBO +U30 +Weather +,2013-05-04 07:55:00,
2013-05-04 03:56:00,42.3,41.0,-100.00,North,-999,-999.0,-999.0,95,-99.99,,,-99.99,1.0,HOBO +U30 +Weather +,2013-05-04 07:56:00,
2013-05-04 03:57:00,42.2,40.9,-100.00,North,-999,-999.0,-999.0,95,-99.99,,,-99.99,1.0,HOBO +U30 +Weather +,2013-05-04 07:57:00,
2013-05-04 03:58:00,42.2,40.9,-100.00,North,-999,-999.0,-999.0,95,-99.99,,,-99.99,1.0,HOBO +U30 +Weather +,2013-05-04 07:58:00,
2013-05-04 03:59:00,42.2,40.9,-100.00,North,-999,-999.0,-999.0,95,-99.99,,,-99.99,1.0,HOBO +U30 +Weather +,2013-05-04 07:59:00,
2013-05-04 04:00:00,42.2,40.9,-100.00,North,-999,-999.0,-999.0,95,-99.99,,,-99.99,1.0,HOBO +U30 +Weather +,2013-05-04 08:00:00,
2013-05-04 04:01:00,42.2,40.9,-100.00,North,-999,-999.0,-999.0,95,-99.99,,,-99.99,1.0,HOBO +U30 +Weather +,2013-05-04 08:01:00,
2013-05-04 04:02:00,42.2,40.9,-100.00,North,-999,-999.0,-999.0,95,-99.99,,,-99.99,1.0,HOBO +U30 +Weather +,2013-05-04 08:02:00,
2013-05-04 04:03:00,42.2,40.9,-100.00,North,-999,-999.0,-999.0,95,-99.99,,,-99.99,1.0,HOBO +U30 +Weather +,2013-05-04 08:03:00,
2013-05-04 04:04:00,42.2,40.9,-100.00,North,-999,-999.0,-999.0,95,-99.99,,,-99.99,1.0,HOBO +U30 +Weather +,2013-05-04 08:04:00,
2013-05-04 04:05:00,42.2,40.9,-100.00,North,-999,-999.0,-999.0,95,-99.99,,,-99.99,1.0,HOBO +U30 +Weather +,2013-05-04 08:05:00,
2013-05-04 04:06:00,42.2,41.0,-100.00,North,-999,-999.0,-999.0,95,-99.99,,,-99.99,1.0,HOBO +U30 +Weather +,2013-05-04 08:06:00,
2013-05-04 04:07:00,42.2,41.0,-100.00,North,-999,-999.0,-999.0,95,-99.99,,,-99.99,1.0,HOBO +U30 +Weather +,2013-05-04 08:07:00,
2013-05-04 04:08:00,42.2,41.0,-100.00,North,-999,-999.0,-999.0,95,-99.99,,,-99.99,1.0,HOBO +U30 +Weather +,2013-05-04 08:08:00,
2013-05-04 04:09:00,42.3,41.1,-100.00,North,-999,-999.0,-999.0,95,-99.99,,,-99.99,1.0,HOBO +U30 +Weather +,2013-05-04 08:09:00,
2013-05-04 04:10:00,42.3,41.0,-100.00,North,-999,-999.0,-999.0,95,-99.99,,,-99.99,1.0,HOBO +U30 +Weather +,2013-05-04 08:10:00,
2013-05-04 04:11:00,42.4,41.1,-100.00,North,-999,-999.0,-999.0,95,-99.99,,,-99.99,1.0,HOBO +U30 +Weather +,2013-05-04 08:11:00,
2013-05-04 04:12:00,42.4,41.1,-100.00,North,-999,-999.0,-999.0,95,-99.99,,,-99.99,1.0,HOBO +U30 +Weather +,2013-05-04 08:12:00,
2013-05-04 04:13:00,42.5,41.3,-100.00,North,-999,-999.0,-999.0,95,-99.99,,,-99.99,1.0,HOBO +U30 +Weather +,2013-05-04 08:13:00,
2013-05-04 04:14:00,42.5,41.3,-100.00,North,-999,-999.0,-999.0,95,-99.99,,,-99.99,1.0,HOBO +U30 +Weather +,2013-05-04 08:14:00,
2013-05-04 04:15:00,42.5,41.3,-100.00,North,-999,-999.0,-999.0,95,-99.99,,,-99.99,1.0,HOBO +U30 +Weather +,2013-05-04 08:15:00,
2013-05-04 04:16:00,42.6,41.4,-100.00,North,-999,-999.0,-999.0,95,-99.99,,,-99.99,1.0,HOBO +U30 +Weather +,2013-05-04 08:16:00,
2013-05-04 04:17:00,42.7,41.5,-100.00,North,-999,-999.0,-999.0,95,-99.99,,,-99.99,1.0,HOBO +U30 +Weather +,2013-05-04 08:17:00,
2013-05-04 04:18:00,42.7,41.5,-100.00,North,-999,-999.0,-999.0,95,-99.99,,,-99.99,1.0,HOBO +U30 +Weather +,2013-05-04 08:18:00,
2013-05-04 04:19:00,42.6,41.4,-100.00,North,-999,-999.0,-999.0,95,-99.99,,,-99.99,1.0,HOBO +U30 +Weather +,2013-05-04 08:19:00,
2013-05-04 04:20:00,42.5,41.3,-100.00,North,-999,-999.0,-999.0,95,-99.99,,,-99.99,1.0,HOBO +U30 +Weather +,2013-05-04 08:20:00,
2013-05-04 04:21:00,42.5,41.2,-100.00,North,-999,-999.0,-999.0,95,-99.99,,,-99.99,1.0,HOBO +U30 +Weather +,2013-05-04 08:21:00,
2013-05-04 04:22:00,42.4,41.2,-100.00,North,-999,-999.0,-999.0,95,-99.99,,,-99.99,1.0,HOBO +U30 +Weather +,2013-05-04 08:22:00,
2013-05-04 04:23:00,42.4,41.1,-100.00,North,-999,-999.0,-999.0,95,-99.99,,,-99.99,1.0,HOBO +U30 +Weather +,2013-05-04 08:23:00,
2013-05-04 04:24:00,42.4,41.3,-100.00,North,-999,-999.0,-999.0,95,-99.99,,,-99.99,1.0,HOBO +U30 +Weather +,2013-05-04 08:24:00,
2013-05-04 04:25:00,42.5,41.4,-100.00,North,-999,-999.0,-999.0,95,-99.99,,,-99.99,1.0,HOBO +U30 +Weather +,2013-05-04 08:25:00,
2013-05-04 04:26:00,42.6,41.5,-100.00,North,-999,-999.0,-999.0,95,-99.99,,,-99.99,1.0,HOBO +U30 +Weather +,2013-05-04 08:26:00,
2013-05-04 04:27:00,42.6,41.5,-100.00,North,-999,-999.0,-999.0,95,-99.99,,,-99.99,1.0,HOBO +U30 +Weather +,2013-05-04 08:27:00,
2013-05-04 04:28:00,42.7,41.5,-100.00,North,-999,-999.0,-999.0,95,-99.99,,,-99.99,1.0,HOBO +U30 +Weather +,2013-05-04 08:28:00,
2013-05-04 04:29:00,42.6,41.4,-100.00,North,-999,-999.0,-999.0,95,-99.99,,,-99.99,1.0,HOBO +U30 +Weather +,2013-05-04 08:29:00,
2013-05-04 04:30:00,42.7,41.6,-100.00,North,-999,-999.0,-999.0,95,-99.99,,,-99.99,1.0,HOBO +U30 +Weather +,2013-05-04 08:30:00,
2013-05-04 04:31:00,42.8,41.6,-100.00,North,-999,-999.0,-999.0,95,-99.99,,,-99.99,1.0,HOBO +U30 +Weather +,2013-05-04 08:31:00,
2013-05-04 04:32:00,42.8,41.6,-100.00,North,-999,-999.0,-999.0,95,-99.99,,,-99.99,1.0,HOBO +U30 +Weather +,2013-05-04 08:32:00,
2013-05-04 04:33:00,42.9,41.7,-100.00,North,-999,-999.0,-999.0,95,-99.99,,,-99.99,1.0,HOBO +U30 +Weather +,2013-05-04 08:33:00,
2013-05-04 04:34:00,42.8,41.6,-100.00,North,-999,-999.0,-999.0,95,-99.99,,,-99.99,1.0,HOBO +U30 +Weather +,2013-05-04 08:34:00,
2013-05-04 04:35:00,42.7,41.6,-100.00,North,-999,-999.0,-999.0,95,-99.99,,,-99.99,1.0,HOBO +U30 +Weather +,2013-05-04 08:35:00,
2013-05-04 04:36:00,42.8,41.6,-100.00,North,-999,-999.0,-999.0,95,-99.99,,,-99.99,1.0,HOBO +U30 +Weather +,2013-05-04 08:36:00,
2013-05-04 04:37:00,42.9,41.7,-100.00,North,-999,-999.0,-999.0,95,-99.99,,,-99.99,1.0,HOBO +U30 +Weather +,2013-05-04 08:37:00,
2013-05-04 04:38:00,42.9,41.7,-100.00,North,-999,-999.0,-999.0,95,-99.99,,,-99.99,1.0,HOBO +U30 +Weather +,2013-05-04 08:38:00,
2013-05-04 04:39:00,43.0,41.8,-100.00,North,-999,-999.0,-999.0,95,-99.99,,,-99.99,1.0,HOBO +U30 +Weather +,2013-05-04 08:39:00,
2013-05-04 04:40:00,42.9,41.7,-100.00,North,-999,-999.0,-999.0,95,-99.99,,,-99.99,1.0,HOBO +U30 +Weather +,2013-05-04 08:40:00,
2013-05-04 04:41:00,42.9,41.7,-100.00,North,-999,-999.0,-999.0,95,-99.99,,,-99.99,1.0,HOBO +U30 +Weather +,2013-05-04 08:41:00,
2013-05-04 04:42:00,42.9,41.7,-100.00,North,-999,-999.0,-999.0,95,-99.99,,,-99.99,1.0,HOBO +U30 +Weather +,2013-05-04 08:42:00,
2013-05-04 04:43:00,42.9,41.7,-100.00,North,-999,-999.0,-999.0,95,-99.99,,,-99.99,1.0,HOBO +U30 +Weather +,2013-05-04 08:43:00,
2013-05-04 04:44:00,42.9,41.7,-100.00,North,-999,-999.0,-999.0,95,-99.99,,,-99.99,1.0,HOBO +U30 +Weather +,2013-05-04 08:44:00,
2013-05-04 04:45:00,42.8,41.6,-100.00,North,-999,-999.0,-999.0,95,-99.99,,,-99.99,1.0,HOBO +U30 +Weather +,2013-05-04 08:45:00,
2013-05-04 04:46:00,42.7,41.6,-100.00,North,-999,-999.0,-999.0,95,-99.99,,,-99.99,1.0,HOBO +U30 +Weather +,2013-05-04 08:46:00,
2013-05-04 04:47:00,42.7,41.5,-100.00,North,-999,-999.0,-999.0,95,-99.99,,,-99.99,1.0,HOBO +U30 +Weather +,2013-05-04 08:47:00,
2013-05-04 04:48:00,42.6,41.4,-100.00,North,-999,-999.0,-999.0,95,-99.99,,,-99.99,1.0,HOBO +U30 +Weather +,2013-05-04 08:48:00,
2013-05-04 04:49:00,42.6,41.4,-100.00,North,-999,-999.0,-999.0,95,-99.99,,,-99.99,1.0,HOBO +U30 +Weather +,2013-05-04 08:49:00,
2013-05-04 04:50:00,42.5,41.3,-100.00,North,-999,-999.0,-999.0,95,-99.99,,,-99.99,1.0,HOBO +U30 +Weather +,2013-05-04 08:50:00,
2013-05-04 04:51:00,42.5,41.3,-100.00,North,-999,-999.0,-999.0,95,-99.99,,,-99.99,1.0,HOBO +U30 +Weather +,2013-05-04 08:51:00,
2013-05-04 04:52:00,42.4,41.3,-100.00,North,-999,-999.0,-999.0,95,-99.99,,,-99.99,1.0,HOBO +U30 +Weather +,2013-05-04 08:52:00,
2013-05-04 04:53:00,42.3,41.1,-100.00,North,-999,-999.0,-999.0,95,-99.99,,,-99.99,1.0,HOBO +U30 +Weather +,2013-05-04 08:53:00,
2013-05-04 04:54:00,42.2,41.0,-100.00,North,-999,-999.0,-999.0,95,-99.99,,,-99.99,1.0,HOBO +U30 +Weather +,2013-05-04 08:54:00,
2013-05-04 04:55:00,42.1,40.9,-100.00,North,-999,-999.0,-999.0,95,-99.99,,,-99.99,1.0,HOBO +U30 +Weather +,2013-05-04 08:55:00,
2013-05-04 04:56:00,41.9,40.7,-100.00,North,-999,-999.0,-999.0,95,-99.99,,,-99.99,1.0,HOBO +U30 +Weather +,2013-05-04 08:56:00,
2013-05-04 04:57:00,41.8,40.6,-100.00,North,-999,-999.0,-999.0,95,-99.99,,,-99.99,1.0,HOBO +U30 +Weather +,2013-05-04 08:57:00,
2013-05-04 04:58:00,41.7,40.5,-100.00,North,-999,-999.0,-999.0,95,-99.99,,,-99.99,1.0,HOBO +U30 +Weather +,2013-05-04 08:58:00,
2013-05-04 04:59:00,41.6,40.3,-100.00,North,-999,-999.0,-999.0,95,-99.99,,,-99.99,1.0,HOBO +U30 +Weather +,2013-05-04 08:59:00,
2013-05-04 05:00:00,41.4,40.2,-100.00,North,-999,-999.0,-999.0,95,-99.99,,,-99.99,2.0,HOBO +U30 +Weather +,2013-05-04 09:00:00,
2013-05-04 05:01:00,41.3,40.1,-100.00,North,-999,-999.0,-999.0,95,-99.99,,,-99.99,2.0,HOBO +U30 +Weather +,2013-05-04 09:01:00,
2013-05-04 05:02:00,41.2,40.0,-100.00,North,-999,-999.0,-999.0,95,-99.99,,,-99.99,2.0,HOBO +U30 +Weather +,2013-05-04 09:02:00,
2013-05-04 05:03:00,41.2,40.0,-100.00,North,-999,-999.0,-999.0,95,-99.99,,,-99.99,2.0,HOBO +U30 +Weather +,2013-05-04 09:03:00,
2013-05-04 05:04:00,41.2,40.0,-100.00,North,-999,-999.0,-999.0,95,-99.99,,,-99.99,3.0,HOBO +U30 +Weather +,2013-05-04 09:04:00,
2013-05-04 05:05:00,41.2,40.0,-100.00,North,-999,-999.0,-999.0,95,-99.99,,,-99.99,3.0,HOBO +U30 +Weather +,2013-05-04 09:05:00,
2013-05-04 05:06:00,41.3,40.1,-100.00,North,-999,-999.0,-999.0,95,-99.99,,,-99.99,3.0,HOBO +U30 +Weather +,2013-05-04 09:06:00,
2013-05-04 05:07:00,41.4,40.3,-100.00,North,-999,-999.0,-999.0,95,-99.99,,,-99.99,4.0,HOBO +U30 +Weather +,2013-05-04 09:07:00,
2013-05-04 05:08:00,41.4,40.3,-100.00,North,-999,-999.0,-999.0,95,-99.99,,,-99.99,4.0,HOBO +U30 +Weather +,2013-05-04 09:08:00,
2013-05-04 05:09:00,41.4,40.3,-100.00,North,-999,-999.0,-999.0,95,-99.99,,,-99.99,4.0,HOBO +U30 +Weather +,2013-05-04 09:09:00,
2013-05-04 05:10:00,41.4,40.3,-100.00,North,-999,-999.0,-999.0,95,-99.99,,,-99.99,6.0,HOBO +U30 +Weather +,2013-05-04 09:10:00,
2013-05-04 05:11:00,41.3,40.2,-100.00,North,-999,-999.0,-999.0,95,-99.99,,,-99.99,6.0,HOBO +U30 +Weather +,2013-05-04 09:11:00,
2013-05-04 05:12:00,41.2,40.1,-100.00,North,-999,-999.0,-999.0,95,-99.99,,,-99.99,6.0,HOBO +U30 +Weather +,2013-05-04 09:12:00,
2013-05-04 05:13:00,41.2,40.0,-100.00,North,-999,-999.0,-999.0,95,-99.99,,,-99.99,7.0,HOBO +U30 +Weather +,2013-05-04 09:13:00,
2013-05-04 05:14:00,41.1,40.0,-100.00,North,-999,-999.0,-999.0,95,-99.99,,,-99.99,7.0,HOBO +U30 +Weather +,2013-05-04 09:14:00,
2013-05-04 05:15:00,41.1,40.0,-100.00,North,-999,-999.0,-999.0,95,-99.99,,,-99.99,8.0,HOBO +U30 +Weather +,2013-05-04 09:15:00,
2013-05-04 05:16:00,41.1,40.0,-100.00,North,-999,-999.0,-999.0,95,-99.99,,,-99.99,8.0,HOBO +U30 +Weather +,2013-05-04 09:16:00,
2013-05-04 05:17:00,41.0,39.9,-100.00,North,-999,-999.0,-999.0,95,-99.99,,,-99.99,8.0,HOBO +U30 +Weather +,2013-05-04 09:17:00,
2013-05-04 05:18:00,40.9,39.7,-100.00,North,-999,-999.0,-999.0,95,-99.99,,,-99.99,9.0,HOBO +U30 +Weather +,2013-05-04 09:18:00,
2013-05-04 05:19:00,40.8,39.6,-100.00,North,-999,-999.0,-999.0,95,-99.99,,,-99.99,9.0,HOBO +U30 +Weather +,2013-05-04 09:19:00,
2013-05-04 05:20:00,40.7,39.5,-100.00,North,-999,-999.0,-999.0,95,-99.99,,,-99.99,11.0,HOBO +U30 +Weather +,2013-05-04 09:20:00,
2013-05-04 05:21:00,40.6,39.4,-100.00,North,-999,-999.0,-999.0,95,-99.99,,,-99.99,11.0,HOBO +U30 +Weather +,2013-05-04 09:21:00,
2013-05-04 05:22:00,40.5,39.3,-100.00,North,-999,-999.0,-999.0,95,-99.99,,,-99.99,12.0,HOBO +U30 +Weather +,2013-05-04 09:22:00,
2013-05-04 05:23:00,40.4,39.2,-100.00,North,-999,-999.0,-999.0,95,-99.99,,,-99.99,12.0,HOBO +U30 +Weather +,2013-05-04 09:23:00,
2013-05-04 05:24:00,40.4,39.3,-100.00,North,-999,-999.0,-999.0,95,-99.99,,,-99.99,12.0,HOBO +U30 +Weather +,2013-05-04 09:24:00,
2013-05-04 05:25:00,40.5,39.3,-100.00,North,-999,-999.0,-999.0,95,-99.99,,,-99.99,13.0,HOBO +U30 +Weather +,2013-05-04 09:25:00,
2013-05-04 05:26:00,40.5,39.4,-100.00,North,-999,-999.0,-999.0,95,-99.99,,,-99.99,13.0,HOBO +U30 +Weather +,2013-05-04 09:26:00,
2013-05-04 05:27:00,40.5,39.4,-100.00,North,-999,-999.0,-999.0,95,-99.99,,,-99.99,14.0,HOBO +U30 +Weather +,2013-05-04 09:27:00,
2013-05-04 05:28:00,40.6,39.5,-100.00,North,-999,-999.0,-999.0,95,-99.99,,,-99.99,14.0,HOBO +U30 +Weather +,2013-05-04 09:28:00,
2013-05-04 05:29:00,40.7,39.6,-100.00,North,-999,-999.0,-999.0,95,-99.99,,,-99.99,16.0,HOBO +U30 +Weather +,2013-05-04 09:29:00,
2013-05-04 05:30:00,40.7,39.6,-100.00,North,-999,-999.0,-999.0,95,-99.99,,,-99.99,16.0,HOBO +U30 +Weather +,2013-05-04 09:30:00,
2013-05-04 05:31:00,40.7,39.6,-100.00,North,-999,-999.0,-999.0,95,-99.99,,,-99.99,17.0,HOBO +U30 +Weather +,2013-05-04 09:31:00,
2013-05-04 05:32:00,40.8,39.7,-100.00,North,-999,-999.0,-999.0,95,-99.99,,,-99.99,17.0,HOBO +U30 +Weather +,2013-05-04 09:32:00,
2013-05-04 05:33:00,40.8,39.7,-100.00,North,-999,-999.0,-999.0,95,-99.99,,,-99.99,17.0,HOBO +U30 +Weather +,2013-05-04 09:33:00,
2013-05-04 05:34:00,40.7,39.6,-100.00,North,-999,-999.0,-999.0,95,-99.99,,,-99.99,17.0,HOBO +U30 +Weather +,2013-05-04 09:34:00,
2013-05-04 05:35:00,40.7,39.5,-100.00,North,-999,-999.0,-999.0,95,-99.99,,,-99.99,18.0,HOBO +U30 +Weather +,2013-05-04 09:35:00,
2013-05-04 05:36:00,40.6,39.5,-100.00,North,-999,-999.0,-999.0,95,-99.99,,,-99.99,18.0,HOBO +U30 +Weather +,2013-05-04 09:36:00,
2013-05-04 05:37:00,40.5,39.4,-100.00,North,-999,-999.0,-999.0,95,-99.99,,,-99.99,19.0,HOBO +U30 +Weather +,2013-05-04 09:37:00,
2013-05-04 05:38:00,40.6,39.5,-100.00,North,-999,-999.0,-999.0,95,-99.99,,,-99.99,19.0,HOBO +U30 +Weather +,2013-05-04 09:38:00,
2013-05-04 05:39:00,40.5,39.4,-100.00,North,-999,-999.0,-999.0,95,-99.99,,,-99.99,21.0,HOBO +U30 +Weather +,2013-05-04 09:39:00,
2013-05-04 05:40:00,40.5,39.4,-100.00,North,-999,-999.0,-999.0,95,-99.99,,,-99.99,21.0,HOBO +U30 +Weather +,2013-05-04 09:40:00,
2013-05-04 05:41:00,40.5,39.4,-100.00,North,-999,-999.0,-999.0,95,-99.99,,,-99.99,21.0,HOBO +U30 +Weather +,2013-05-04 09:41:00,
2013-05-04 05:42:00,40.5,39.4,-100.00,North,-999,-999.0,-999.0,95,-99.99,,,-99.99,21.0,HOBO +U30 +Weather +,2013-05-04 09:42:00,
2013-05-04 05:43:00,40.4,39.3,-100.00,North,-999,-999.0,-999.0,95,-99.99,,,-99.99,22.0,HOBO +U30 +Weather +,2013-05-04 09:43:00,
2013-05-04 05:44:00,40.4,39.3,-100.00,North,-999,-999.0,-999.0,95,-99.99,,,-99.99,22.0,HOBO +U30 +Weather +,2013-05-04 09:44:00,
2013-05-04 05:45:00,40.3,39.2,-100.00,North,-999,-999.0,-999.0,95,-99.99,,,-99.99,22.0,HOBO +U30 +Weather +,2013-05-04 09:45:00,
2013-05-04 05:46:00,40.2,39.1,-100.00,North,-999,-999.0,-999.0,95,-99.99,,,-99.99,23.0,HOBO +U30 +Weather +,2013-05-04 09:46:00,
2013-05-04 05:47:00,40.2,39.1,-100.00,North,-999,-999.0,-999.0,95,-99.99,,,-99.99,23.0,HOBO +U30 +Weather +,2013-05-04 09:47:00,
2013-05-04 05:48:00,40.3,39.2,-100.00,North,-999,-999.0,-999.0,95,-99.99,,,-99.99,23.0,HOBO +U30 +Weather +,2013-05-04 09:48:00,
2013-05-04 05:49:00,40.4,39.3,-100.00,North,-999,-999.0,-999.0,95,-99.99,,,-99.99,24.0,HOBO +U30 +Weather +,2013-05-04 09:49:00,
2013-05-04 05:50:00,40.5,39.4,-100.00,North,-999,-999.0,-999.0,95,-99.99,,,-99.99,24.0,HOBO +U30 +Weather +,2013-05-04 09:50:00,
2013-05-04 05:51:00,40.6,39.6,-100.00,North,-999,-999.0,-999.0,96,-99.99,,,-99.99,24.0,HOBO +U30 +Weather +,2013-05-04 09:51:00,
2013-05-04 05:52:00,40.7,39.6,-100.00,North,-999,-999.0,-999.0,95,-99.99,,,-99.99,24.0,HOBO +U30 +Weather +,2013-05-04 09:52:00,
2013-05-04 05:53:00,40.8,39.7,-100.00,North,-999,-999.0,-999.0,95,-99.99,,,-99.99,26.0,HOBO +U30 +Weather +,2013-05-04 09:53:00,
2013-05-04 05:54:00,40.9,39.8,-100.00,North,-999,-999.0,-999.0,95,-99.99,,,-99.99,26.0,HOBO +U30 +Weather +,2013-05-04 09:54:00,
2013-05-04 05:55:00,40.9,39.8,-100.00,North,-999,-999.0,-999.0,95,-99.99,,,-99.99,26.0,HOBO +U30 +Weather +,2013-05-04 09:55:00,
2013-05-04 05:56:00,40.9,39.8,-100.00,North,-999,-999.0,-999.0,95,-99.99,,,-99.99,27.0,HOBO +U30 +Weather +,2013-05-04 09:56:00,
2013-05-04 05:57:00,40.9,39.8,-100.00,North,-999,-999.0,-999.0,95,-99.99,,,-99.99,27.0,HOBO +U30 +Weather +,2013-05-04 09:57:00,
2013-05-04 05:58:00,40.9,39.8,-100.00,North,-999,-999.0,-999.0,95,-99.99,,,-99.99,28.0,HOBO +U30 +Weather +,2013-05-04 09:58:00,
2013-05-04 05:59:00,41.0,39.9,-100.00,North,-999,-999.0,-999.0,95,-99.99,,,-99.99,28.0,HOBO +U30 +Weather +,2013-05-04 09:59:00,
2013-05-04 06:00:00,41.0,40.0,-100.00,North,-999,-999.0,-999.0,95,-99.99,,,-99.99,28.0,HOBO +U30 +Weather +,2013-05-04 10:00:00,
2013-05-04 06:01:00,41.0,40.0,-100.00,North,-999,-999.0,-999.0,95,-99.99,,,-99.99,28.0,HOBO +U30 +Weather +,2013-05-04 10:01:00,
2013-05-04 06:02:00,41.1,40.0,-100.00,North,-999,-999.0,-999.0,95,-99.99,,,-99.99,28.0,HOBO +U30 +Weather +,2013-05-04 10:02:00,
2013-05-04 06:03:00,41.2,40.1,-100.00,North,-999,-999.0,-999.0,95,-99.99,,,-99.99,29.0,HOBO +U30 +Weather +,2013-05-04 10:03:00,
2013-05-04 06:04:00,41.2,40.2,-100.00,North,-999,-999.0,-999.0,95,-99.99,,,-99.99,29.0,HOBO +U30 +Weather +,2013-05-04 10:04:00,
2013-05-04 06:05:00,41.4,40.4,-100.00,North,-999,-999.0,-999.0,96,-99.99,,,-99.99,29.0,HOBO +U30 +Weather +,2013-05-04 10:05:00,
2013-05-04 06:06:00,41.5,40.5,-100.00,North,-999,-999.0,-999.0,96,-99.99,,,-99.99,31.0,HOBO +U30 +Weather +,2013-05-04 10:06:00,
2013-05-04 06:07:00,41.6,40.7,-100.00,North,-999,-999.0,-999.0,96,-99.99,,,-99.99,31.0,HOBO +U30 +Weather +,2013-05-04 10:07:00,
2013-05-04 06:08:00,41.8,40.8,-100.00,North,-999,-999.0,-999.0,96,-99.99,,,-99.99,31.0,HOBO +U30 +Weather +,2013-05-04 10:08:00,
2013-05-04 06:09:00,41.9,40.8,-100.00,North,-999,-999.0,-999.0,96,-99.99,,,-99.99,32.0,HOBO +U30 +Weather +,2013-05-04 10:09:00,
2013-05-04 06:10:00,42.0,40.9,-100.00,North,-999,-999.0,-999.0,96,-99.99,,,-99.99,32.0,HOBO +U30 +Weather +,2013-05-04 10:10:00,
2013-05-04 06:11:00,42.0,41.0,-100.00,North,-999,-999.0,-999.0,96,-99.99,,,-99.99,32.0,HOBO +U30 +Weather +,2013-05-04 10:11:00,
2013-05-04 06:12:00,42.1,41.0,-100.00,North,-999,-999.0,-999.0,96,-99.99,,,-99.99,32.0,HOBO +U30 +Weather +,2013-05-04 10:12:00,
2013-05-04 06:13:00,42.1,41.1,-100.00,North,-999,-999.0,-999.0,96,-99.99,,,-99.99,33.0,HOBO +U30 +Weather +,2013-05-04 10:13:00,
2013-05-04 06:14:00,42.1,41.1,-100.00,North,-999,-999.0,-999.0,96,-99.99,,,-99.99,33.0,HOBO +U30 +Weather +,2013-05-04 10:14:00,
2013-05-04 06:15:00,42.2,41.2,-100.00,North,-999,-999.0,-999.0,96,-99.99,,,-99.99,33.0,HOBO +U30 +Weather +,2013-05-04 10:15:00,
2013-05-04 06:16:00,42.3,41.3,-100.00,North,-999,-999.0,-999.0,96,-99.99,,,-99.99,33.0,HOBO +U30 +Weather +,2013-05-04 10:16:00,
2013-05-04 06:17:00,42.3,41.3,-100.00,North,-999,-999.0,-999.0,96,-99.99,,,-99.99,33.0,HOBO +U30 +Weather +,2013-05-04 10:17:00,
2013-05-04 06:18:00,42.4,41.4,-100.00,North,-999,-999.0,-999.0,96,-99.99,,,-99.99,34.0,HOBO +U30 +Weather +,2013-05-04 10:18:00,
2013-05-04 06:19:00,42.6,41.5,-100.00,North,-999,-999.0,-999.0,96,-99.99,,,-99.99,34.0,HOBO +U30 +Weather +,2013-05-04 10:19:00,
2013-05-04 06:20:00,42.7,41.8,-100.00,North,-999,-999.0,-999.0,96,-99.99,,,-99.99,34.0,HOBO +U30 +Weather +,2013-05-04 10:20:00,
2013-05-04 06:21:00,42.9,42.0,-100.00,North,-999,-999.0,-999.0,96,-99.99,,,-99.99,36.0,HOBO +U30 +Weather +,2013-05-04 10:21:00,
2013-05-04 06:22:00,43.1,42.1,-100.00,North,-999,-999.0,-999.0,96,-99.99,,,-99.99,36.0,HOBO +U30 +Weather +,2013-05-04 10:22:00,
2013-05-04 06:23:00,43.3,42.2,-100.00,North,-999,-999.0,-999.0,96,-99.99,,,-99.99,36.0,HOBO +U30 +Weather +,2013-05-04 10:23:00,
2013-05-04 06:24:00,43.4,42.4,-100.00,North,-999,-999.0,-999.0,96,-99.99,,,-99.99,37.0,HOBO +U30 +Weather +,2013-05-04 10:24:00,
2013-05-04 06:25:00,43.5,42.5,-100.00,North,-999,-999.0,-999.0,96,-99.99,,,-99.99,37.0,HOBO +U30 +Weather +,2013-05-04 10:25:00,
2013-05-04 06:26:00,43.8,42.7,-100.00,North,-999,-999.0,-999.0,96,-99.99,,,-99.99,37.0,HOBO +U30 +Weather +,2013-05-04 10:26:00,
2013-05-04 06:27:00,44.0,42.9,-100.00,North,-999,-999.0,-999.0,96,-99.99,,,-99.99,37.0,HOBO +U30 +Weather +,2013-05-04 10:27:00,
2013-05-04 06:28:00,44.1,43.0,-100.00,North,-999,-999.0,-999.0,96,-99.99,,,-99.99,37.0,HOBO +U30 +Weather +,2013-05-04 10:28:00,
2013-05-04 06:29:00,44.3,43.2,-100.00,North,-999,-999.0,-999.0,95,-99.99,,,-99.99,38.0,HOBO +U30 +Weather +,2013-05-04 10:29:00,
2013-05-04 06:30:00,44.4,43.3,-100.00,North,-999,-999.0,-999.0,95,-99.99,,,-99.99,38.0,HOBO +U30 +Weather +,2013-05-04 10:30:00,
2013-05-04 06:31:00,44.5,43.4,-100.00,North,-999,-999.0,-999.0,95,-99.99,,,-99.99,38.0,HOBO +U30 +Weather +,2013-05-04 10:31:00,
2013-05-04 06:32:00,44.7,43.6,-100.00,North,-999,-999.0,-999.0,95,-99.99,,,-99.99,39.0,HOBO +U30 +Weather +,2013-05-04 10:32:00,
2013-05-04 06:33:00,44.9,43.7,-100.00,North,-999,-999.0,-999.0,95,-99.99,,,-99.99,39.0,HOBO +U30 +Weather +,2013-05-04 10:33:00,
2013-05-04 06:34:00,45.1,43.9,-100.00,North,-999,-999.0,-999.0,95,-99.99,,,-99.99,39.0,HOBO +U30 +Weather +,2013-05-04 10:34:00,
2013-05-04 06:35:00,45.3,44.0,-100.00,North,-999,-999.0,-999.0,95,-99.99,,,-99.99,39.0,HOBO +U30 +Weather +,2013-05-04 10:35:00,
2013-05-04 06:36:00,45.4,44.1,-100.00,North,-999,-999.0,-999.0,94,-99.99,,,-99.99,41.0,HOBO +U30 +Weather +,2013-05-04 10:36:00,
2013-05-04 06:37:00,45.6,44.2,-100.00,North,-999,-999.0,-999.0,94,-99.99,,,-99.99,41.0,HOBO +U30 +Weather +,2013-05-04 10:37:00,
2013-05-04 06:38:00,45.8,44.2,-100.00,North,-999,-999.0,-999.0,94,-99.99,,,-99.99,41.0,HOBO +U30 +Weather +,2013-05-04 10:38:00,
2013-05-04 06:39:00,46.0,44.3,-100.00,North,-999,-999.0,-999.0,93,-99.99,,,-99.99,41.0,HOBO +U30 +Weather +,2013-05-04 10:39:00,
2013-05-04 06:40:00,46.1,44.3,-100.00,North,-999,-999.0,-999.0,93,-99.99,,,-99.99,42.0,HOBO +U30 +Weather +,2013-05-04 10:40:00,
2013-05-04 06:41:00,46.3,44.4,-100.00,North,-999,-999.0,-999.0,93,-99.99,,,-99.99,42.0,HOBO +U30 +Weather +,2013-05-04 10:41:00,
2013-05-04 06:42:00,46.4,44.4,-100.00,North,-999,-999.0,-999.0,92,-99.99,,,-99.99,42.0,HOBO +U30 +Weather +,2013-05-04 10:42:00,
2013-05-04 06:43:00,46.4,44.3,-100.00,North,-999,-999.0,-999.0,92,-99.99,,,-99.99,43.0,HOBO +U30 +Weather +,2013-05-04 10:43:00,
2013-05-04 06:44:00,46.6,44.4,-100.00,North,-999,-999.0,-999.0,92,-99.99,,,-99.99,43.0,HOBO +U30 +Weather +,2013-05-04 10:44:00,
2013-05-04 06:45:00,46.7,44.4,-100.00,North,-999,-999.0,-999.0,91,-99.99,,,-99.99,43.0,HOBO +U30 +Weather +,2013-05-04 10:45:00,
2013-05-04 06:46:00,46.8,44.5,-100.00,North,-999,-999.0,-999.0,91,-99.99,,,-99.99,43.0,HOBO +U30 +Weather +,2013-05-04 10:46:00,
2013-05-04 06:47:00,46.9,44.5,-100.00,North,-999,-999.0,-999.0,91,-99.99,,,-99.99,44.0,HOBO +U30 +Weather +,2013-05-04 10:47:00,
2013-05-04 06:48:00,47.1,44.5,-100.00,North,-999,-999.0,-999.0,90,-99.99,,,-99.99,44.0,HOBO +U30 +Weather +,2013-05-04 10:48:00,
2013-05-04 06:49:00,47.2,44.5,-100.00,North,-999,-999.0,-999.0,90,-99.99,,,-99.99,44.0,HOBO +U30 +Weather +,2013-05-04 10:49:00,
2013-05-04 06:50:00,47.2,44.4,-100.00,North,-999,-999.0,-999.0,89,-99.99,,,-99.99,69.0,HOBO +U30 +Weather +,2013-05-04 10:50:00,
2013-05-04 06:51:00,47.4,44.5,-100.00,North,-999,-999.0,-999.0,89,-99.99,,,-99.99,152.0,HOBO +U30 +Weather +,2013-05-04 10:51:00,
2013-05-04 06:52:00,47.5,44.5,-100.00,North,-999,-999.0,-999.0,89,-99.99,,,-99.99,224.0,HOBO +U30 +Weather +,2013-05-04 10:52:00,
2013-05-04 06:53:00,47.6,44.5,-100.00,North,-999,-999.0,-999.0,88,-99.99,,,-99.99,233.0,HOBO +U30 +Weather +,2013-05-04 10:53:00,
2013-05-04 06:54:00,47.7,44.5,-100.00,North,-999,-999.0,-999.0,88,-99.99,,,-99.99,237.0,HOBO +U30 +Weather +,2013-05-04 10:54:00,
2013-05-04 06:55:00,47.8,44.5,-100.00,North,-999,-999.0,-999.0,88,-99.99,,,-99.99,239.0,HOBO +U30 +Weather +,2013-05-04 10:55:00,
2013-05-04 06:56:00,47.9,44.6,-100.00,North,-999,-999.0,-999.0,88,-99.99,,,-99.99,242.0,HOBO +U30 +Weather +,2013-05-04 10:56:00,
2013-05-04 06:57:00,48.0,44.5,-100.00,North,-999,-999.0,-999.0,87,-99.99,,,-99.99,244.0,HOBO +U30 +Weather +,2013-05-04 10:57:00,
2013-05-04 06:58:00,48.1,44.5,-100.00,North,-999,-999.0,-999.0,87,-99.99,,,-99.99,247.0,HOBO +U30 +Weather +,2013-05-04 10:58:00,
2013-05-04 06:59:00,48.2,44.6,-100.00,North,-999,-999.0,-999.0,87,-99.99,,,-99.99,251.0,HOBO +U30 +Weather +,2013-05-04 10:59:00,
2013-05-04 07:00:00,48.3,44.7,-100.00,North,-999,-999.0,-999.0,87,-99.99,,,-99.99,253.0,HOBO +U30 +Weather +,2013-05-04 11:00:00,
2013-05-04 07:01:00,48.4,44.8,-100.00,North,-999,-999.0,-999.0,87,-99.99,,,-99.99,256.0,HOBO +U30 +Weather +,2013-05-04 11:01:00,
2013-05-04 07:02:00,48.5,44.7,-100.00,North,-999,-999.0,-999.0,86,-99.99,,,-99.99,258.0,HOBO +U30 +Weather +,2013-05-04 11:02:00,
2013-05-04 07:03:00,48.6,44.8,-100.00,North,-999,-999.0,-999.0,86,-99.99,,,-99.99,261.0,HOBO +U30 +Weather +,2013-05-04 11:03:00,
2013-05-04 07:04:00,48.7,45.0,-100.00,North,-999,-999.0,-999.0,86,-99.99,,,-99.99,263.0,HOBO +U30 +Weather +,2013-05-04 11:04:00,
2013-05-04 07:05:00,48.8,44.8,-100.00,North,-999,-999.0,-999.0,86,-99.99,,,-99.99,266.0,HOBO +U30 +Weather +,2013-05-04 11:05:00,
2013-05-04 07:06:00,48.8,44.8,-100.00,North,-999,-999.0,-999.0,85,-99.99,,,-99.99,268.0,HOBO +U30 +Weather +,2013-05-04 11:06:00,
2013-05-04 07:07:00,48.9,44.8,-100.00,North,-999,-999.0,-999.0,85,-99.99,,,-99.99,271.0,HOBO +U30 +Weather +,2013-05-04 11:07:00,
2013-05-04 07:08:00,49.0,44.8,-100.00,North,-999,-999.0,-999.0,85,-99.99,,,-99.99,273.0,HOBO +U30 +Weather +,2013-05-04 11:08:00,
2013-05-04 07:09:00,49.0,44.7,-100.00,North,-999,-999.0,-999.0,84,-99.99,,,-99.99,277.0,HOBO +U30 +Weather +,2013-05-04 11:09:00,
2013-05-04 07:10:00,49.1,44.7,-100.00,North,-999,-999.0,-999.0,84,-99.99,,,-99.99,278.0,HOBO +U30 +Weather +,2013-05-04 11:10:00,
2013-05-04 07:11:00,49.2,44.7,-100.00,North,-999,-999.0,-999.0,84,-99.99,,,-99.99,282.0,HOBO +U30 +Weather +,2013-05-04 11:11:00,
2013-05-04 07:12:00,49.2,44.8,-100.00,North,-999,-999.0,-999.0,84,-99.99,,,-99.99,283.0,HOBO +U30 +Weather +,2013-05-04 11:12:00,
2013-05-04 07:13:00,49.3,44.8,-100.00,North,-999,-999.0,-999.0,84,-99.99,,,-99.99,286.0,HOBO +U30 +Weather +,2013-05-04 11:13:00,
2013-05-04 07:14:00,49.3,44.7,-100.00,North,-999,-999.0,-999.0,83,-99.99,,,-99.99,288.0,HOBO +U30 +Weather +,2013-05-04 11:14:00,
2013-05-04 07:15:00,49.5,44.7,-100.00,North,-999,-999.0,-999.0,83,-99.99,,,-99.99,292.0,HOBO +U30 +Weather +,2013-05-04 11:15:00,
2013-05-04 07:16:00,49.5,44.8,-100.00,North,-999,-999.0,-999.0,83,-99.99,,,-99.99,294.0,HOBO +U30 +Weather +,2013-05-04 11:16:00,
2013-05-04 07:17:00,49.6,44.8,-100.00,North,-999,-999.0,-999.0,83,-99.99,,,-99.99,298.0,HOBO +U30 +Weather +,2013-05-04 11:17:00,
2013-05-04 07:18:00,49.7,44.8,-100.00,North,-999,-999.0,-999.0,83,-99.99,,,-99.99,299.0,HOBO +U30 +Weather +,2013-05-04 11:18:00,
2013-05-04 07:19:00,49.8,44.9,-100.00,North,-999,-999.0,-999.0,82,-99.99,,,-99.99,302.0,HOBO +U30 +Weather +,2013-05-04 11:19:00,
2013-05-04 07:20:00,49.8,44.7,-100.00,North,-999,-999.0,-999.0,82,-99.99,,,-99.99,306.0,HOBO +U30 +Weather +,2013-05-04 11:20:00,
2013-05-04 07:21:00,49.8,44.7,-100.00,North,-999,-999.0,-999.0,82,-99.99,,,-99.99,308.0,HOBO +U30 +Weather +,2013-05-04 11:21:00,
2013-05-04 07:22:00,49.8,44.7,-100.00,North,-999,-999.0,-999.0,82,-99.99,,,-99.99,311.0,HOBO +U30 +Weather +,2013-05-04 11:22:00,
2013-05-04 07:23:00,49.9,44.7,-100.00,North,-999,-999.0,-999.0,82,-99.99,,,-99.99,314.0,HOBO +U30 +Weather +,2013-05-04 11:23:00,
2013-05-04 07:24:00,49.7,44.5,-100.00,North,-999,-999.0,-999.0,82,-99.99,,,-99.99,318.0,HOBO +U30 +Weather +,2013-05-04 11:24:00,
2013-05-04 07:25:00,49.7,44.4,-100.00,North,-999,-999.0,-999.0,82,-99.99,,,-99.99,321.0,HOBO +U30 +Weather +,2013-05-04 11:25:00,
2013-05-04 07:26:00,49.7,44.4,-100.00,North,-999,-999.0,-999.0,81,-99.99,,,-99.99,322.0,HOBO +U30 +Weather +,2013-05-04 11:26:00,
2013-05-04 07:27:00,49.8,44.6,-100.00,North,-999,-999.0,-999.0,82,-99.99,,,-99.99,327.0,HOBO +U30 +Weather +,2013-05-04 11:27:00,
2013-05-04 07:28:00,49.9,44.7,-100.00,North,-999,-999.0,-999.0,82,-99.99,,,-99.99,329.0,HOBO +U30 +Weather +,2013-05-04 11:28:00,
2013-05-04 07:29:00,50.0,44.7,-100.00,North,-999,-999.0,-999.0,81,-99.99,,,-99.99,331.0,HOBO +U30 +Weather +,2013-05-04 11:29:00,
2013-05-04 07:30:00,50.2,44.8,-100.00,North,-999,-999.0,-999.0,81,-99.99,,,-99.99,336.0,HOBO +U30 +Weather +,2013-05-04 11:30:00,
2013-05-04 07:31:00,50.1,44.6,-100.00,North,-999,-999.0,-999.0,81,-99.99,,,-99.99,338.0,HOBO +U30 +Weather +,2013-05-04 11:31:00,
2013-05-04 07:32:00,50.1,44.5,-100.00,North,-999,-999.0,-999.0,81,-99.99,,,-99.99,339.0,HOBO +U30 +Weather +,2013-05-04 11:32:00,
2013-05-04 07:33:00,50.2,44.6,-100.00,North,-999,-999.0,-999.0,81,-99.99,,,-99.99,344.0,HOBO +U30 +Weather +,2013-05-04 11:33:00,
2013-05-04 07:34:00,50.2,44.7,-100.00,North,-999,-999.0,-999.0,81,-99.99,,,-99.99,343.0,HOBO +U30 +Weather +,2013-05-04 11:34:00,
2013-05-04 07:35:00,50.3,44.9,-100.00,North,-999,-999.0,-999.0,81,-99.99,,,-99.99,349.0,HOBO +U30 +Weather +,2013-05-04 11:35:00,
2013-05-04 07:36:00,50.3,44.6,-100.00,North,-999,-999.0,-999.0,80,-99.99,,,-99.99,351.0,HOBO +U30 +Weather +,2013-05-04 11:36:00,
2013-05-04 07:37:00,50.3,44.7,-100.00,North,-999,-999.0,-999.0,81,-99.99,,,-99.99,356.0,HOBO +U30 +Weather +,2013-05-04 11:37:00,
2013-05-04 07:38:00,50.3,44.6,-100.00,North,-999,-999.0,-999.0,80,-99.99,,,-99.99,359.0,HOBO +U30 +Weather +,2013-05-04 11:38:00,
2013-05-04 07:39:00,50.5,44.8,-100.00,North,-999,-999.0,-999.0,80,-99.99,,,-99.99,361.0,HOBO +U30 +Weather +,2013-05-04 11:39:00,
2013-05-04 07:40:00,50.5,44.8,-100.00,North,-999,-999.0,-999.0,80,-99.99,,,-99.99,363.0,HOBO +U30 +Weather +,2013-05-04 11:40:00,
2013-05-04 07:41:00,50.8,44.9,-100.00,North,-999,-999.0,-999.0,80,-99.99,,,-99.99,364.0,HOBO +U30 +Weather +,2013-05-04 11:41:00,
2013-05-04 07:42:00,50.9,45.1,-100.00,North,-999,-999.0,-999.0,80,-99.99,,,-99.99,372.0,HOBO +U30 +Weather +,2013-05-04 11:42:00,
2013-05-04 07:43:00,51.1,45.2,-100.00,North,-999,-999.0,-999.0,80,-99.99,,,-99.99,373.0,HOBO +U30 +Weather +,2013-05-04 11:43:00,
2013-05-04 07:44:00,51.2,45.2,-100.00,North,-999,-999.0,-999.0,79,-99.99,,,-99.99,374.0,HOBO +U30 +Weather +,2013-05-04 11:44:00,
2013-05-04 07:45:00,51.2,45.2,-100.00,North,-999,-999.0,-999.0,79,-99.99,,,-99.99,382.0,HOBO +U30 +Weather +,2013-05-04 11:45:00,
2013-05-04 07:46:00,51.2,45.1,-100.00,North,-999,-999.0,-999.0,79,-99.99,,,-99.99,379.0,HOBO +U30 +Weather +,2013-05-04 11:46:00,
2013-05-04 07:47:00,51.2,45.2,-100.00,North,-999,-999.0,-999.0,79,-99.99,,,-99.99,386.0,HOBO +U30 +Weather +,2013-05-04 11:47:00,
2013-05-04 07:48:00,51.2,45.1,-100.00,North,-999,-999.0,-999.0,79,-99.99,,,-99.99,386.0,HOBO +U30 +Weather +,2013-05-04 11:48:00,
2013-05-04 07:49:00,51.4,45.2,-100.00,North,-999,-999.0,-999.0,79,-99.99,,,-99.99,389.0,HOBO +U30 +Weather +,2013-05-04 11:49:00,
2013-05-04 07:50:00,51.4,45.0,-100.00,North,-999,-999.0,-999.0,78,-99.99,,,-99.99,396.0,HOBO +U30 +Weather +,2013-05-04 11:50:00,
2013-05-04 07:51:00,51.4,44.9,-100.00,North,-999,-999.0,-999.0,78,-99.99,,,-99.99,397.0,HOBO +U30 +Weather +,2013-05-04 11:51:00,
2013-05-04 07:52:00,51.4,45.0,-100.00,North,-999,-999.0,-999.0,78,-99.99,,,-99.99,399.0,HOBO +U30 +Weather +,2013-05-04 11:52:00,
2013-05-04 07:53:00,51.3,44.8,-100.00,North,-999,-999.0,-999.0,78,-99.99,,,-99.99,403.0,HOBO +U30 +Weather +,2013-05-04 11:53:00,
2013-05-04 07:54:00,51.4,44.8,-100.00,North,-999,-999.0,-999.0,78,-99.99,,,-99.99,407.0,HOBO +U30 +Weather +,2013-05-04 11:54:00,
2013-05-04 07:55:00,51.2,44.6,-100.00,North,-999,-999.0,-999.0,77,-99.99,,,-99.99,412.0,HOBO +U30 +Weather +,2013-05-04 11:55:00,
2013-05-04 07:56:00,51.3,44.6,-100.00,North,-999,-999.0,-999.0,77,-99.99,,,-99.99,412.0,HOBO +U30 +Weather +,2013-05-04 11:56:00,
2013-05-04 07:57:00,51.3,44.5,-100.00,North,-999,-999.0,-999.0,77,-99.99,,,-99.99,412.0,HOBO +U30 +Weather +,2013-05-04 11:57:00,
2013-05-04 07:58:00,51.2,44.5,-100.00,North,-999,-999.0,-999.0,77,-99.99,,,-99.99,421.0,HOBO +U30 +Weather +,2013-05-04 11:58:00,
2013-05-04 07:59:00,51.3,44.8,-100.00,North,-999,-999.0,-999.0,78,-99.99,,,-99.99,424.0,HOBO +U30 +Weather +,2013-05-04 11:59:00,
2013-05-04 08:00:00,51.7,45.2,-100.00,North,-999,-999.0,-999.0,78,-99.99,,,-99.99,426.0,HOBO +U30 +Weather +,2013-05-04 12:00:00,
2013-05-04 08:01:00,52.0,45.2,-100.00,North,-999,-999.0,-999.0,77,-99.99,,,-99.99,429.0,HOBO +U30 +Weather +,2013-05-04 12:01:00,
2013-05-04 08:02:00,52.2,45.0,-100.00,North,-999,-999.0,-999.0,76,-99.99,,,-99.99,433.0,HOBO +U30 +Weather +,2013-05-04 12:02:00,
2013-05-04 08:03:00,52.1,44.9,-100.00,North,-999,-999.0,-999.0,76,-99.99,,,-99.99,436.0,HOBO +U30 +Weather +,2013-05-04 12:03:00,
2013-05-04 08:04:00,52.3,44.8,-100.00,North,-999,-999.0,-999.0,75,-99.99,,,-99.99,437.0,HOBO +U30 +Weather +,2013-05-04 12:04:00,
2013-05-04 08:05:00,52.4,44.6,-100.00,North,-999,-999.0,-999.0,74,-99.99,,,-99.99,438.0,HOBO +U30 +Weather +,2013-05-04 12:05:00,
2013-05-04 08:06:00,52.3,44.5,-100.00,North,-999,-999.0,-999.0,74,-99.99,,,-99.99,444.0,HOBO +U30 +Weather +,2013-05-04 12:06:00,
2013-05-04 08:07:00,52.3,44.9,-100.00,North,-999,-999.0,-999.0,75,-99.99,,,-99.99,446.0,HOBO +U30 +Weather +,2013-05-04 12:07:00,
2013-05-04 08:08:00,52.5,44.9,-100.00,North,-999,-999.0,-999.0,75,-99.99,,,-99.99,451.0,HOBO +U30 +Weather +,2013-05-04 12:08:00,
2013-05-04 08:09:00,52.5,44.9,-100.00,North,-999,-999.0,-999.0,75,-99.99,,,-99.99,451.0,HOBO +U30 +Weather +,2013-05-04 12:09:00,
2013-05-04 08:10:00,52.6,44.8,-100.00,North,-999,-999.0,-999.0,74,-99.99,,,-99.99,457.0,HOBO +U30 +Weather +,2013-05-04 12:10:00,
2013-05-04 08:11:00,52.6,44.9,-100.00,North,-999,-999.0,-999.0,74,-99.99,,,-99.99,457.0,HOBO +U30 +Weather +,2013-05-04 12:11:00,
2013-05-04 08:12:00,52.5,44.5,-100.00,North,-999,-999.0,-999.0,74,-99.99,,,-99.99,462.0,HOBO +U30 +Weather +,2013-05-04 12:12:00,
2013-05-04 08:13:00,52.6,44.7,-100.00,North,-999,-999.0,-999.0,74,-99.99,,,-99.99,463.0,HOBO +U30 +Weather +,2013-05-04 12:13:00,
2013-05-04 08:14:00,52.9,45.1,-100.00,North,-999,-999.0,-999.0,74,-99.99,,,-99.99,466.0,HOBO +U30 +Weather +,2013-05-04 12:14:00,
2013-05-04 08:15:00,53.0,44.9,-100.00,North,-999,-999.0,-999.0,73,-99.99,,,-99.99,469.0,HOBO +U30 +Weather +,2013-05-04 12:15:00,
2013-05-04 08:16:00,52.8,44.7,-100.00,North,-999,-999.0,-999.0,73,-99.99,,,-99.99,473.0,HOBO +U30 +Weather +,2013-05-04 12:16:00,
2013-05-04 08:17:00,52.7,44.2,-100.00,North,-999,-999.0,-999.0,72,-99.99,,,-99.99,477.0,HOBO +U30 +Weather +,2013-05-04 12:17:00,
2013-05-04 08:18:00,52.3,43.8,-100.00,North,-999,-999.0,-999.0,72,-99.99,,,-99.99,482.0,HOBO +U30 +Weather +,2013-05-04 12:18:00,
2013-05-04 08:19:00,52.2,44.0,-100.00,North,-999,-999.0,-999.0,73,-99.99,,,-99.99,482.0,HOBO +U30 +Weather +,2013-05-04 12:19:00,
2013-05-04 08:20:00,52.4,44.3,-100.00,North,-999,-999.0,-999.0,73,-99.99,,,-99.99,484.0,HOBO +U30 +Weather +,2013-05-04 12:20:00,
2013-05-04 08:21:00,52.5,44.4,-100.00,North,-999,-999.0,-999.0,73,-99.99,,,-99.99,487.0,HOBO +U30 +Weather +,2013-05-04 12:21:00,
2013-05-04 08:22:00,52.5,44.2,-100.00,North,-999,-999.0,-999.0,73,-99.99,,,-99.99,496.0,HOBO +U30 +Weather +,2013-05-04 12:22:00,
2013-05-04 08:23:00,52.5,44.3,-100.00,North,-999,-999.0,-999.0,73,-99.99,,,-99.99,498.0,HOBO +U30 +Weather +,2013-05-04 12:23:00,
2013-05-04 08:24:00,52.3,44.1,-100.00,North,-999,-999.0,-999.0,73,-99.99,,,-99.99,502.0,HOBO +U30 +Weather +,2013-05-04 12:24:00,
2013-05-04 08:25:00,52.4,44.3,-100.00,North,-999,-999.0,-999.0,73,-99.99,,,-99.99,504.0,HOBO +U30 +Weather +,2013-05-04 12:25:00,
2013-05-04 08:26:00,52.6,44.2,-100.00,North,-999,-999.0,-999.0,73,-99.99,,,-99.99,507.0,HOBO +U30 +Weather +,2013-05-04 12:26:00,
2013-05-04 08:27:00,52.9,44.6,-100.00,North,-999,-999.0,-999.0,73,-99.99,,,-99.99,508.0,HOBO +U30 +Weather +,2013-05-04 12:27:00,
2013-05-04 08:28:00,53.4,45.0,-100.00,North,-999,-999.0,-999.0,73,-99.99,,,-99.99,514.0,HOBO +U30 +Weather +,2013-05-04 12:28:00,
2013-05-04 08:29:00,53.6,44.8,-100.00,North,-999,-999.0,-999.0,72,-99.99,,,-99.99,518.0,HOBO +U30 +Weather +,2013-05-04 12:29:00,
2013-05-04 08:30:00,53.7,44.7,-100.00,North,-999,-999.0,-999.0,71,-99.99,,,-99.99,518.0,HOBO +U30 +Weather +,2013-05-04 12:30:00,
2013-05-04 08:31:00,53.8,44.8,-100.00,North,-999,-999.0,-999.0,71,-99.99,,,-99.99,522.0,HOBO +U30 +Weather +,2013-05-04 12:31:00,
2013-05-04 08:32:00,53.7,44.5,-100.00,North,-999,-999.0,-999.0,71,-99.99,,,-99.99,522.0,HOBO +U30 +Weather +,2013-05-04 12:32:00,
2013-05-04 08:33:00,53.0,44.1,-100.00,North,-999,-999.0,-999.0,71,-99.99,,,-99.99,529.0,HOBO +U30 +Weather +,2013-05-04 12:33:00,
2013-05-04 08:34:00,52.9,44.2,-100.00,North,-999,-999.0,-999.0,72,-99.99,,,-99.99,531.0,HOBO +U30 +Weather +,2013-05-04 12:34:00,
2013-05-04 08:35:00,52.8,44.5,-100.00,North,-999,-999.0,-999.0,73,-99.99,,,-99.99,533.0,HOBO +U30 +Weather +,2013-05-04 12:35:00,
2013-05-04 08:36:00,53.1,44.4,-100.00,North,-999,-999.0,-999.0,72,-99.99,,,-99.99,532.0,HOBO +U30 +Weather +,2013-05-04 12:36:00,
2013-05-04 08:37:00,53.4,44.5,-100.00,North,-999,-999.0,-999.0,71,-99.99,,,-99.99,534.0,HOBO +U30 +Weather +,2013-05-04 12:37:00,
2013-05-04 08:38:00,53.4,44.1,-100.00,North,-999,-999.0,-999.0,70,-99.99,,,-99.99,537.0,HOBO +U30 +Weather +,2013-05-04 12:38:00,
2013-05-04 08:39:00,52.8,43.9,-100.00,North,-999,-999.0,-999.0,71,-99.99,,,-99.99,541.0,HOBO +U30 +Weather +,2013-05-04 12:39:00,
2013-05-04 08:40:00,52.7,44.0,-100.00,North,-999,-999.0,-999.0,72,-99.99,,,-99.99,543.0,HOBO +U30 +Weather +,2013-05-04 12:40:00,
2013-05-04 08:41:00,52.6,43.7,-100.00,North,-999,-999.0,-999.0,71,-99.99,,,-99.99,547.0,HOBO +U30 +Weather +,2013-05-04 12:41:00,
2013-05-04 08:42:00,52.3,43.5,-100.00,North,-999,-999.0,-999.0,71,-99.99,,,-99.99,553.0,HOBO +U30 +Weather +,2013-05-04 12:42:00,
2013-05-04 08:43:00,52.6,43.9,-100.00,North,-999,-999.0,-999.0,71,-99.99,,,-99.99,546.0,HOBO +U30 +Weather +,2013-05-04 12:43:00,
2013-05-04 08:44:00,52.9,43.8,-100.00,North,-999,-999.0,-999.0,71,-99.99,,,-99.99,553.0,HOBO +U30 +Weather +,2013-05-04 12:44:00,
2013-05-04 08:45:00,52.8,43.3,-100.00,North,-999,-999.0,-999.0,70,-99.99,,,-99.99,558.0,HOBO +U30 +Weather +,2013-05-04 12:45:00,
2013-05-04 08:46:00,52.9,43.6,-100.00,North,-999,-999.0,-999.0,70,-99.99,,,-99.99,564.0,HOBO +U30 +Weather +,2013-05-04 12:46:00,
2013-05-04 08:47:00,53.1,43.7,-100.00,North,-999,-999.0,-999.0,70,-99.99,,,-99.99,559.0,HOBO +U30 +Weather +,2013-05-04 12:47:00,
2013-05-04 08:48:00,53.3,43.8,-100.00,North,-999,-999.0,-999.0,70,-99.99,,,-99.99,572.0,HOBO +U30 +Weather +,2013-05-04 12:48:00,
2013-05-04 08:49:00,53.1,43.8,-100.00,North,-999,-999.0,-999.0,70,-99.99,,,-99.99,573.0,HOBO +U30 +Weather +,2013-05-04 12:49:00,
2013-05-04 08:50:00,53.0,44.1,-100.00,North,-999,-999.0,-999.0,71,-99.99,,,-99.99,576.0,HOBO +U30 +Weather +,2013-05-04 12:50:00,
2013-05-04 08:51:00,53.2,44.0,-100.00,North,-999,-999.0,-999.0,70,-99.99,,,-99.99,579.0,HOBO +U30 +Weather +,2013-05-04 12:51:00,
2013-05-04 08:52:00,53.3,44.2,-100.00,North,-999,-999.0,-999.0,71,-99.99,,,-99.99,578.0,HOBO +U30 +Weather +,2013-05-04 12:52:00,
2013-05-04 08:53:00,53.5,44.3,-100.00,North,-999,-999.0,-999.0,70,-99.99,,,-99.99,579.0,HOBO +U30 +Weather +,2013-05-04 12:53:00,
2013-05-04 08:54:00,53.7,44.3,-100.00,North,-999,-999.0,-999.0,70,-99.99,,,-99.99,578.0,HOBO +U30 +Weather +,2013-05-04 12:54:00,
2013-05-04 08:55:00,54.0,44.7,-100.00,North,-999,-999.0,-999.0,70,-99.99,,,-99.99,588.0,HOBO +U30 +Weather +,2013-05-04 12:55:00,
2013-05-04 08:56:00,54.5,44.8,-100.00,North,-999,-999.0,-999.0,69,-99.99,,,-99.99,587.0,HOBO +U30 +Weather +,2013-05-04 12:56:00,
2013-05-04 08:57:00,54.8,45.2,-100.00,North,-999,-999.0,-999.0,70,-99.99,,,-99.99,592.0,HOBO +U30 +Weather +,2013-05-04 12:57:00,
2013-05-04 08:58:00,55.0,45.1,-100.00,North,-999,-999.0,-999.0,69,-99.99,,,-99.99,599.0,HOBO +U30 +Weather +,2013-05-04 12:58:00,
2013-05-04 08:59:00,54.8,44.7,-100.00,North,-999,-999.0,-999.0,68,-99.99,,,-99.99,599.0,HOBO +U30 +Weather +,2013-05-04 12:59:00,
2013-05-04 09:00:00,54.3,44.4,-100.00,North,-999,-999.0,-999.0,69,-99.99,,,-99.99,602.0,HOBO +U30 +Weather +,2013-05-04 13:00:00,
2013-05-04 09:01:00,54.1,44.4,-100.00,North,-999,-999.0,-999.0,69,-99.99,,,-99.99,606.0,HOBO +U30 +Weather +,2013-05-04 13:01:00,
2013-05-04 09:02:00,54.4,44.8,-100.00,North,-999,-999.0,-999.0,70,-99.99,,,-99.99,604.0,HOBO +U30 +Weather +,2013-05-04 13:02:00,
2013-05-04 09:03:00,54.6,44.9,-100.00,North,-999,-999.0,-999.0,69,-99.99,,,-99.99,609.0,HOBO +U30 +Weather +,2013-05-04 13:03:00,
2013-05-04 09:04:00,54.6,44.7,-100.00,North,-999,-999.0,-999.0,69,-99.99,,,-99.99,609.0,HOBO +U30 +Weather +,2013-05-04 13:04:00,
2013-05-04 09:05:00,54.4,44.5,-100.00,North,-999,-999.0,-999.0,69,-99.99,,,-99.99,613.0,HOBO +U30 +Weather +,2013-05-04 13:05:00,
2013-05-04 09:06:00,54.6,44.6,-100.00,North,-999,-999.0,-999.0,68,-99.99,,,-99.99,618.0,HOBO +U30 +Weather +,2013-05-04 13:06:00,
2013-05-04 09:07:00,54.1,44.1,-100.00,North,-999,-999.0,-999.0,68,-99.99,,,-99.99,622.0,HOBO +U30 +Weather +,2013-05-04 13:07:00,
2013-05-04 09:08:00,53.9,44.1,-100.00,North,-999,-999.0,-999.0,69,-99.99,,,-99.99,624.0,HOBO +U30 +Weather +,2013-05-04 13:08:00,
2013-05-04 09:09:00,53.5,43.8,-100.00,North,-999,-999.0,-999.0,69,-99.99,,,-99.99,628.0,HOBO +U30 +Weather +,2013-05-04 13:09:00,
2013-05-04 09:10:00,53.5,44.1,-100.00,North,-999,-999.0,-999.0,70,-99.99,,,-99.99,623.0,HOBO +U30 +Weather +,2013-05-04 13:10:00,
2013-05-04 09:11:00,53.8,44.5,-100.00,North,-999,-999.0,-999.0,70,-99.99,,,-99.99,626.0,HOBO +U30 +Weather +,2013-05-04 13:11:00,
2013-05-04 09:12:00,53.7,44.0,-100.00,North,-999,-999.0,-999.0,69,-99.99,,,-99.99,633.0,HOBO +U30 +Weather +,2013-05-04 13:12:00,
2013-05-04 09:13:00,53.7,44.0,-100.00,North,-999,-999.0,-999.0,69,-99.99,,,-99.99,626.0,HOBO +U30 +Weather +,2013-05-04 13:13:00,
2013-05-04 09:14:00,53.8,43.7,-100.00,North,-999,-999.0,-999.0,68,-99.99,,,-99.99,646.0,HOBO +U30 +Weather +,2013-05-04 13:14:00,
2013-05-04 09:15:00,53.3,42.9,-100.00,North,-999,-999.0,-999.0,67,-99.99,,,-99.99,644.0,HOBO +U30 +Weather +,2013-05-04 13:15:00,
2013-05-04 09:16:00,53.2,43.2,-100.00,North,-999,-999.0,-999.0,68,-99.99,,,-99.99,647.0,HOBO +U30 +Weather +,2013-05-04 13:16:00,
2013-05-04 09:17:00,53.3,43.3,-100.00,North,-999,-999.0,-999.0,68,-99.99,,,-99.99,653.0,HOBO +U30 +Weather +,2013-05-04 13:17:00,
2013-05-04 09:18:00,53.6,43.6,-100.00,North,-999,-999.0,-999.0,68,-99.99,,,-99.99,659.0,HOBO +U30 +Weather +,2013-05-04 13:18:00,
2013-05-04 09:19:00,53.7,43.8,-100.00,North,-999,-999.0,-999.0,69,-99.99,,,-99.99,654.0,HOBO +U30 +Weather +,2013-05-04 13:19:00,
2013-05-04 09:20:00,53.7,43.9,-100.00,North,-999,-999.0,-999.0,69,-99.99,,,-99.99,657.0,HOBO +U30 +Weather +,2013-05-04 13:20:00,
2013-05-04 09:21:00,53.9,44.3,-100.00,North,-999,-999.0,-999.0,69,-99.99,,,-99.99,659.0,HOBO +U30 +Weather +,2013-05-04 13:21:00,
2013-05-04 09:22:00,54.2,44.3,-100.00,North,-999,-999.0,-999.0,69,-99.99,,,-99.99,658.0,HOBO +U30 +Weather +,2013-05-04 13:22:00,
2013-05-04 09:23:00,54.3,44.0,-100.00,North,-999,-999.0,-999.0,68,-99.99,,,-99.99,662.0,HOBO +U30 +Weather +,2013-05-04 13:23:00,
2013-05-04 09:24:00,54.5,44.4,-100.00,North,-999,-999.0,-999.0,68,-99.99,,,-99.99,666.0,HOBO +U30 +Weather +,2013-05-04 13:24:00,
2013-05-04 09:25:00,54.4,43.9,-100.00,North,-999,-999.0,-999.0,67,-99.99,,,-99.99,671.0,HOBO +U30 +Weather +,2013-05-04 13:25:00,
2013-05-04 09:26:00,54.1,43.9,-100.00,North,-999,-999.0,-999.0,68,-99.99,,,-99.99,672.0,HOBO +U30 +Weather +,2013-05-04 13:26:00,
2013-05-04 09:27:00,54.0,43.6,-100.00,North,-999,-999.0,-999.0,67,-99.99,,,-99.99,681.0,HOBO +U30 +Weather +,2013-05-04 13:27:00,
2013-05-04 09:28:00,53.9,43.5,-100.00,North,-999,-999.0,-999.0,67,-99.99,,,-99.99,682.0,HOBO +U30 +Weather +,2013-05-04 13:28:00,
2013-05-04 09:29:00,53.8,43.4,-100.00,North,-999,-999.0,-999.0,67,-99.99,,,-99.99,681.0,HOBO +U30 +Weather +,2013-05-04 13:29:00,
2013-05-04 09:30:00,54.0,44.0,-100.00,North,-999,-999.0,-999.0,68,-99.99,,,-99.99,687.0,HOBO +U30 +Weather +,2013-05-04 13:30:00,
2013-05-04 09:31:00,54.2,43.7,-100.00,North,-999,-999.0,-999.0,67,-99.99,,,-99.99,689.0,HOBO +U30 +Weather +,2013-05-04 13:31:00,
2013-05-04 09:32:00,54.0,43.8,-100.00,North,-999,-999.0,-999.0,68,-99.99,,,-99.99,691.0,HOBO +U30 +Weather +,2013-05-04 13:32:00,
2013-05-04 09:33:00,54.1,43.7,-100.00,North,-999,-999.0,-999.0,67,-99.99,,,-99.99,694.0,HOBO +U30 +Weather +,2013-05-04 13:33:00,
2013-05-04 09:34:00,53.9,43.4,-100.00,North,-999,-999.0,-999.0,67,-99.99,,,-99.99,694.0,HOBO +U30 +Weather +,2013-05-04 13:34:00,
2013-05-04 09:35:00,53.3,43.0,-100.00,North,-999,-999.0,-999.0,67,-99.99,,,-99.99,697.0,HOBO +U30 +Weather +,2013-05-04 13:35:00,
2013-05-04 09:36:00,53.3,43.3,-100.00,North,-999,-999.0,-999.0,68,-99.99,,,-99.99,704.0,HOBO +U30 +Weather +,2013-05-04 13:36:00,
2013-05-04 09:37:00,53.6,43.8,-100.00,North,-999,-999.0,-999.0,69,-99.99,,,-99.99,696.0,HOBO +U30 +Weather +,2013-05-04 13:37:00,
2013-05-04 09:38:00,53.9,43.9,-100.00,North,-999,-999.0,-999.0,68,-99.99,,,-99.99,702.0,HOBO +U30 +Weather +,2013-05-04 13:38:00,
2013-05-04 09:39:00,53.7,43.7,-100.00,North,-999,-999.0,-999.0,68,-99.99,,,-99.99,706.0,HOBO +U30 +Weather +,2013-05-04 13:39:00,
2013-05-04 09:40:00,53.9,44.1,-100.00,North,-999,-999.0,-999.0,69,-99.99,,,-99.99,711.0,HOBO +U30 +Weather +,2013-05-04 13:40:00,
2013-05-04 09:41:00,53.9,43.9,-100.00,North,-999,-999.0,-999.0,68,-99.99,,,-99.99,709.0,HOBO +U30 +Weather +,2013-05-04 13:41:00,
2013-05-04 09:42:00,54.0,44.0,-100.00,North,-999,-999.0,-999.0,68,-99.99,,,-99.99,712.0,HOBO +U30 +Weather +,2013-05-04 13:42:00,
2013-05-04 09:43:00,54.1,44.0,-100.00,North,-999,-999.0,-999.0,68,-99.99,,,-99.99,714.0,HOBO +U30 +Weather +,2013-05-04 13:43:00,
2013-05-04 09:44:00,53.9,43.9,-100.00,North,-999,-999.0,-999.0,68,-99.99,,,-99.99,716.0,HOBO +U30 +Weather +,2013-05-04 13:44:00,
2013-05-04 09:45:00,54.0,44.0,-100.00,North,-999,-999.0,-999.0,68,-99.99,,,-99.99,717.0,HOBO +U30 +Weather +,2013-05-04 13:45:00,
2013-05-04 09:46:00,54.1,43.9,-100.00,North,-999,-999.0,-999.0,68,-99.99,,,-99.99,721.0,HOBO +U30 +Weather +,2013-05-04 13:46:00,
2013-05-04 09:47:00,53.7,43.4,-100.00,North,-999,-999.0,-999.0,68,-99.99,,,-99.99,721.0,HOBO +U30 +Weather +,2013-05-04 13:47:00,
2013-05-04 09:48:00,53.6,43.7,-100.00,North,-999,-999.0,-999.0,69,-99.99,,,-99.99,716.0,HOBO +U30 +Weather +,2013-05-04 13:48:00,
2013-05-04 09:49:00,53.8,43.6,-100.00,North,-999,-999.0,-999.0,68,-99.99,,,-99.99,733.0,HOBO +U30 +Weather +,2013-05-04 13:49:00,
2013-05-04 09:50:00,53.7,43.4,-100.00,North,-999,-999.0,-999.0,68,-99.99,,,-99.99,729.0,HOBO +U30 +Weather +,2013-05-04 13:50:00,
2013-05-04 09:51:00,53.9,43.8,-100.00,North,-999,-999.0,-999.0,68,-99.99,,,-99.99,734.0,HOBO +U30 +Weather +,2013-05-04 13:51:00,
2013-05-04 09:52:00,54.0,43.9,-100.00,North,-999,-999.0,-999.0,68,-99.99,,,-99.99,732.0,HOBO +U30 +Weather +,2013-05-04 13:52:00,
2013-05-04 09:53:00,54.1,43.7,-100.00,North,-999,-999.0,-999.0,67,-99.99,,,-99.99,739.0,HOBO +U30 +Weather +,2013-05-04 13:53:00,
2013-05-04 09:54:00,53.9,43.4,-100.00,North,-999,-999.0,-999.0,67,-99.99,,,-99.99,737.0,HOBO +U30 +Weather +,2013-05-04 13:54:00,
2013-05-04 09:55:00,53.9,43.4,-100.00,North,-999,-999.0,-999.0,67,-99.99,,,-99.99,737.0,HOBO +U30 +Weather +,2013-05-04 13:55:00,
2013-05-04 09:56:00,54.0,43.6,-100.00,North,-999,-999.0,-999.0,67,-99.99,,,-99.99,741.0,HOBO +U30 +Weather +,2013-05-04 13:56:00,
2013-05-04 09:57:00,54.2,44.1,-100.00,North,-999,-999.0,-999.0,68,-99.99,,,-99.99,748.0,HOBO +U30 +Weather +,2013-05-04 13:57:00,
2013-05-04 09:58:00,54.3,44.5,-100.00,North,-999,-999.0,-999.0,69,-99.99,,,-99.99,746.0,HOBO +U30 +Weather +,2013-05-04 13:58:00,
2013-05-04 09:59:00,54.8,44.8,-100.00,North,-999,-999.0,-999.0,68,-99.99,,,-99.99,751.0,HOBO +U30 +Weather +,2013-05-04 13:59:00,
2013-05-04 10:00:00,54.4,43.5,-100.00,North,-999,-999.0,-999.0,66,-99.99,,,-99.99,754.0,HOBO +U30 +Weather +,2013-05-04 14:00:00,
2013-05-04 10:01:00,54.7,44.3,-100.00,North,-999,-999.0,-999.0,67,-99.99,,,-99.99,759.0,HOBO +U30 +Weather +,2013-05-04 14:01:00,
2013-05-04 10:02:00,54.6,43.5,-100.00,North,-999,-999.0,-999.0,66,-99.99,,,-99.99,761.0,HOBO +U30 +Weather +,2013-05-04 14:02:00,
2013-05-04 10:03:00,54.3,43.3,-100.00,North,-999,-999.0,-999.0,66,-99.99,,,-99.99,763.0,HOBO +U30 +Weather +,2013-05-04 14:03:00,
2013-05-04 10:04:00,54.3,43.2,-100.00,North,-999,-999.0,-999.0,65,-99.99,,,-99.99,763.0,HOBO +U30 +Weather +,2013-05-04 14:04:00,
2013-05-04 10:05:00,54.1,43.5,-100.00,North,-999,-999.0,-999.0,67,-99.99,,,-99.99,763.0,HOBO +U30 +Weather +,2013-05-04 14:05:00,
2013-05-04 10:06:00,54.0,43.5,-100.00,North,-999,-999.0,-999.0,67,-99.99,,,-99.99,771.0,HOBO +U30 +Weather +,2013-05-04 14:06:00,
2013-05-04 10:07:00,53.9,43.1,-100.00,North,-999,-999.0,-999.0,66,-99.99,,,-99.99,771.0,HOBO +U30 +Weather +,2013-05-04 14:07:00,
2013-05-04 10:08:00,54.0,43.0,-100.00,North,-999,-999.0,-999.0,66,-99.99,,,-99.99,771.0,HOBO +U30 +Weather +,2013-05-04 14:08:00,
2013-05-04 10:09:00,53.8,42.7,-100.00,North,-999,-999.0,-999.0,65,-99.99,,,-99.99,773.0,HOBO +U30 +Weather +,2013-05-04 14:09:00,
2013-05-04 10:10:00,53.4,43.0,-100.00,North,-999,-999.0,-999.0,67,-99.99,,,-99.99,776.0,HOBO +U30 +Weather +,2013-05-04 14:10:00,
2013-05-04 10:11:00,53.9,43.2,-100.00,North,-999,-999.0,-999.0,67,-99.99,,,-99.99,768.0,HOBO +U30 +Weather +,2013-05-04 14:11:00,
2013-05-04 10:12:00,53.7,43.0,-100.00,North,-999,-999.0,-999.0,66,-99.99,,,-99.99,727.0,HOBO +U30 +Weather +,2013-05-04 14:12:00,
2013-05-04 10:13:00,53.7,43.1,-100.00,North,-999,-999.0,-999.0,67,-99.99,,,-99.99,772.0,HOBO +U30 +Weather +,2013-05-04 14:13:00,
2013-05-04 10:14:00,53.9,43.6,-100.00,North,-999,-999.0,-999.0,68,-99.99,,,-99.99,783.0,HOBO +U30 +Weather +,2013-05-04 14:14:00,
2013-05-04 10:15:00,54.1,43.5,-100.00,North,-999,-999.0,-999.0,67,-99.99,,,-99.99,788.0,HOBO +U30 +Weather +,2013-05-04 14:15:00,
2013-05-04 10:16:00,54.5,43.8,-100.00,North,-999,-999.0,-999.0,67,-99.99,,,-99.99,783.0,HOBO +U30 +Weather +,2013-05-04 14:16:00,
2013-05-04 10:17:00,54.6,43.8,-100.00,North,-999,-999.0,-999.0,66,-99.99,,,-99.99,781.0,HOBO +U30 +Weather +,2013-05-04 14:17:00,
2013-05-04 10:18:00,54.8,43.5,-100.00,North,-999,-999.0,-999.0,65,-99.99,,,-99.99,798.0,HOBO +U30 +Weather +,2013-05-04 14:18:00,
2013-05-04 10:19:00,54.7,43.2,-100.00,North,-999,-999.0,-999.0,65,-99.99,,,-99.99,592.0,HOBO +U30 +Weather +,2013-05-04 14:19:00,
2013-05-04 10:20:00,54.8,43.8,-100.00,North,-999,-999.0,-999.0,66,-99.99,,,-99.99,791.0,HOBO +U30 +Weather +,2013-05-04 14:20:00,
2013-05-04 10:21:00,55.0,43.3,-100.00,North,-999,-999.0,-999.0,64,-99.99,,,-99.99,797.0,HOBO +U30 +Weather +,2013-05-04 14:21:00,
2013-05-04 10:22:00,54.6,43.2,-100.00,North,-999,-999.0,-999.0,65,-99.99,,,-99.99,796.0,HOBO +U30 +Weather +,2013-05-04 14:22:00,
2013-05-04 10:23:00,54.7,43.5,-100.00,North,-999,-999.0,-999.0,65,-99.99,,,-99.99,799.0,HOBO +U30 +Weather +,2013-05-04 14:23:00,
2013-05-04 10:24:00,54.7,43.4,-100.00,North,-999,-999.0,-999.0,65,-99.99,,,-99.99,801.0,HOBO +U30 +Weather +,2013-05-04 14:24:00,
2013-05-04 10:25:00,54.8,43.4,-100.00,North,-999,-999.0,-999.0,65,-99.99,,,-99.99,807.0,HOBO +U30 +Weather +,2013-05-04 14:25:00,
2013-05-04 10:26:00,55.2,43.5,-100.00,North,-999,-999.0,-999.0,64,-99.99,,,-99.99,802.0,HOBO +U30 +Weather +,2013-05-04 14:26:00,
2013-05-04 10:27:00,54.7,43.1,-100.00,North,-999,-999.0,-999.0,64,-99.99,,,-99.99,803.0,HOBO +U30 +Weather +,2013-05-04 14:27:00,
2013-05-04 10:28:00,54.5,43.1,-100.00,North,-999,-999.0,-999.0,65,-99.99,,,-99.99,808.0,HOBO +U30 +Weather +,2013-05-04 14:28:00,
2013-05-04 10:29:00,54.5,42.8,-100.00,North,-999,-999.0,-999.0,64,-99.99,,,-99.99,809.0,HOBO +U30 +Weather +,2013-05-04 14:29:00,
2013-05-04 10:30:00,54.1,42.4,-100.00,North,-999,-999.0,-999.0,64,-99.99,,,-99.99,813.0,HOBO +U30 +Weather +,2013-05-04 14:30:00,
2013-05-04 10:31:00,54.0,42.6,-100.00,North,-999,-999.0,-999.0,65,-99.99,,,-99.99,816.0,HOBO +U30 +Weather +,2013-05-04 14:31:00,
2013-05-04 10:32:00,54.3,43.2,-100.00,North,-999,-999.0,-999.0,66,-99.99,,,-99.99,819.0,HOBO +U30 +Weather +,2013-05-04 14:32:00,
2013-05-04 10:33:00,54.6,43.3,-100.00,North,-999,-999.0,-999.0,65,-99.99,,,-99.99,826.0,HOBO +U30 +Weather +,2013-05-04 14:33:00,
2013-05-04 10:34:00,54.6,42.6,-100.00,North,-999,-999.0,-999.0,63,-99.99,,,-99.99,843.0,HOBO +U30 +Weather +,2013-05-04 14:34:00,
2013-05-04 10:35:00,54.4,42.5,-100.00,North,-999,-999.0,-999.0,63,-99.99,,,-99.99,837.0,HOBO +U30 +Weather +,2013-05-04 14:35:00,
2013-05-04 10:36:00,54.4,42.9,-100.00,North,-999,-999.0,-999.0,65,-99.99,,,-99.99,834.0,HOBO +U30 +Weather +,2013-05-04 14:36:00,
2013-05-04 10:37:00,54.6,43.3,-100.00,North,-999,-999.0,-999.0,65,-99.99,,,-99.99,838.0,HOBO +U30 +Weather +,2013-05-04 14:37:00,
2013-05-04 10:38:00,54.6,43.4,-100.00,North,-999,-999.0,-999.0,65,-99.99,,,-99.99,849.0,HOBO +U30 +Weather +,2013-05-04 14:38:00,
2013-05-04 10:39:00,54.8,43.3,-100.00,North,-999,-999.0,-999.0,65,-99.99,,,-99.99,863.0,HOBO +U30 +Weather +,2013-05-04 14:39:00,
2013-05-04 10:40:00,55.2,43.7,-100.00,North,-999,-999.0,-999.0,65,-99.99,,,-99.99,889.0,HOBO +U30 +Weather +,2013-05-04 14:40:00,
2013-05-04 10:41:00,55.1,43.8,-100.00,North,-999,-999.0,-999.0,65,-99.99,,,-99.99,868.0,HOBO +U30 +Weather +,2013-05-04 14:41:00,
2013-05-04 10:42:00,55.0,43.8,-100.00,North,-999,-999.0,-999.0,65,-99.99,,,-99.99,873.0,HOBO +U30 +Weather +,2013-05-04 14:42:00,
2013-05-04 10:43:00,55.1,43.6,-100.00,North,-999,-999.0,-999.0,65,-99.99,,,-99.99,886.0,HOBO +U30 +Weather +,2013-05-04 14:43:00,
2013-05-04 10:44:00,54.4,42.9,-100.00,North,-999,-999.0,-999.0,65,-99.99,,,-99.99,168.0,HOBO +U30 +Weather +,2013-05-04 14:44:00,
2013-05-04 10:45:00,54.2,43.0,-100.00,North,-999,-999.0,-999.0,65,-99.99,,,-99.99,891.0,HOBO +U30 +Weather +,2013-05-04 14:45:00,
2013-05-04 10:46:00,54.5,43.1,-100.00,North,-999,-999.0,-999.0,65,-99.99,,,-99.99,573.0,HOBO +U30 +Weather +,2013-05-04 14:46:00,
2013-05-04 10:47:00,54.2,43.1,-100.00,North,-999,-999.0,-999.0,66,-99.99,,,-99.99,881.0,HOBO +U30 +Weather +,2013-05-04 14:47:00,
2013-05-04 10:48:00,54.5,43.5,-100.00,North,-999,-999.0,-999.0,66,-99.99,,,-99.99,854.0,HOBO +U30 +Weather +,2013-05-04 14:48:00,
2013-05-04 10:49:00,54.7,43.7,-100.00,North,-999,-999.0,-999.0,66,-99.99,,,-99.99,864.0,HOBO +U30 +Weather +,2013-05-04 14:49:00,
2013-05-04 10:50:00,55.0,44.0,-100.00,North,-999,-999.0,-999.0,66,-99.99,,,-99.99,947.0,HOBO +U30 +Weather +,2013-05-04 14:50:00,
2013-05-04 10:51:00,55.2,44.1,-100.00,North,-999,-999.0,-999.0,66,-99.99,,,-99.99,506.0,HOBO +U30 +Weather +,2013-05-04 14:51:00,
2013-05-04 10:52:00,55.0,43.8,-100.00,North,-999,-999.0,-999.0,65,-99.99,,,-99.99,893.0,HOBO +U30 +Weather +,2013-05-04 14:52:00,
2013-05-04 10:53:00,55.0,43.3,-100.00,North,-999,-999.0,-999.0,64,-99.99,,,-99.99,878.0,HOBO +U30 +Weather +,2013-05-04 14:53:00,
2013-05-04 10:54:00,55.4,44.0,-100.00,North,-999,-999.0,-999.0,65,-99.99,,,-99.99,891.0,HOBO +U30 +Weather +,2013-05-04 14:54:00,
2013-05-04 10:55:00,55.5,43.2,-100.00,North,-999,-999.0,-999.0,63,-99.99,,,-99.99,759.0,HOBO +U30 +Weather +,2013-05-04 14:55:00,
2013-05-04 10:56:00,54.7,42.9,-100.00,North,-999,-999.0,-999.0,64,-99.99,,,-99.99,936.0,HOBO +U30 +Weather +,2013-05-04 14:56:00,
2013-05-04 10:57:00,54.1,42.6,-100.00,North,-999,-999.0,-999.0,64,-99.99,,,-99.99,872.0,HOBO +U30 +Weather +,2013-05-04 14:57:00,
2013-05-04 10:58:00,54.4,42.9,-100.00,North,-999,-999.0,-999.0,65,-99.99,,,-99.99,876.0,HOBO +U30 +Weather +,2013-05-04 14:58:00,
2013-05-04 10:59:00,54.3,42.9,-100.00,North,-999,-999.0,-999.0,65,-99.99,,,-99.99,894.0,HOBO +U30 +Weather +,2013-05-04 14:59:00,
2013-05-04 11:00:00,54.5,42.7,-100.00,North,-999,-999.0,-999.0,64,-99.99,,,-99.99,887.0,HOBO +U30 +Weather +,2013-05-04 15:00:00,
2013-05-04 11:01:00,54.8,43.0,-100.00,North,-999,-999.0,-999.0,64,-99.99,,,-99.99,881.0,HOBO +U30 +Weather +,2013-05-04 15:01:00,
2013-05-04 11:02:00,54.9,43.2,-100.00,North,-999,-999.0,-999.0,64,-99.99,,,-99.99,936.0,HOBO +U30 +Weather +,2013-05-04 15:02:00,
2013-05-04 11:03:00,55.2,43.5,-100.00,North,-999,-999.0,-999.0,64,-99.99,,,-99.99,948.0,HOBO +U30 +Weather +,2013-05-04 15:03:00,
2013-05-04 11:04:00,54.8,42.8,-100.00,North,-999,-999.0,-999.0,63,-99.99,,,-99.99,933.0,HOBO +U30 +Weather +,2013-05-04 15:04:00,
2013-05-04 11:05:00,54.7,43.0,-100.00,North,-999,-999.0,-999.0,64,-99.99,,,-99.99,936.0,HOBO +U30 +Weather +,2013-05-04 15:05:00,
2013-05-04 11:06:00,54.6,43.0,-100.00,North,-999,-999.0,-999.0,64,-99.99,,,-99.99,959.0,HOBO +U30 +Weather +,2013-05-04 15:06:00,
2013-05-04 11:07:00,54.6,43.1,-100.00,North,-999,-999.0,-999.0,64,-99.99,,,-99.99,571.0,HOBO +U30 +Weather +,2013-05-04 15:07:00,
2013-05-04 11:08:00,54.6,43.1,-100.00,North,-999,-999.0,-999.0,65,-99.99,,,-99.99,964.0,HOBO +U30 +Weather +,2013-05-04 15:08:00,
2013-05-04 11:09:00,54.8,43.3,-100.00,North,-999,-999.0,-999.0,65,-99.99,,,-99.99,688.0,HOBO +U30 +Weather +,2013-05-04 15:09:00,
2013-05-04 11:10:00,54.6,43.1,-100.00,North,-999,-999.0,-999.0,65,-99.99,,,-99.99,936.0,HOBO +U30 +Weather +,2013-05-04 15:10:00,
2013-05-04 11:11:00,54.9,43.5,-100.00,North,-999,-999.0,-999.0,65,-99.99,,,-99.99,784.0,HOBO +U30 +Weather +,2013-05-04 15:11:00,
2013-05-04 11:12:00,55.4,43.3,-100.00,North,-999,-999.0,-999.0,63,-99.99,,,-99.99,954.0,HOBO +U30 +Weather +,2013-05-04 15:12:00,
2013-05-04 11:13:00,55.3,43.2,-100.00,North,-999,-999.0,-999.0,63,-99.99,,,-99.99,926.0,HOBO +U30 +Weather +,2013-05-04 15:13:00,
2013-05-04 11:14:00,55.4,43.8,-100.00,North,-999,-999.0,-999.0,64,-99.99,,,-99.99,938.0,HOBO +U30 +Weather +,2013-05-04 15:14:00,
2013-05-04 11:15:00,55.8,43.4,-100.00,North,-999,-999.0,-999.0,63,-99.99,,,-99.99,896.0,HOBO +U30 +Weather +,2013-05-04 15:15:00,
2013-05-04 11:16:00,55.9,43.6,-100.00,North,-999,-999.0,-999.0,63,-99.99,,,-99.99,882.0,HOBO +U30 +Weather +,2013-05-04 15:16:00,
2013-05-04 11:17:00,56.0,43.7,-100.00,North,-999,-999.0,-999.0,63,-99.99,,,-99.99,896.0,HOBO +U30 +Weather +,2013-05-04 15:17:00,
2013-05-04 11:18:00,55.7,43.1,-100.00,North,-999,-999.0,-999.0,62,-99.99,,,-99.99,884.0,HOBO +U30 +Weather +,2013-05-04 15:18:00,
2013-05-04 11:19:00,54.9,42.5,-100.00,North,-999,-999.0,-999.0,62,-99.99,,,-99.99,906.0,HOBO +U30 +Weather +,2013-05-04 15:19:00,
2013-05-04 11:20:00,54.4,42.5,-100.00,North,-999,-999.0,-999.0,64,-99.99,,,-99.99,434.0,HOBO +U30 +Weather +,2013-05-04 15:20:00,
2013-05-04 11:21:00,54.5,42.6,-100.00,North,-999,-999.0,-999.0,64,-99.99,,,-99.99,694.0,HOBO +U30 +Weather +,2013-05-04 15:21:00,
2013-05-04 11:22:00,54.4,42.7,-100.00,North,-999,-999.0,-999.0,64,-99.99,,,-99.99,901.0,HOBO +U30 +Weather +,2013-05-04 15:22:00,
2013-05-04 11:23:00,54.7,42.9,-100.00,North,-999,-999.0,-999.0,64,-99.99,,,-99.99,908.0,HOBO +U30 +Weather +,2013-05-04 15:23:00,
2013-05-04 11:24:00,54.7,43.2,-100.00,North,-999,-999.0,-999.0,65,-99.99,,,-99.99,936.0,HOBO +U30 +Weather +,2013-05-04 15:24:00,
2013-05-04 11:25:00,55.2,43.5,-100.00,North,-999,-999.0,-999.0,64,-99.99,,,-99.99,618.0,HOBO +U30 +Weather +,2013-05-04 15:25:00,
2013-05-04 11:26:00,54.9,42.6,-100.00,North,-999,-999.0,-999.0,63,-99.99,,,-99.99,958.0,HOBO +U30 +Weather +,2013-05-04 15:26:00,
2013-05-04 11:27:00,54.7,42.9,-100.00,North,-999,-999.0,-999.0,64,-99.99,,,-99.99,923.0,HOBO +U30 +Weather +,2013-05-04 15:27:00,
2013-05-04 11:28:00,55.3,43.9,-100.00,North,-999,-999.0,-999.0,65,-99.99,,,-99.99,949.0,HOBO +U30 +Weather +,2013-05-04 15:28:00,
2013-05-04 11:29:00,55.1,43.6,-100.00,North,-999,-999.0,-999.0,65,-99.99,,,-99.99,733.0,HOBO +U30 +Weather +,2013-05-04 15:29:00,
2013-05-04 11:30:00,55.3,43.4,-100.00,North,-999,-999.0,-999.0,64,-99.99,,,-99.99,916.0,HOBO +U30 +Weather +,2013-05-04 15:30:00,
2013-05-04 11:31:00,55.1,43.0,-100.00,North,-999,-999.0,-999.0,63,-99.99,,,-99.99,923.0,HOBO +U30 +Weather +,2013-05-04 15:31:00,
2013-05-04 11:32:00,55.5,43.7,-100.00,North,-999,-999.0,-999.0,64,-99.99,,,-99.99,928.0,HOBO +U30 +Weather +,2013-05-04 15:32:00,
2013-05-04 11:33:00,55.8,43.9,-100.00,North,-999,-999.0,-999.0,64,-99.99,,,-99.99,939.0,HOBO +U30 +Weather +,2013-05-04 15:33:00,
2013-05-04 11:34:00,56.0,43.2,-100.00,North,-999,-999.0,-999.0,62,-99.99,,,-99.99,873.0,HOBO +U30 +Weather +,2013-05-04 15:34:00,
2013-05-04 11:35:00,56.1,43.2,-100.00,North,-999,-999.0,-999.0,61,-99.99,,,-99.99,914.0,HOBO +U30 +Weather +,2013-05-04 15:35:00,
2013-05-04 11:36:00,56.0,42.7,-100.00,North,-999,-999.0,-999.0,60,-99.99,,,-99.99,926.0,HOBO +U30 +Weather +,2013-05-04 15:36:00,
2013-05-04 11:37:00,55.0,42.2,-100.00,North,-999,-999.0,-999.0,62,-99.99,,,-99.99,927.0,HOBO +U30 +Weather +,2013-05-04 15:37:00,
2013-05-04 11:38:00,54.7,42.0,-100.00,North,-999,-999.0,-999.0,62,-99.99,,,-99.99,928.0,HOBO +U30 +Weather +,2013-05-04 15:38:00,
2013-05-04 11:39:00,54.2,42.2,-100.00,North,-999,-999.0,-999.0,63,-99.99,,,-99.99,922.0,HOBO +U30 +Weather +,2013-05-04 15:39:00,
2013-05-04 11:40:00,54.8,43.0,-100.00,North,-999,-999.0,-999.0,64,-99.99,,,-99.99,928.0,HOBO +U30 +Weather +,2013-05-04 15:40:00,
2013-05-04 11:41:00,55.3,43.1,-100.00,North,-999,-999.0,-999.0,63,-99.99,,,-99.99,934.0,HOBO +U30 +Weather +,2013-05-04 15:41:00,
2013-05-04 11:42:00,55.7,43.2,-100.00,North,-999,-999.0,-999.0,62,-99.99,,,-99.99,933.0,HOBO +U30 +Weather +,2013-05-04 15:42:00,
2013-05-04 11:43:00,55.9,43.3,-100.00,North,-999,-999.0,-999.0,62,-99.99,,,-99.99,933.0,HOBO +U30 +Weather +,2013-05-04 15:43:00,
2013-05-04 11:44:00,56.4,43.3,-100.00,North,-999,-999.0,-999.0,61,-99.99,,,-99.99,926.0,HOBO +U30 +Weather +,2013-05-04 15:44:00,
2013-05-04 11:45:00,55.8,43.0,-100.00,North,-999,-999.0,-999.0,62,-99.99,,,-99.99,943.0,HOBO +U30 +Weather +,2013-05-04 15:45:00,
2013-05-04 11:46:00,55.3,41.7,-100.00,North,-999,-999.0,-999.0,60,-99.99,,,-99.99,966.0,HOBO +U30 +Weather +,2013-05-04 15:46:00,
2013-05-04 11:47:00,54.8,41.7,-100.00,North,-999,-999.0,-999.0,61,-99.99,,,-99.99,943.0,HOBO +U30 +Weather +,2013-05-04 15:47:00,
2013-05-04 11:48:00,54.4,41.8,-100.00,North,-999,-999.0,-999.0,62,-99.99,,,-99.99,938.0,HOBO +U30 +Weather +,2013-05-04 15:48:00,
2013-05-04 11:49:00,54.4,41.8,-100.00,North,-999,-999.0,-999.0,62,-99.99,,,-99.99,942.0,HOBO +U30 +Weather +,2013-05-04 15:49:00,
2013-05-04 11:50:00,54.3,41.9,-100.00,North,-999,-999.0,-999.0,62,-99.99,,,-99.99,929.0,HOBO +U30 +Weather +,2013-05-04 15:50:00,
2013-05-04 11:51:00,54.8,42.2,-100.00,North,-999,-999.0,-999.0,62,-99.99,,,-99.99,931.0,HOBO +U30 +Weather +,2013-05-04 15:51:00,
2013-05-04 11:52:00,55.1,42.6,-100.00,North,-999,-999.0,-999.0,62,-99.99,,,-99.99,958.0,HOBO +U30 +Weather +,2013-05-04 15:52:00,
2013-05-04 11:53:00,55.1,42.3,-100.00,North,-999,-999.0,-999.0,62,-99.99,,,-99.99,959.0,HOBO +U30 +Weather +,2013-05-04 15:53:00,
2013-05-04 11:54:00,54.9,42.0,-100.00,North,-999,-999.0,-999.0,61,-99.99,,,-99.99,949.0,HOBO +U30 +Weather +,2013-05-04 15:54:00,
2013-05-04 11:55:00,54.7,42.1,-100.00,North,-999,-999.0,-999.0,62,-99.99,,,-99.99,958.0,HOBO +U30 +Weather +,2013-05-04 15:55:00,
2013-05-04 11:56:00,53.9,41.3,-100.00,North,-999,-999.0,-999.0,62,-99.99,,,-99.99,962.0,HOBO +U30 +Weather +,2013-05-04 15:56:00,
2013-05-04 11:57:00,53.5,41.7,-100.00,North,-999,-999.0,-999.0,64,-99.99,,,-99.99,962.0,HOBO +U30 +Weather +,2013-05-04 15:57:00,
2013-05-04 11:58:00,54.0,42.3,-100.00,North,-999,-999.0,-999.0,64,-99.99,,,-99.99,967.0,HOBO +U30 +Weather +,2013-05-04 15:58:00,
2013-05-04 11:59:00,54.3,42.7,-100.00,North,-999,-999.0,-999.0,64,-99.99,,,-99.99,959.0,HOBO +U30 +Weather +,2013-05-04 15:59:00,
2013-05-04 12:00:00,55.0,42.4,-100.00,North,-999,-999.0,-999.0,62,-99.99,,,-99.99,961.0,HOBO +U30 +Weather +,2013-05-04 16:00:00,
2013-05-04 12:01:00,55.1,42.5,-100.00,North,-999,-999.0,-999.0,62,-99.99,,,-99.99,992.0,HOBO +U30 +Weather +,2013-05-04 16:01:00,
2013-05-04 12:02:00,55.0,42.4,-100.00,North,-999,-999.0,-999.0,62,-99.99,,,-99.99,969.0,HOBO +U30 +Weather +,2013-05-04 16:02:00,
2013-05-04 12:03:00,55.2,42.8,-100.00,North,-999,-999.0,-999.0,62,-99.99,,,-99.99,968.0,HOBO +U30 +Weather +,2013-05-04 16:03:00,
2013-05-04 12:04:00,55.0,42.7,-100.00,North,-999,-999.0,-999.0,63,-99.99,,,-99.99,961.0,HOBO +U30 +Weather +,2013-05-04 16:04:00,
2013-05-04 12:05:00,54.8,42.5,-100.00,North,-999,-999.0,-999.0,63,-99.99,,,-99.99,962.0,HOBO +U30 +Weather +,2013-05-04 16:05:00,
2013-05-04 12:06:00,54.8,42.2,-100.00,North,-999,-999.0,-999.0,62,-99.99,,,-99.99,963.0,HOBO +U30 +Weather +,2013-05-04 16:06:00,
2013-05-04 12:07:00,54.3,42.1,-100.00,North,-999,-999.0,-999.0,63,-99.99,,,-99.99,964.0,HOBO +U30 +Weather +,2013-05-04 16:07:00,
2013-05-04 12:08:00,54.0,42.2,-100.00,North,-999,-999.0,-999.0,64,-99.99,,,-99.99,969.0,HOBO +U30 +Weather +,2013-05-04 16:08:00,
2013-05-04 12:09:00,53.9,42.1,-100.00,North,-999,-999.0,-999.0,64,-99.99,,,-99.99,976.0,HOBO +U30 +Weather +,2013-05-04 16:09:00,
2013-05-04 12:10:00,54.2,42.8,-100.00,North,-999,-999.0,-999.0,65,-99.99,,,-99.99,1011.0,HOBO +U30 +Weather +,2013-05-04 16:10:00,
2013-05-04 12:11:00,54.3,42.3,-100.00,North,-999,-999.0,-999.0,63,-99.99,,,-99.99,967.0,HOBO +U30 +Weather +,2013-05-04 16:11:00,
2013-05-04 12:12:00,54.1,42.4,-100.00,North,-999,-999.0,-999.0,64,-99.99,,,-99.99,999.0,HOBO +U30 +Weather +,2013-05-04 16:12:00,
2013-05-04 12:13:00,54.3,42.9,-100.00,North,-999,-999.0,-999.0,65,-99.99,,,-99.99,1024.0,HOBO +U30 +Weather +,2013-05-04 16:13:00,
2013-05-04 12:14:00,54.7,43.0,-100.00,North,-999,-999.0,-999.0,64,-99.99,,,-99.99,1007.0,HOBO +U30 +Weather +,2013-05-04 16:14:00,
2013-05-04 12:15:00,55.4,43.4,-100.00,North,-999,-999.0,-999.0,63,-99.99,,,-99.99,683.0,HOBO +U30 +Weather +,2013-05-04 16:15:00,
2013-05-04 12:16:00,54.7,42.5,-100.00,North,-999,-999.0,-999.0,63,-99.99,,,-99.99,1044.0,HOBO +U30 +Weather +,2013-05-04 16:16:00,
2013-05-04 12:17:00,54.3,43.0,-100.00,North,-999,-999.0,-999.0,65,-99.99,,,-99.99,1049.0,HOBO +U30 +Weather +,2013-05-04 16:17:00,
2013-05-04 12:18:00,54.8,43.4,-100.00,North,-999,-999.0,-999.0,65,-99.99,,,-99.99,1046.0,HOBO +U30 +Weather +,2013-05-04 16:18:00,
2013-05-04 12:19:00,54.6,43.0,-100.00,North,-999,-999.0,-999.0,64,-99.99,,,-99.99,1047.0,HOBO +U30 +Weather +,2013-05-04 16:19:00,
2013-05-04 12:20:00,54.5,43.0,-100.00,North,-999,-999.0,-999.0,65,-99.99,,,-99.99,1051.0,HOBO +U30 +Weather +,2013-05-04 16:20:00,
2013-05-04 12:21:00,54.5,42.6,-100.00,North,-999,-999.0,-999.0,64,-99.99,,,-99.99,1034.0,HOBO +U30 +Weather +,2013-05-04 16:21:00,
2013-05-04 12:22:00,54.0,42.5,-100.00,North,-999,-999.0,-999.0,64,-99.99,,,-99.99,459.0,HOBO +U30 +Weather +,2013-05-04 16:22:00,
2013-05-04 12:23:00,53.9,42.5,-100.00,North,-999,-999.0,-999.0,65,-99.99,,,-99.99,231.0,HOBO +U30 +Weather +,2013-05-04 16:23:00,
2013-05-04 12:24:00,53.4,41.9,-100.00,North,-999,-999.0,-999.0,64,-99.99,,,-99.99,973.0,HOBO +U30 +Weather +,2013-05-04 16:24:00,
2013-05-04 12:25:00,53.4,41.8,-100.00,North,-999,-999.0,-999.0,64,-99.99,,,-99.99,1031.0,HOBO +U30 +Weather +,2013-05-04 16:25:00,
2013-05-04 12:26:00,53.7,42.2,-100.00,North,-999,-999.0,-999.0,64,-99.99,,,-99.99,208.0,HOBO +U30 +Weather +,2013-05-04 16:26:00,
2013-05-04 12:27:00,54.2,42.7,-100.00,North,-999,-999.0,-999.0,65,-99.99,,,-99.99,999.0,HOBO +U30 +Weather +,2013-05-04 16:27:00,
2013-05-04 12:28:00,54.6,43.2,-100.00,North,-999,-999.0,-999.0,65,-99.99,,,-99.99,1066.0,HOBO +U30 +Weather +,2013-05-04 16:28:00,
2013-05-04 12:29:00,55.0,43.5,-100.00,North,-999,-999.0,-999.0,65,-99.99,,,-99.99,1028.0,HOBO +U30 +Weather +,2013-05-04 16:29:00,
2013-05-04 12:30:00,55.2,43.4,-100.00,North,-999,-999.0,-999.0,64,-99.99,,,-99.99,987.0,HOBO +U30 +Weather +,2013-05-04 16:30:00,
2013-05-04 12:31:00,55.4,44.4,-100.00,North,-999,-999.0,-999.0,66,-99.99,,,-99.99,986.0,HOBO +U30 +Weather +,2013-05-04 16:31:00,
2013-05-04 12:32:00,55.8,44.1,-100.00,North,-999,-999.0,-999.0,64,-99.99,,,-99.99,983.0,HOBO +U30 +Weather +,2013-05-04 16:32:00,
2013-05-04 12:33:00,56.5,44.2,-100.00,North,-999,-999.0,-999.0,63,-99.99,,,-99.99,998.0,HOBO +U30 +Weather +,2013-05-04 16:33:00,
2013-05-04 12:34:00,56.9,44.0,-100.00,North,-999,-999.0,-999.0,61,-99.99,,,-99.99,679.0,HOBO +U30 +Weather +,2013-05-04 16:34:00,
2013-05-04 12:35:00,56.4,43.4,-100.00,North,-999,-999.0,-999.0,61,-99.99,,,-99.99,1004.0,HOBO +U30 +Weather +,2013-05-04 16:35:00,
2013-05-04 12:36:00,56.4,43.7,-100.00,North,-999,-999.0,-999.0,62,-99.99,,,-99.99,982.0,HOBO +U30 +Weather +,2013-05-04 16:36:00,
2013-05-04 12:37:00,56.6,43.7,-100.00,North,-999,-999.0,-999.0,61,-99.99,,,-99.99,1006.0,HOBO +U30 +Weather +,2013-05-04 16:37:00,
2013-05-04 12:38:00,56.4,43.8,-100.00,North,-999,-999.0,-999.0,62,-99.99,,,-99.99,587.0,HOBO +U30 +Weather +,2013-05-04 16:38:00,
2013-05-04 12:39:00,56.6,44.3,-100.00,North,-999,-999.0,-999.0,63,-99.99,,,-99.99,1041.0,HOBO +U30 +Weather +,2013-05-04 16:39:00,
2013-05-04 12:40:00,56.2,42.6,-100.00,North,-999,-999.0,-999.0,60,-99.99,,,-99.99,988.0,HOBO +U30 +Weather +,2013-05-04 16:40:00,
2013-05-04 12:41:00,55.3,41.8,-100.00,North,-999,-999.0,-999.0,60,-99.99,,,-99.99,996.0,HOBO +U30 +Weather +,2013-05-04 16:41:00,
2013-05-04 12:42:00,54.6,42.0,-100.00,North,-999,-999.0,-999.0,62,-99.99,,,-99.99,989.0,HOBO +U30 +Weather +,2013-05-04 16:42:00,
2013-05-04 12:43:00,54.1,41.9,-100.00,North,-999,-999.0,-999.0,63,-99.99,,,-99.99,1076.0,HOBO +U30 +Weather +,2013-05-04 16:43:00,
2013-05-04 12:44:00,53.7,42.0,-100.00,North,-999,-999.0,-999.0,64,-99.99,,,-99.99,998.0,HOBO +U30 +Weather +,2013-05-04 16:44:00,
2013-05-04 12:45:00,53.3,41.3,-100.00,North,-999,-999.0,-999.0,63,-99.99,,,-99.99,1017.0,HOBO +U30 +Weather +,2013-05-04 16:45:00,
2013-05-04 12:46:00,53.3,41.5,-100.00,North,-999,-999.0,-999.0,64,-99.99,,,-99.99,397.0,HOBO +U30 +Weather +,2013-05-04 16:46:00,
2013-05-04 12:47:00,53.1,41.6,-100.00,North,-999,-999.0,-999.0,64,-99.99,,,-99.99,1034.0,HOBO +U30 +Weather +,2013-05-04 16:47:00,
2013-05-04 12:48:00,53.3,41.5,-100.00,North,-999,-999.0,-999.0,64,-99.99,,,-99.99,777.0,HOBO +U30 +Weather +,2013-05-04 16:48:00,
2013-05-04 12:49:00,53.3,41.7,-100.00,North,-999,-999.0,-999.0,64,-99.99,,,-99.99,1024.0,HOBO +U30 +Weather +,2013-05-04 16:49:00,
2013-05-04 12:50:00,53.3,41.8,-100.00,North,-999,-999.0,-999.0,64,-99.99,,,-99.99,1004.0,HOBO +U30 +Weather +,2013-05-04 16:50:00,
2013-05-04 12:51:00,53.5,41.4,-100.00,North,-999,-999.0,-999.0,63,-99.99,,,-99.99,951.0,HOBO +U30 +Weather +,2013-05-04 16:51:00,
2013-05-04 12:52:00,53.6,41.3,-100.00,North,-999,-999.0,-999.0,63,-99.99,,,-99.99,803.0,HOBO +U30 +Weather +,2013-05-04 16:52:00,
2013-05-04 12:53:00,53.8,41.5,-100.00,North,-999,-999.0,-999.0,63,-99.99,,,-99.99,987.0,HOBO +U30 +Weather +,2013-05-04 16:53:00,
2013-05-04 12:54:00,54.1,42.1,-100.00,North,-999,-999.0,-999.0,63,-99.99,,,-99.99,1018.0,HOBO +U30 +Weather +,2013-05-04 16:54:00,
2013-05-04 12:55:00,54.2,42.0,-100.00,North,-999,-999.0,-999.0,63,-99.99,,,-99.99,967.0,HOBO +U30 +Weather +,2013-05-04 16:55:00,
2013-05-04 12:56:00,53.9,41.2,-100.00,North,-999,-999.0,-999.0,62,-99.99,,,-99.99,1043.0,HOBO +U30 +Weather +,2013-05-04 16:56:00,
2013-05-04 12:57:00,53.3,40.6,-100.00,North,-999,-999.0,-999.0,62,-99.99,,,-99.99,1033.0,HOBO +U30 +Weather +,2013-05-04 16:57:00,
2013-05-04 12:58:00,53.0,41.2,-100.00,North,-999,-999.0,-999.0,64,-99.99,,,-99.99,972.0,HOBO +U30 +Weather +,2013-05-04 16:58:00,
2013-05-04 12:59:00,53.3,41.8,-100.00,North,-999,-999.0,-999.0,64,-99.99,,,-99.99,976.0,HOBO +U30 +Weather +,2013-05-04 16:59:00,
2013-05-04 13:00:00,53.4,41.2,-100.00,North,-999,-999.0,-999.0,63,-99.99,,,-99.99,967.0,HOBO +U30 +Weather +,2013-05-04 17:00:00,
2013-05-04 13:01:00,53.3,41.3,-100.00,North,-999,-999.0,-999.0,63,-99.99,,,-99.99,959.0,HOBO +U30 +Weather +,2013-05-04 17:01:00,
2013-05-04 13:02:00,53.2,41.3,-100.00,North,-999,-999.0,-999.0,64,-99.99,,,-99.99,974.0,HOBO +U30 +Weather +,2013-05-04 17:02:00,
2013-05-04 13:03:00,53.1,41.3,-100.00,North,-999,-999.0,-999.0,64,-99.99,,,-99.99,816.0,HOBO +U30 +Weather +,2013-05-04 17:03:00,
2013-05-04 13:04:00,53.1,41.2,-100.00,North,-999,-999.0,-999.0,63,-99.99,,,-99.99,831.0,HOBO +U30 +Weather +,2013-05-04 17:04:00,
2013-05-04 13:05:00,53.4,41.3,-100.00,North,-999,-999.0,-999.0,63,-99.99,,,-99.99,1009.0,HOBO +U30 +Weather +,2013-05-04 17:05:00,
2013-05-04 13:06:00,54.0,41.8,-100.00,North,-999,-999.0,-999.0,63,-99.99,,,-99.99,1033.0,HOBO +U30 +Weather +,2013-05-04 17:06:00,
2013-05-04 13:07:00,54.2,41.8,-100.00,North,-999,-999.0,-999.0,62,-99.99,,,-99.99,972.0,HOBO +U30 +Weather +,2013-05-04 17:07:00,
2013-05-04 13:08:00,54.1,41.8,-100.00,North,-999,-999.0,-999.0,63,-99.99,,,-99.99,832.0,HOBO +U30 +Weather +,2013-05-04 17:08:00,
2013-05-04 13:09:00,53.9,41.9,-100.00,North,-999,-999.0,-999.0,63,-99.99,,,-99.99,486.0,HOBO +U30 +Weather +,2013-05-04 17:09:00,
2013-05-04 13:10:00,54.1,41.9,-100.00,North,-999,-999.0,-999.0,63,-99.99,,,-99.99,947.0,HOBO +U30 +Weather +,2013-05-04 17:10:00,
2013-05-04 13:11:00,54.2,42.1,-100.00,North,-999,-999.0,-999.0,63,-99.99,,,-99.99,957.0,HOBO +U30 +Weather +,2013-05-04 17:11:00,
2013-05-04 13:12:00,54.4,42.2,-100.00,North,-999,-999.0,-999.0,63,-99.99,,,-99.99,947.0,HOBO +U30 +Weather +,2013-05-04 17:12:00,
2013-05-04 13:13:00,54.6,41.7,-100.00,North,-999,-999.0,-999.0,61,-99.99,,,-99.99,948.0,HOBO +U30 +Weather +,2013-05-04 17:13:00,
2013-05-04 13:14:00,54.3,41.7,-100.00,North,-999,-999.0,-999.0,62,-99.99,,,-99.99,949.0,HOBO +U30 +Weather +,2013-05-04 17:14:00,
2013-05-04 13:15:00,54.3,42.1,-100.00,North,-999,-999.0,-999.0,63,-99.99,,,-99.99,951.0,HOBO +U30 +Weather +,2013-05-04 17:15:00,
2013-05-04 13:16:00,54.2,41.9,-100.00,North,-999,-999.0,-999.0,62,-99.99,,,-99.99,949.0,HOBO +U30 +Weather +,2013-05-04 17:16:00,
2013-05-04 13:17:00,53.8,41.8,-100.00,North,-999,-999.0,-999.0,63,-99.99,,,-99.99,938.0,HOBO +U30 +Weather +,2013-05-04 17:17:00,
2013-05-04 13:18:00,53.7,42.2,-100.00,North,-999,-999.0,-999.0,64,-99.99,,,-99.99,951.0,HOBO +U30 +Weather +,2013-05-04 17:18:00,
2013-05-04 13:19:00,54.5,42.7,-100.00,North,-999,-999.0,-999.0,64,-99.99,,,-99.99,947.0,HOBO +U30 +Weather +,2013-05-04 17:19:00,
2013-05-04 13:20:00,54.9,42.5,-100.00,North,-999,-999.0,-999.0,62,-99.99,,,-99.99,958.0,HOBO +U30 +Weather +,2013-05-04 17:20:00,
2013-05-04 13:21:00,54.8,42.4,-100.00,North,-999,-999.0,-999.0,62,-99.99,,,-99.99,967.0,HOBO +U30 +Weather +,2013-05-04 17:21:00,
2013-05-04 13:22:00,55.1,42.7,-100.00,North,-999,-999.0,-999.0,62,-99.99,,,-99.99,901.0,HOBO +U30 +Weather +,2013-05-04 17:22:00,
2013-05-04 13:23:00,55.3,42.5,-100.00,North,-999,-999.0,-999.0,61,-99.99,,,-99.99,941.0,HOBO +U30 +Weather +,2013-05-04 17:23:00,
2013-05-04 13:24:00,55.3,42.2,-100.00,North,-999,-999.0,-999.0,61,-99.99,,,-99.99,942.0,HOBO +U30 +Weather +,2013-05-04 17:24:00,
2013-05-04 13:25:00,54.5,41.5,-100.00,North,-999,-999.0,-999.0,61,-99.99,,,-99.99,938.0,HOBO +U30 +Weather +,2013-05-04 17:25:00,
2013-05-04 13:26:00,54.6,41.8,-100.00,North,-999,-999.0,-999.0,61,-99.99,,,-99.99,937.0,HOBO +U30 +Weather +,2013-05-04 17:26:00,
2013-05-04 13:27:00,54.3,41.9,-100.00,North,-999,-999.0,-999.0,62,-99.99,,,-99.99,941.0,HOBO +U30 +Weather +,2013-05-04 17:27:00,
2013-05-04 13:28:00,54.6,42.2,-100.00,North,-999,-999.0,-999.0,62,-99.99,,,-99.99,942.0,HOBO +U30 +Weather +,2013-05-04 17:28:00,
2013-05-04 13:29:00,55.2,42.7,-100.00,North,-999,-999.0,-999.0,62,-99.99,,,-99.99,938.0,HOBO +U30 +Weather +,2013-05-04 17:29:00,
2013-05-04 13:30:00,55.6,42.8,-100.00,North,-999,-999.0,-999.0,62,-99.99,,,-99.99,938.0,HOBO +U30 +Weather +,2013-05-04 17:30:00,
2013-05-04 13:31:00,55.3,42.5,-100.00,North,-999,-999.0,-999.0,61,-99.99,,,-99.99,928.0,HOBO +U30 +Weather +,2013-05-04 17:31:00,
2013-05-04 13:32:00,55.3,42.4,-100.00,North,-999,-999.0,-999.0,61,-99.99,,,-99.99,922.0,HOBO +U30 +Weather +,2013-05-04 17:32:00,
2013-05-04 13:33:00,54.7,42.5,-100.00,North,-999,-999.0,-999.0,63,-99.99,,,-99.99,924.0,HOBO +U30 +Weather +,2013-05-04 17:33:00,
2013-05-04 13:34:00,54.6,42.3,-100.00,North,-999,-999.0,-999.0,63,-99.99,,,-99.99,918.0,HOBO +U30 +Weather +,2013-05-04 17:34:00,
2013-05-04 13:35:00,54.5,42.1,-100.00,North,-999,-999.0,-999.0,62,-99.99,,,-99.99,921.0,HOBO +U30 +Weather +,2013-05-04 17:35:00,
2013-05-04 13:36:00,54.4,41.8,-100.00,North,-999,-999.0,-999.0,62,-99.99,,,-99.99,921.0,HOBO +U30 +Weather +,2013-05-04 17:36:00,
2013-05-04 13:37:00,54.2,42.0,-100.00,North,-999,-999.0,-999.0,63,-99.99,,,-99.99,917.0,HOBO +U30 +Weather +,2013-05-04 17:37:00,
2013-05-04 13:38:00,54.6,42.0,-100.00,North,-999,-999.0,-999.0,62,-99.99,,,-99.99,917.0,HOBO +U30 +Weather +,2013-05-04 17:38:00,
2013-05-04 13:39:00,54.6,42.2,-100.00,North,-999,-999.0,-999.0,62,-99.99,,,-99.99,918.0,HOBO +U30 +Weather +,2013-05-04 17:39:00,
2013-05-04 13:40:00,54.7,42.4,-100.00,North,-999,-999.0,-999.0,63,-99.99,,,-99.99,922.0,HOBO +U30 +Weather +,2013-05-04 17:40:00,
2013-05-04 13:41:00,55.0,42.6,-100.00,North,-999,-999.0,-999.0,62,-99.99,,,-99.99,922.0,HOBO +U30 +Weather +,2013-05-04 17:41:00,
2013-05-04 13:42:00,55.4,42.7,-100.00,North,-999,-999.0,-999.0,62,-99.99,,,-99.99,918.0,HOBO +U30 +Weather +,2013-05-04 17:42:00,
2013-05-04 13:43:00,55.6,42.4,-100.00,North,-999,-999.0,-999.0,61,-99.99,,,-99.99,918.0,HOBO +U30 +Weather +,2013-05-04 17:43:00,
2013-05-04 13:44:00,55.3,42.3,-100.00,North,-999,-999.0,-999.0,61,-99.99,,,-99.99,918.0,HOBO +U30 +Weather +,2013-05-04 17:44:00,
2013-05-04 13:45:00,55.2,42.2,-100.00,North,-999,-999.0,-999.0,61,-99.99,,,-99.99,909.0,HOBO +U30 +Weather +,2013-05-04 17:45:00,
2013-05-04 13:46:00,55.0,42.4,-100.00,North,-999,-999.0,-999.0,62,-99.99,,,-99.99,917.0,HOBO +U30 +Weather +,2013-05-04 17:46:00,
2013-05-04 13:47:00,55.0,42.1,-100.00,North,-999,-999.0,-999.0,61,-99.99,,,-99.99,908.0,HOBO +U30 +Weather +,2013-05-04 17:47:00,
2013-05-04 13:48:00,55.1,42.3,-100.00,North,-999,-999.0,-999.0,62,-99.99,,,-99.99,911.0,HOBO +U30 +Weather +,2013-05-04 17:48:00,
2013-05-04 13:49:00,55.5,42.7,-100.00,North,-999,-999.0,-999.0,62,-99.99,,,-99.99,906.0,HOBO +U30 +Weather +,2013-05-04 17:49:00,
2013-05-04 13:50:00,54.8,42.0,-100.00,North,-999,-999.0,-999.0,61,-99.99,,,-99.99,906.0,HOBO +U30 +Weather +,2013-05-04 17:50:00,
2013-05-04 13:51:00,54.6,42.1,-100.00,North,-999,-999.0,-999.0,62,-99.99,,,-99.99,897.0,HOBO +U30 +Weather +,2013-05-04 17:51:00,
2013-05-04 13:52:00,55.0,42.7,-100.00,North,-999,-999.0,-999.0,63,-99.99,,,-99.99,898.0,HOBO +U30 +Weather +,2013-05-04 17:52:00,
2013-05-04 13:53:00,55.5,43.1,-100.00,North,-999,-999.0,-999.0,62,-99.99,,,-99.99,906.0,HOBO +U30 +Weather +,2013-05-04 17:53:00,
2013-05-04 13:54:00,55.0,41.8,-100.00,North,-999,-999.0,-999.0,60,-99.99,,,-99.99,896.0,HOBO +U30 +Weather +,2013-05-04 17:54:00,
2013-05-04 13:55:00,54.4,41.7,-100.00,North,-999,-999.0,-999.0,62,-99.99,,,-99.99,889.0,HOBO +U30 +Weather +,2013-05-04 17:55:00,
2013-05-04 13:56:00,54.8,42.3,-100.00,North,-999,-999.0,-999.0,62,-99.99,,,-99.99,896.0,HOBO +U30 +Weather +,2013-05-04 17:56:00,
2013-05-04 13:57:00,55.3,43.0,-100.00,North,-999,-999.0,-999.0,63,-99.99,,,-99.99,894.0,HOBO +U30 +Weather +,2013-05-04 17:57:00,
2013-05-04 13:58:00,56.0,43.1,-100.00,North,-999,-999.0,-999.0,61,-99.99,,,-99.99,901.0,HOBO +U30 +Weather +,2013-05-04 17:58:00,
2013-05-04 13:59:00,56.0,42.9,-100.00,North,-999,-999.0,-999.0,61,-99.99,,,-99.99,891.0,HOBO +U30 +Weather +,2013-05-04 17:59:00,
2013-05-04 14:00:00,55.6,42.4,-100.00,North,-999,-999.0,-999.0,61,-99.99,,,-99.99,886.0,HOBO +U30 +Weather +,2013-05-04 18:00:00,
2013-05-04 14:01:00,55.7,42.6,-100.00,North,-999,-999.0,-999.0,61,-99.99,,,-99.99,877.0,HOBO +U30 +Weather +,2013-05-04 18:01:00,
2013-05-04 14:02:00,55.8,42.7,-100.00,North,-999,-999.0,-999.0,61,-99.99,,,-99.99,869.0,HOBO +U30 +Weather +,2013-05-04 18:02:00,
2013-05-04 14:03:00,55.3,42.4,-100.00,North,-999,-999.0,-999.0,61,-99.99,,,-99.99,863.0,HOBO +U30 +Weather +,2013-05-04 18:03:00,
2013-05-04 14:04:00,55.2,42.3,-100.00,North,-999,-999.0,-999.0,61,-99.99,,,-99.99,873.0,HOBO +U30 +Weather +,2013-05-04 18:04:00,
2013-05-04 14:05:00,55.4,42.8,-100.00,North,-999,-999.0,-999.0,62,-99.99,,,-99.99,608.0,HOBO +U30 +Weather +,2013-05-04 18:05:00,
2013-05-04 14:06:00,55.4,42.7,-100.00,North,-999,-999.0,-999.0,62,-99.99,,,-99.99,882.0,HOBO +U30 +Weather +,2013-05-04 18:06:00,
2013-05-04 14:07:00,55.6,42.6,-100.00,North,-999,-999.0,-999.0,61,-99.99,,,-99.99,894.0,HOBO +U30 +Weather +,2013-05-04 18:07:00,
2013-05-04 14:08:00,55.3,42.5,-100.00,North,-999,-999.0,-999.0,62,-99.99,,,-99.99,894.0,HOBO +U30 +Weather +,2013-05-04 18:08:00,
2013-05-04 14:09:00,55.2,42.6,-100.00,North,-999,-999.0,-999.0,62,-99.99,,,-99.99,892.0,HOBO +U30 +Weather +,2013-05-04 18:09:00,
2013-05-04 14:10:00,55.4,43.0,-100.00,North,-999,-999.0,-999.0,62,-99.99,,,-99.99,874.0,HOBO +U30 +Weather +,2013-05-04 18:10:00,
2013-05-04 14:11:00,55.7,42.9,-100.00,North,-999,-999.0,-999.0,62,-99.99,,,-99.99,909.0,HOBO +U30 +Weather +,2013-05-04 18:11:00,
2013-05-04 14:12:00,55.2,42.3,-100.00,North,-999,-999.0,-999.0,61,-99.99,,,-99.99,961.0,HOBO +U30 +Weather +,2013-05-04 18:12:00,
2013-05-04 14:13:00,55.3,42.5,-100.00,North,-999,-999.0,-999.0,62,-99.99,,,-99.99,474.0,HOBO +U30 +Weather +,2013-05-04 18:13:00,
2013-05-04 14:14:00,55.2,42.2,-100.00,North,-999,-999.0,-999.0,61,-99.99,,,-99.99,872.0,HOBO +U30 +Weather +,2013-05-04 18:14:00,
2013-05-04 14:15:00,54.6,41.9,-100.00,North,-999,-999.0,-999.0,62,-99.99,,,-99.99,876.0,HOBO +U30 +Weather +,2013-05-04 18:15:00,
2013-05-04 14:16:00,54.9,42.1,-100.00,North,-999,-999.0,-999.0,62,-99.99,,,-99.99,931.0,HOBO +U30 +Weather +,2013-05-04 18:16:00,
2013-05-04 14:17:00,54.7,42.2,-100.00,North,-999,-999.0,-999.0,62,-99.99,,,-99.99,377.0,HOBO +U30 +Weather +,2013-05-04 18:17:00,
2013-05-04 14:18:00,54.1,41.6,-100.00,North,-999,-999.0,-999.0,62,-99.99,,,-99.99,274.0,HOBO +U30 +Weather +,2013-05-04 18:18:00,
2013-05-04 14:19:00,53.8,41.5,-100.00,North,-999,-999.0,-999.0,62,-99.99,,,-99.99,932.0,HOBO +U30 +Weather +,2013-05-04 18:19:00,
2013-05-04 14:20:00,53.8,42.0,-100.00,North,-999,-999.0,-999.0,64,-99.99,,,-99.99,639.0,HOBO +U30 +Weather +,2013-05-04 18:20:00,
2013-05-04 14:21:00,53.7,41.6,-100.00,North,-999,-999.0,-999.0,63,-99.99,,,-99.99,903.0,HOBO +U30 +Weather +,2013-05-04 18:21:00,
2013-05-04 14:22:00,53.8,42.1,-100.00,North,-999,-999.0,-999.0,64,-99.99,,,-99.99,892.0,HOBO +U30 +Weather +,2013-05-04 18:22:00,
2013-05-04 14:23:00,54.1,42.3,-100.00,North,-999,-999.0,-999.0,64,-99.99,,,-99.99,893.0,HOBO +U30 +Weather +,2013-05-04 18:23:00,
2013-05-04 14:24:00,54.3,42.9,-100.00,North,-999,-999.0,-999.0,65,-99.99,,,-99.99,909.0,HOBO +U30 +Weather +,2013-05-04 18:24:00,
2013-05-04 14:25:00,54.8,42.9,-100.00,North,-999,-999.0,-999.0,64,-99.99,,,-99.99,961.0,HOBO +U30 +Weather +,2013-05-04 18:25:00,
2013-05-04 14:26:00,55.4,43.2,-100.00,North,-999,-999.0,-999.0,63,-99.99,,,-99.99,876.0,HOBO +U30 +Weather +,2013-05-04 18:26:00,
2013-05-04 14:27:00,55.5,43.0,-100.00,North,-999,-999.0,-999.0,62,-99.99,,,-99.99,379.0,HOBO +U30 +Weather +,2013-05-04 18:27:00,
2013-05-04 14:28:00,54.9,42.6,-100.00,North,-999,-999.0,-999.0,63,-99.99,,,-99.99,998.0,HOBO +U30 +Weather +,2013-05-04 18:28:00,
2013-05-04 14:29:00,54.8,42.7,-100.00,North,-999,-999.0,-999.0,63,-99.99,,,-99.99,958.0,HOBO +U30 +Weather +,2013-05-04 18:29:00,
2013-05-04 14:30:00,54.2,42.4,-100.00,North,-999,-999.0,-999.0,64,-99.99,,,-99.99,908.0,HOBO +U30 +Weather +,2013-05-04 18:30:00,
2013-05-04 14:31:00,54.1,42.6,-100.00,North,-999,-999.0,-999.0,65,-99.99,,,-99.99,903.0,HOBO +U30 +Weather +,2013-05-04 18:31:00,
2013-05-04 14:32:00,54.1,43.0,-100.00,North,-999,-999.0,-999.0,65,-99.99,,,-99.99,922.0,HOBO +U30 +Weather +,2013-05-04 18:32:00,
2013-05-04 14:33:00,54.7,43.4,-100.00,North,-999,-999.0,-999.0,65,-99.99,,,-99.99,949.0,HOBO +U30 +Weather +,2013-05-04 18:33:00,
2013-05-04 14:34:00,55.3,43.8,-100.00,North,-999,-999.0,-999.0,65,-99.99,,,-99.99,579.0,HOBO +U30 +Weather +,2013-05-04 18:34:00,
2013-05-04 14:35:00,55.4,43.6,-100.00,North,-999,-999.0,-999.0,64,-99.99,,,-99.99,1006.0,HOBO +U30 +Weather +,2013-05-04 18:35:00,
2013-05-04 14:36:00,55.4,43.1,-100.00,North,-999,-999.0,-999.0,63,-99.99,,,-99.99,1008.0,HOBO +U30 +Weather +,2013-05-04 18:36:00,
2013-05-04 14:37:00,55.5,43.4,-100.00,North,-999,-999.0,-999.0,63,-99.99,,,-99.99,742.0,HOBO +U30 +Weather +,2013-05-04 18:37:00,
2013-05-04 14:38:00,55.3,42.8,-100.00,North,-999,-999.0,-999.0,62,-99.99,,,-99.99,966.0,HOBO +U30 +Weather +,2013-05-04 18:38:00,
2013-05-04 14:39:00,54.4,42.6,-100.00,North,-999,-999.0,-999.0,64,-99.99,,,-99.99,763.0,HOBO +U30 +Weather +,2013-05-04 18:39:00,
2013-05-04 14:40:00,54.2,42.8,-100.00,North,-999,-999.0,-999.0,65,-99.99,,,-99.99,986.0,HOBO +U30 +Weather +,2013-05-04 18:40:00,
2013-05-04 14:41:00,54.1,42.1,-100.00,North,-999,-999.0,-999.0,63,-99.99,,,-99.99,286.0,HOBO +U30 +Weather +,2013-05-04 18:41:00,
2013-05-04 14:42:00,53.8,41.9,-100.00,North,-999,-999.0,-999.0,63,-99.99,,,-99.99,806.0,HOBO +U30 +Weather +,2013-05-04 18:42:00,
2013-05-04 14:43:00,54.2,42.5,-100.00,North,-999,-999.0,-999.0,64,-99.99,,,-99.99,889.0,HOBO +U30 +Weather +,2013-05-04 18:43:00,
2013-05-04 14:44:00,54.4,42.7,-100.00,North,-999,-999.0,-999.0,64,-99.99,,,-99.99,902.0,HOBO +U30 +Weather +,2013-05-04 18:44:00,
2013-05-04 14:45:00,55.3,42.9,-100.00,North,-999,-999.0,-999.0,63,-99.99,,,-99.99,527.0,HOBO +U30 +Weather +,2013-05-04 18:45:00,
2013-05-04 14:46:00,55.6,42.7,-100.00,North,-999,-999.0,-999.0,61,-99.99,,,-99.99,977.0,HOBO +U30 +Weather +,2013-05-04 18:46:00,
2013-05-04 14:47:00,55.4,42.8,-100.00,North,-999,-999.0,-999.0,62,-99.99,,,-99.99,631.0,HOBO +U30 +Weather +,2013-05-04 18:47:00,
2013-05-04 14:48:00,55.3,43.0,-100.00,North,-999,-999.0,-999.0,63,-99.99,,,-99.99,773.0,HOBO +U30 +Weather +,2013-05-04 18:48:00,
2013-05-04 14:49:00,55.5,43.3,-100.00,North,-999,-999.0,-999.0,63,-99.99,,,-99.99,223.0,HOBO +U30 +Weather +,2013-05-04 18:49:00,
2013-05-04 14:50:00,55.6,43.1,-100.00,North,-999,-999.0,-999.0,62,-99.99,,,-99.99,869.0,HOBO +U30 +Weather +,2013-05-04 18:50:00,
2013-05-04 14:51:00,55.3,43.0,-100.00,North,-999,-999.0,-999.0,63,-99.99,,,-99.99,873.0,HOBO +U30 +Weather +,2013-05-04 18:51:00,
2013-05-04 14:52:00,55.7,43.3,-100.00,North,-999,-999.0,-999.0,62,-99.99,,,-99.99,924.0,HOBO +U30 +Weather +,2013-05-04 18:52:00,
2013-05-04 14:53:00,55.6,43.1,-100.00,North,-999,-999.0,-999.0,62,-99.99,,,-99.99,954.0,HOBO +U30 +Weather +,2013-05-04 18:53:00,
2013-05-04 14:54:00,55.7,43.5,-100.00,North,-999,-999.0,-999.0,63,-99.99,,,-99.99,812.0,HOBO +U30 +Weather +,2013-05-04 18:54:00,
2013-05-04 14:55:00,55.5,43.0,-100.00,North,-999,-999.0,-999.0,62,-99.99,,,-99.99,992.0,HOBO +U30 +Weather +,2013-05-04 18:55:00,
2013-05-04 14:56:00,54.8,42.7,-100.00,North,-999,-999.0,-999.0,63,-99.99,,,-99.99,973.0,HOBO +U30 +Weather +,2013-05-04 18:56:00,
2013-05-04 14:57:00,54.4,42.9,-100.00,North,-999,-999.0,-999.0,65,-99.99,,,-99.99,952.0,HOBO +U30 +Weather +,2013-05-04 18:57:00,
2013-05-04 14:58:00,54.9,43.3,-100.00,North,-999,-999.0,-999.0,64,-99.99,,,-99.99,959.0,HOBO +U30 +Weather +,2013-05-04 18:58:00,
2013-05-04 14:59:00,55.1,43.3,-100.00,North,-999,-999.0,-999.0,64,-99.99,,,-99.99,302.0,HOBO +U30 +Weather +,2013-05-04 18:59:00,
2013-05-04 15:00:00,54.3,42.7,-100.00,North,-999,-999.0,-999.0,64,-99.99,,,-99.99,559.0,HOBO +U30 +Weather +,2013-05-04 19:00:00,
2013-05-04 15:01:00,54.1,42.9,-100.00,North,-999,-999.0,-999.0,65,-99.99,,,-99.99,449.0,HOBO +U30 +Weather +,2013-05-04 19:01:00,
2013-05-04 15:02:00,53.8,42.7,-100.00,North,-999,-999.0,-999.0,65,-99.99,,,-99.99,249.0,HOBO +U30 +Weather +,2013-05-04 19:02:00,
2013-05-04 15:03:00,52.9,42.1,-100.00,North,-999,-999.0,-999.0,66,-99.99,,,-99.99,1031.0,HOBO +U30 +Weather +,2013-05-04 19:03:00,
2013-05-04 15:04:00,53.2,42.6,-100.00,North,-999,-999.0,-999.0,67,-99.99,,,-99.99,724.0,HOBO +U30 +Weather +,2013-05-04 19:04:00,
2013-05-04 15:05:00,53.3,42.8,-100.00,North,-999,-999.0,-999.0,67,-99.99,,,-99.99,279.0,HOBO +U30 +Weather +,2013-05-04 19:05:00,
2013-05-04 15:06:00,53.7,43.2,-100.00,North,-999,-999.0,-999.0,67,-99.99,,,-99.99,917.0,HOBO +U30 +Weather +,2013-05-04 19:06:00,
2013-05-04 15:07:00,54.4,43.8,-100.00,North,-999,-999.0,-999.0,67,-99.99,,,-99.99,932.0,HOBO +U30 +Weather +,2013-05-04 19:07:00,
2013-05-04 15:08:00,54.6,43.5,-100.00,North,-999,-999.0,-999.0,66,-99.99,,,-99.99,358.0,HOBO +U30 +Weather +,2013-05-04 19:08:00,
2013-05-04 15:09:00,55.0,44.0,-100.00,North,-999,-999.0,-999.0,66,-99.99,,,-99.99,472.0,HOBO +U30 +Weather +,2013-05-04 19:09:00,
2013-05-04 15:10:00,55.2,43.8,-100.00,North,-999,-999.0,-999.0,65,-99.99,,,-99.99,744.0,HOBO +U30 +Weather +,2013-05-04 19:10:00,
2013-05-04 15:11:00,55.3,44.1,-100.00,North,-999,-999.0,-999.0,65,-99.99,,,-99.99,862.0,HOBO +U30 +Weather +,2013-05-04 19:11:00,
2013-05-04 15:12:00,55.6,44.5,-100.00,North,-999,-999.0,-999.0,66,-99.99,,,-99.99,449.0,HOBO +U30 +Weather +,2013-05-04 19:12:00,
2013-05-04 15:13:00,55.6,44.1,-100.00,North,-999,-999.0,-999.0,65,-99.99,,,-99.99,233.0,HOBO +U30 +Weather +,2013-05-04 19:13:00,
2013-05-04 15:14:00,55.0,43.5,-100.00,North,-999,-999.0,-999.0,65,-99.99,,,-99.99,898.0,HOBO +U30 +Weather +,2013-05-04 19:14:00,
2013-05-04 15:15:00,54.8,43.3,-100.00,North,-999,-999.0,-999.0,65,-99.99,,,-99.99,958.0,HOBO +U30 +Weather +,2013-05-04 19:15:00,
2013-05-04 15:16:00,54.8,43.4,-100.00,North,-999,-999.0,-999.0,65,-99.99,,,-99.99,322.0,HOBO +U30 +Weather +,2013-05-04 19:16:00,
2013-05-04 15:17:00,54.2,43.1,-100.00,North,-999,-999.0,-999.0,65,-99.99,,,-99.99,312.0,HOBO +U30 +Weather +,2013-05-04 19:17:00,
2013-05-04 15:18:00,53.3,42.1,-100.00,North,-999,-999.0,-999.0,65,-99.99,,,-99.99,252.0,HOBO +U30 +Weather +,2013-05-04 19:18:00,
2013-05-04 15:19:00,52.7,41.9,-100.00,North,-999,-999.0,-999.0,66,-99.99,,,-99.99,281.0,HOBO +U30 +Weather +,2013-05-04 19:19:00,
2013-05-04 15:20:00,52.6,41.9,-100.00,North,-999,-999.0,-999.0,66,-99.99,,,-99.99,824.0,HOBO +U30 +Weather +,2013-05-04 19:20:00,
2013-05-04 15:21:00,52.9,42.3,-100.00,North,-999,-999.0,-999.0,67,-99.99,,,-99.99,582.0,HOBO +U30 +Weather +,2013-05-04 19:21:00,
2013-05-04 15:22:00,53.6,42.7,-100.00,North,-999,-999.0,-999.0,66,-99.99,,,-99.99,942.0,HOBO +U30 +Weather +,2013-05-04 19:22:00,
2013-05-04 15:23:00,53.6,42.5,-100.00,North,-999,-999.0,-999.0,65,-99.99,,,-99.99,909.0,HOBO +U30 +Weather +,2013-05-04 19:23:00,
2013-05-04 15:24:00,53.8,42.7,-100.00,North,-999,-999.0,-999.0,66,-99.99,,,-99.99,898.0,HOBO +U30 +Weather +,2013-05-04 19:24:00,
2013-05-04 15:25:00,53.9,42.5,-100.00,North,-999,-999.0,-999.0,65,-99.99,,,-99.99,927.0,HOBO +U30 +Weather +,2013-05-04 19:25:00,
2013-05-04 15:26:00,53.7,42.7,-100.00,North,-999,-999.0,-999.0,66,-99.99,,,-99.99,408.0,HOBO +U30 +Weather +,2013-05-04 19:26:00,
2013-05-04 15:27:00,53.8,43.0,-100.00,North,-999,-999.0,-999.0,66,-99.99,,,-99.99,963.0,HOBO +U30 +Weather +,2013-05-04 19:27:00,
2013-05-04 15:28:00,54.1,43.1,-100.00,North,-999,-999.0,-999.0,66,-99.99,,,-99.99,433.0,HOBO +U30 +Weather +,2013-05-04 19:28:00,
2013-05-04 15:29:00,53.8,42.6,-100.00,North,-999,-999.0,-999.0,65,-99.99,,,-99.99,321.0,HOBO +U30 +Weather +,2013-05-04 19:29:00,
2013-05-04 15:30:00,53.7,42.6,-100.00,North,-999,-999.0,-999.0,66,-99.99,,,-99.99,588.0,HOBO +U30 +Weather +,2013-05-04 19:30:00,
2013-05-04 15:31:00,53.5,42.7,-100.00,North,-999,-999.0,-999.0,66,-99.99,,,-99.99,277.0,HOBO +U30 +Weather +,2013-05-04 19:31:00,
2013-05-04 15:32:00,53.2,42.5,-100.00,North,-999,-999.0,-999.0,67,-99.99,,,-99.99,438.0,HOBO +U30 +Weather +,2013-05-04 19:32:00,
2013-05-04 15:33:00,52.8,42.5,-100.00,North,-999,-999.0,-999.0,67,-99.99,,,-99.99,451.0,HOBO +U30 +Weather +,2013-05-04 19:33:00,
2013-05-04 15:34:00,52.6,42.5,-100.00,North,-999,-999.0,-999.0,68,-99.99,,,-99.99,301.0,HOBO +U30 +Weather +,2013-05-04 19:34:00,
2013-05-04 15:35:00,52.4,42.1,-100.00,North,-999,-999.0,-999.0,67,-99.99,,,-99.99,261.0,HOBO +U30 +Weather +,2013-05-04 19:35:00,
2013-05-04 15:36:00,52.2,41.8,-100.00,North,-999,-999.0,-999.0,67,-99.99,,,-99.99,237.0,HOBO +U30 +Weather +,2013-05-04 19:36:00,
2013-05-04 15:37:00,51.9,41.8,-100.00,North,-999,-999.0,-999.0,68,-99.99,,,-99.99,246.0,HOBO +U30 +Weather +,2013-05-04 19:37:00,
2013-05-04 15:38:00,51.9,41.8,-100.00,North,-999,-999.0,-999.0,68,-99.99,,,-99.99,894.0,HOBO +U30 +Weather +,2013-05-04 19:38:00,
2013-05-04 15:39:00,52.6,42.6,-100.00,North,-999,-999.0,-999.0,68,-99.99,,,-99.99,911.0,HOBO +U30 +Weather +,2013-05-04 19:39:00,
2013-05-04 15:40:00,53.2,42.9,-100.00,North,-999,-999.0,-999.0,68,-99.99,,,-99.99,381.0,HOBO +U30 +Weather +,2013-05-04 19:40:00,
2013-05-04 15:41:00,53.4,42.6,-100.00,North,-999,-999.0,-999.0,66,-99.99,,,-99.99,728.0,HOBO +U30 +Weather +,2013-05-04 19:41:00,
2013-05-04 15:42:00,52.9,41.8,-100.00,North,-999,-999.0,-999.0,65,-99.99,,,-99.99,241.0,HOBO +U30 +Weather +,2013-05-04 19:42:00,
2013-05-04 15:43:00,51.9,41.4,-100.00,North,-999,-999.0,-999.0,67,-99.99,,,-99.99,262.0,HOBO +U30 +Weather +,2013-05-04 19:43:00,
2013-05-04 15:44:00,51.4,41.3,-100.00,North,-999,-999.0,-999.0,68,-99.99,,,-99.99,263.0,HOBO +U30 +Weather +,2013-05-04 19:44:00,
2013-05-04 15:45:00,51.2,41.5,-100.00,North,-999,-999.0,-999.0,69,-99.99,,,-99.99,444.0,HOBO +U30 +Weather +,2013-05-04 19:45:00,
2013-05-04 15:46:00,51.7,42.2,-100.00,North,-999,-999.0,-999.0,69,-99.99,,,-99.99,361.0,HOBO +U30 +Weather +,2013-05-04 19:46:00,
2013-05-04 15:47:00,52.3,42.3,-100.00,North,-999,-999.0,-999.0,68,-99.99,,,-99.99,231.0,HOBO +U30 +Weather +,2013-05-04 19:47:00,
2013-05-04 15:48:00,52.2,42.0,-100.00,North,-999,-999.0,-999.0,67,-99.99,,,-99.99,841.0,HOBO +U30 +Weather +,2013-05-04 19:48:00,
2013-05-04 15:49:00,52.5,42.4,-100.00,North,-999,-999.0,-999.0,68,-99.99,,,-99.99,329.0,HOBO +U30 +Weather +,2013-05-04 19:49:00,
2013-05-04 15:50:00,52.7,42.4,-100.00,North,-999,-999.0,-999.0,68,-99.99,,,-99.99,667.0,HOBO +U30 +Weather +,2013-05-04 19:50:00,
2013-05-04 15:51:00,53.0,42.7,-100.00,North,-999,-999.0,-999.0,68,-99.99,,,-99.99,776.0,HOBO +U30 +Weather +,2013-05-04 19:51:00,
2013-05-04 15:52:00,53.3,43.0,-100.00,North,-999,-999.0,-999.0,67,-99.99,,,-99.99,538.0,HOBO +U30 +Weather +,2013-05-04 19:52:00,
2013-05-04 15:53:00,52.9,42.5,-100.00,North,-999,-999.0,-999.0,67,-99.99,,,-99.99,821.0,HOBO +U30 +Weather +,2013-05-04 19:53:00,
2013-05-04 15:54:00,53.1,43.0,-100.00,North,-999,-999.0,-999.0,68,-99.99,,,-99.99,783.0,HOBO +U30 +Weather +,2013-05-04 19:54:00,
2013-05-04 15:55:00,53.4,43.3,-100.00,North,-999,-999.0,-999.0,68,-99.99,,,-99.99,444.0,HOBO +U30 +Weather +,2013-05-04 19:55:00,
2013-05-04 15:56:00,53.7,43.1,-100.00,North,-999,-999.0,-999.0,67,-99.99,,,-99.99,256.0,HOBO +U30 +Weather +,2013-05-04 19:56:00,
2013-05-04 15:57:00,53.9,43.2,-100.00,North,-999,-999.0,-999.0,67,-99.99,,,-99.99,474.0,HOBO +U30 +Weather +,2013-05-04 19:57:00,
2013-05-04 15:58:00,53.0,42.3,-100.00,North,-999,-999.0,-999.0,66,-99.99,,,-99.99,807.0,HOBO +U30 +Weather +,2013-05-04 19:58:00,
2013-05-04 15:59:00,52.4,42.2,-100.00,North,-999,-999.0,-999.0,68,-99.99,,,-99.99,264.0,HOBO +U30 +Weather +,2013-05-04 19:59:00,
2013-05-04 16:00:00,52.2,42.0,-100.00,North,-999,-999.0,-999.0,68,-99.99,,,-99.99,289.0,HOBO +U30 +Weather +,2013-05-04 20:00:00,
2013-05-04 16:01:00,51.7,41.7,-100.00,North,-999,-999.0,-999.0,68,-99.99,,,-99.99,792.0,HOBO +U30 +Weather +,2013-05-04 20:01:00,
2013-05-04 16:02:00,51.8,42.0,-100.00,North,-999,-999.0,-999.0,69,-99.99,,,-99.99,829.0,HOBO +U30 +Weather +,2013-05-04 20:02:00,
2013-05-04 16:03:00,52.1,42.2,-100.00,North,-999,-999.0,-999.0,69,-99.99,,,-99.99,322.0,HOBO +U30 +Weather +,2013-05-04 20:03:00,
2013-05-04 16:04:00,52.3,42.7,-100.00,North,-999,-999.0,-999.0,69,-99.99,,,-99.99,249.0,HOBO +U30 +Weather +,2013-05-04 20:04:00,
2013-05-04 16:05:00,52.5,42.5,-100.00,North,-999,-999.0,-999.0,68,-99.99,,,-99.99,296.0,HOBO +U30 +Weather +,2013-05-04 20:05:00,
2013-05-04 16:06:00,52.6,42.5,-100.00,North,-999,-999.0,-999.0,68,-99.99,,,-99.99,354.0,HOBO +U30 +Weather +,2013-05-04 20:06:00,
2013-05-04 16:07:00,52.8,42.7,-100.00,North,-999,-999.0,-999.0,68,-99.99,,,-99.99,776.0,HOBO +U30 +Weather +,2013-05-04 20:07:00,
2013-05-04 16:08:00,52.5,42.4,-100.00,North,-999,-999.0,-999.0,68,-99.99,,,-99.99,417.0,HOBO +U30 +Weather +,2013-05-04 20:08:00,
2013-05-04 16:09:00,52.4,42.6,-100.00,North,-999,-999.0,-999.0,69,-99.99,,,-99.99,789.0,HOBO +U30 +Weather +,2013-05-04 20:09:00,
2013-05-04 16:10:00,53.0,43.0,-100.00,North,-999,-999.0,-999.0,68,-99.99,,,-99.99,713.0,HOBO +U30 +Weather +,2013-05-04 20:10:00,
2013-05-04 16:11:00,53.2,43.0,-100.00,North,-999,-999.0,-999.0,68,-99.99,,,-99.99,749.0,HOBO +U30 +Weather +,2013-05-04 20:11:00,
2013-05-04 16:12:00,53.3,42.8,-100.00,North,-999,-999.0,-999.0,67,-99.99,,,-99.99,736.0,HOBO +U30 +Weather +,2013-05-04 20:12:00,
2013-05-04 16:13:00,52.8,42.5,-100.00,North,-999,-999.0,-999.0,68,-99.99,,,-99.99,314.0,HOBO +U30 +Weather +,2013-05-04 20:13:00,
2013-05-04 16:14:00,52.8,42.5,-100.00,North,-999,-999.0,-999.0,67,-99.99,,,-99.99,272.0,HOBO +U30 +Weather +,2013-05-04 20:14:00,
2013-05-04 16:15:00,52.3,42.4,-100.00,North,-999,-999.0,-999.0,68,-99.99,,,-99.99,744.0,HOBO +U30 +Weather +,2013-05-04 20:15:00,
2013-05-04 16:16:00,51.9,42.0,-100.00,North,-999,-999.0,-999.0,68,-99.99,,,-99.99,244.0,HOBO +U30 +Weather +,2013-05-04 20:16:00,
2013-05-04 16:17:00,51.9,42.4,-100.00,North,-999,-999.0,-999.0,69,-99.99,,,-99.99,512.0,HOBO +U30 +Weather +,2013-05-04 20:17:00,
2013-05-04 16:18:00,52.1,42.3,-100.00,North,-999,-999.0,-999.0,69,-99.99,,,-99.99,713.0,HOBO +U30 +Weather +,2013-05-04 20:18:00,
2013-05-04 16:19:00,52.5,42.2,-100.00,North,-999,-999.0,-999.0,68,-99.99,,,-99.99,714.0,HOBO +U30 +Weather +,2013-05-04 20:19:00,
2013-05-04 16:20:00,52.5,42.5,-100.00,North,-999,-999.0,-999.0,68,-99.99,,,-99.99,666.0,HOBO +U30 +Weather +,2013-05-04 20:20:00,
2013-05-04 16:21:00,52.0,42.2,-100.00,North,-999,-999.0,-999.0,68,-99.99,,,-99.99,249.0,HOBO +U30 +Weather +,2013-05-04 20:21:00,
2013-05-04 16:22:00,52.5,42.6,-100.00,North,-999,-999.0,-999.0,68,-99.99,,,-99.99,702.0,HOBO +U30 +Weather +,2013-05-04 20:22:00,
2013-05-04 16:23:00,52.8,42.4,-100.00,North,-999,-999.0,-999.0,67,-99.99,,,-99.99,306.0,HOBO +U30 +Weather +,2013-05-04 20:23:00,
2013-05-04 16:24:00,52.5,42.1,-100.00,North,-999,-999.0,-999.0,67,-99.99,,,-99.99,423.0,HOBO +U30 +Weather +,2013-05-04 20:24:00,
2013-05-04 16:25:00,52.2,41.6,-100.00,North,-999,-999.0,-999.0,67,-99.99,,,-99.99,673.0,HOBO +U30 +Weather +,2013-05-04 20:25:00,
2013-05-04 16:26:00,52.3,42.1,-100.00,North,-999,-999.0,-999.0,68,-99.99,,,-99.99,384.0,HOBO +U30 +Weather +,2013-05-04 20:26:00,
2013-05-04 16:27:00,52.8,42.3,-100.00,North,-999,-999.0,-999.0,67,-99.99,,,-99.99,603.0,HOBO +U30 +Weather +,2013-05-04 20:27:00,
2013-05-04 16:28:00,52.8,42.2,-100.00,North,-999,-999.0,-999.0,67,-99.99,,,-99.99,647.0,HOBO +U30 +Weather +,2013-05-04 20:28:00,
2013-05-04 16:29:00,52.6,42.1,-100.00,North,-999,-999.0,-999.0,67,-99.99,,,-99.99,668.0,HOBO +U30 +Weather +,2013-05-04 20:29:00,
2013-05-04 16:30:00,52.9,42.4,-100.00,North,-999,-999.0,-999.0,67,-99.99,,,-99.99,667.0,HOBO +U30 +Weather +,2013-05-04 20:30:00,
2013-05-04 16:31:00,53.0,42.0,-100.00,North,-999,-999.0,-999.0,66,-99.99,,,-99.99,334.0,HOBO +U30 +Weather +,2013-05-04 20:31:00,
2013-05-04 16:32:00,52.6,41.8,-100.00,North,-999,-999.0,-999.0,66,-99.99,,,-99.99,549.0,HOBO +U30 +Weather +,2013-05-04 20:32:00,
2013-05-04 16:33:00,52.4,41.3,-100.00,North,-999,-999.0,-999.0,65,-99.99,,,-99.99,563.0,HOBO +U30 +Weather +,2013-05-04 20:33:00,
2013-05-04 16:34:00,51.8,40.6,-100.00,North,-999,-999.0,-999.0,65,-99.99,,,-99.99,173.0,HOBO +U30 +Weather +,2013-05-04 20:34:00,
2013-05-04 16:35:00,51.3,40.5,-100.00,North,-999,-999.0,-999.0,66,-99.99,,,-99.99,149.0,HOBO +U30 +Weather +,2013-05-04 20:35:00,
2013-05-04 16:36:00,50.9,40.7,-100.00,North,-999,-999.0,-999.0,67,-99.99,,,-99.99,457.0,HOBO +U30 +Weather +,2013-05-04 20:36:00,
2013-05-04 16:37:00,50.9,41.1,-100.00,North,-999,-999.0,-999.0,68,-99.99,,,-99.99,636.0,HOBO +U30 +Weather +,2013-05-04 20:37:00,
2013-05-04 16:38:00,51.2,41.4,-100.00,North,-999,-999.0,-999.0,68,-99.99,,,-99.99,506.0,HOBO +U30 +Weather +,2013-05-04 20:38:00,
2013-05-04 16:39:00,51.9,42.2,-100.00,North,-999,-999.0,-999.0,69,-99.99,,,-99.99,567.0,HOBO +U30 +Weather +,2013-05-04 20:39:00,
2013-05-04 16:40:00,52.6,42.5,-100.00,North,-999,-999.0,-999.0,68,-99.99,,,-99.99,552.0,HOBO +U30 +Weather +,2013-05-04 20:40:00,
2013-05-04 16:41:00,52.9,42.3,-100.00,North,-999,-999.0,-999.0,67,-99.99,,,-99.99,228.0,HOBO +U30 +Weather +,2013-05-04 20:41:00,
2013-05-04 16:42:00,52.3,41.7,-100.00,North,-999,-999.0,-999.0,67,-99.99,,,-99.99,233.0,HOBO +U30 +Weather +,2013-05-04 20:42:00,
2013-05-04 16:43:00,51.9,41.4,-100.00,North,-999,-999.0,-999.0,67,-99.99,,,-99.99,527.0,HOBO +U30 +Weather +,2013-05-04 20:43:00,
2013-05-04 16:44:00,51.9,41.7,-100.00,North,-999,-999.0,-999.0,67,-99.99,,,-99.99,599.0,HOBO +U30 +Weather +,2013-05-04 20:44:00,
2013-05-04 16:45:00,52.3,42.1,-100.00,North,-999,-999.0,-999.0,68,-99.99,,,-99.99,336.0,HOBO +U30 +Weather +,2013-05-04 20:45:00,
2013-05-04 16:46:00,52.4,42.0,-100.00,North,-999,-999.0,-999.0,67,-99.99,,,-99.99,602.0,HOBO +U30 +Weather +,2013-05-04 20:46:00,
2013-05-04 16:47:00,52.7,42.0,-100.00,North,-999,-999.0,-999.0,66,-99.99,,,-99.99,573.0,HOBO +U30 +Weather +,2013-05-04 20:47:00,
2013-05-04 16:48:00,52.6,41.7,-100.00,North,-999,-999.0,-999.0,66,-99.99,,,-99.99,189.0,HOBO +U30 +Weather +,2013-05-04 20:48:00,
2013-05-04 16:49:00,52.0,41.3,-100.00,North,-999,-999.0,-999.0,66,-99.99,,,-99.99,144.0,HOBO +U30 +Weather +,2013-05-04 20:49:00,
2013-05-04 16:50:00,51.5,41.1,-100.00,North,-999,-999.0,-999.0,67,-99.99,,,-99.99,137.0,HOBO +U30 +Weather +,2013-05-04 20:50:00,
2013-05-04 16:51:00,51.1,41.0,-100.00,North,-999,-999.0,-999.0,68,-99.99,,,-99.99,174.0,HOBO +U30 +Weather +,2013-05-04 20:51:00,
2013-05-04 16:52:00,50.9,41.3,-100.00,North,-999,-999.0,-999.0,69,-99.99,,,-99.99,537.0,HOBO +U30 +Weather +,2013-05-04 20:52:00,
2013-05-04 16:53:00,51.1,41.5,-100.00,North,-999,-999.0,-999.0,69,-99.99,,,-99.99,574.0,HOBO +U30 +Weather +,2013-05-04 20:53:00,
2013-05-04 16:54:00,51.2,41.7,-100.00,North,-999,-999.0,-999.0,69,-99.99,,,-99.99,596.0,HOBO +U30 +Weather +,2013-05-04 20:54:00,
2013-05-04 16:55:00,51.7,42.2,-100.00,North,-999,-999.0,-999.0,69,-99.99,,,-99.99,572.0,HOBO +U30 +Weather +,2013-05-04 20:55:00,
2013-05-04 16:56:00,51.9,42.0,-100.00,North,-999,-999.0,-999.0,69,-99.99,,,-99.99,557.0,HOBO +U30 +Weather +,2013-05-04 20:56:00,
2013-05-04 16:57:00,52.1,42.1,-100.00,North,-999,-999.0,-999.0,68,-99.99,,,-99.99,506.0,HOBO +U30 +Weather +,2013-05-04 20:57:00,
2013-05-04 16:58:00,51.9,41.6,-100.00,North,-999,-999.0,-999.0,67,-99.99,,,-99.99,254.0,HOBO +U30 +Weather +,2013-05-04 20:58:00,
2013-05-04 16:59:00,51.5,41.6,-100.00,North,-999,-999.0,-999.0,68,-99.99,,,-99.99,302.0,HOBO +U30 +Weather +,2013-05-04 20:59:00,
2013-05-04 17:00:00,51.8,42.1,-100.00,North,-999,-999.0,-999.0,69,-99.99,,,-99.99,161.0,HOBO +U30 +Weather +,2013-05-04 21:00:00,
2013-05-04 17:01:00,51.9,41.5,-100.00,North,-999,-999.0,-999.0,67,-99.99,,,-99.99,388.0,HOBO +U30 +Weather +,2013-05-04 21:01:00,
2013-05-04 17:02:00,51.5,41.5,-100.00,North,-999,-999.0,-999.0,68,-99.99,,,-99.99,486.0,HOBO +U30 +Weather +,2013-05-04 21:02:00,
2013-05-04 17:03:00,51.6,41.5,-100.00,North,-999,-999.0,-999.0,68,-99.99,,,-99.99,329.0,HOBO +U30 +Weather +,2013-05-04 21:03:00,
2013-05-04 17:04:00,51.3,41.4,-100.00,North,-999,-999.0,-999.0,68,-99.99,,,-99.99,519.0,HOBO +U30 +Weather +,2013-05-04 21:04:00,
2013-05-04 17:05:00,51.5,41.7,-100.00,North,-999,-999.0,-999.0,68,-99.99,,,-99.99,359.0,HOBO +U30 +Weather +,2013-05-04 21:05:00,
2013-05-04 17:06:00,51.8,41.8,-100.00,North,-999,-999.0,-999.0,68,-99.99,,,-99.99,536.0,HOBO +U30 +Weather +,2013-05-04 21:06:00,
2013-05-04 17:07:00,51.6,41.7,-100.00,North,-999,-999.0,-999.0,68,-99.99,,,-99.99,311.0,HOBO +U30 +Weather +,2013-05-04 21:07:00,
2013-05-04 17:08:00,51.4,41.5,-100.00,North,-999,-999.0,-999.0,68,-99.99,,,-99.99,198.0,HOBO +U30 +Weather +,2013-05-04 21:08:00,
2013-05-04 17:09:00,50.8,41.2,-100.00,North,-999,-999.0,-999.0,69,-99.99,,,-99.99,219.0,HOBO +U30 +Weather +,2013-05-04 21:09:00,
2013-05-04 17:10:00,50.4,41.0,-100.00,North,-999,-999.0,-999.0,70,-99.99,,,-99.99,222.0,HOBO +U30 +Weather +,2013-05-04 21:10:00,
2013-05-04 17:11:00,50.4,41.4,-100.00,North,-999,-999.0,-999.0,71,-99.99,,,-99.99,223.0,HOBO +U30 +Weather +,2013-05-04 21:11:00,
2013-05-04 17:12:00,50.7,41.7,-100.00,North,-999,-999.0,-999.0,71,-99.99,,,-99.99,506.0,HOBO +U30 +Weather +,2013-05-04 21:12:00,
2013-05-04 17:13:00,50.8,41.8,-100.00,North,-999,-999.0,-999.0,71,-99.99,,,-99.99,489.0,HOBO +U30 +Weather +,2013-05-04 21:13:00,
2013-05-04 17:14:00,51.3,42.3,-100.00,North,-999,-999.0,-999.0,71,-99.99,,,-99.99,212.0,HOBO +U30 +Weather +,2013-05-04 21:14:00,
2013-05-04 17:15:00,51.4,42.1,-100.00,North,-999,-999.0,-999.0,70,-99.99,,,-99.99,496.0,HOBO +U30 +Weather +,2013-05-04 21:15:00,
2013-05-04 17:16:00,51.7,42.5,-100.00,North,-999,-999.0,-999.0,70,-99.99,,,-99.99,186.0,HOBO +U30 +Weather +,2013-05-04 21:16:00,
2013-05-04 17:17:00,51.7,41.9,-100.00,North,-999,-999.0,-999.0,69,-99.99,,,-99.99,406.0,HOBO +U30 +Weather +,2013-05-04 21:17:00,
2013-05-04 17:18:00,51.2,41.5,-100.00,North,-999,-999.0,-999.0,69,-99.99,,,-99.99,367.0,HOBO +U30 +Weather +,2013-05-04 21:18:00,
2013-05-04 17:19:00,50.8,41.3,-100.00,North,-999,-999.0,-999.0,69,-99.99,,,-99.99,167.0,HOBO +U30 +Weather +,2013-05-04 21:19:00,
2013-05-04 17:20:00,50.3,41.1,-100.00,North,-999,-999.0,-999.0,70,-99.99,,,-99.99,153.0,HOBO +U30 +Weather +,2013-05-04 21:20:00,
2013-05-04 17:21:00,50.1,41.1,-100.00,North,-999,-999.0,-999.0,70,-99.99,,,-99.99,153.0,HOBO +U30 +Weather +,2013-05-04 21:21:00,
2013-05-04 17:22:00,49.7,41.0,-100.00,North,-999,-999.0,-999.0,71,-99.99,,,-99.99,333.0,HOBO +U30 +Weather +,2013-05-04 21:22:00,
2013-05-04 17:23:00,49.7,41.2,-100.00,North,-999,-999.0,-999.0,72,-99.99,,,-99.99,132.0,HOBO +U30 +Weather +,2013-05-04 21:23:00,
2013-05-04 17:24:00,49.7,41.2,-100.00,North,-999,-999.0,-999.0,72,-99.99,,,-99.99,134.0,HOBO +U30 +Weather +,2013-05-04 21:24:00,
2013-05-04 17:25:00,49.6,41.0,-100.00,North,-999,-999.0,-999.0,72,-99.99,,,-99.99,156.0,HOBO +U30 +Weather +,2013-05-04 21:25:00,
2013-05-04 17:26:00,49.6,41.1,-100.00,North,-999,-999.0,-999.0,72,-99.99,,,-99.99,159.0,HOBO +U30 +Weather +,2013-05-04 21:26:00,
2013-05-04 17:27:00,49.5,41.2,-100.00,North,-999,-999.0,-999.0,72,-99.99,,,-99.99,172.0,HOBO +U30 +Weather +,2013-05-04 21:27:00,
2013-05-04 17:28:00,49.5,41.2,-100.00,North,-999,-999.0,-999.0,73,-99.99,,,-99.99,158.0,HOBO +U30 +Weather +,2013-05-04 21:28:00,
2013-05-04 17:29:00,49.4,41.3,-100.00,North,-999,-999.0,-999.0,73,-99.99,,,-99.99,411.0,HOBO +U30 +Weather +,2013-05-04 21:29:00,
2013-05-04 17:30:00,49.6,41.4,-100.00,North,-999,-999.0,-999.0,73,-99.99,,,-99.99,153.0,HOBO +U30 +Weather +,2013-05-04 21:30:00,
2013-05-04 17:31:00,49.5,41.2,-100.00,North,-999,-999.0,-999.0,73,-99.99,,,-99.99,134.0,HOBO +U30 +Weather +,2013-05-04 21:31:00,
2013-05-04 17:32:00,49.3,41.1,-100.00,North,-999,-999.0,-999.0,73,-99.99,,,-99.99,131.0,HOBO +U30 +Weather +,2013-05-04 21:32:00,
2013-05-04 17:33:00,49.3,41.2,-100.00,North,-999,-999.0,-999.0,73,-99.99,,,-99.99,139.0,HOBO +U30 +Weather +,2013-05-04 21:33:00,
2013-05-04 17:34:00,49.4,41.3,-100.00,North,-999,-999.0,-999.0,73,-99.99,,,-99.99,331.0,HOBO +U30 +Weather +,2013-05-04 21:34:00,
2013-05-04 17:35:00,49.6,41.5,-100.00,North,-999,-999.0,-999.0,73,-99.99,,,-99.99,217.0,HOBO +U30 +Weather +,2013-05-04 21:35:00,
2013-05-04 17:36:00,49.7,41.6,-100.00,North,-999,-999.0,-999.0,73,-99.99,,,-99.99,159.0,HOBO +U30 +Weather +,2013-05-04 21:36:00,
2013-05-04 17:37:00,49.4,41.4,-100.00,North,-999,-999.0,-999.0,73,-99.99,,,-99.99,232.0,HOBO +U30 +Weather +,2013-05-04 21:37:00,
2013-05-04 17:38:00,49.6,41.6,-100.00,North,-999,-999.0,-999.0,73,-99.99,,,-99.99,261.0,HOBO +U30 +Weather +,2013-05-04 21:38:00,
2013-05-04 17:39:00,49.5,41.6,-100.00,North,-999,-999.0,-999.0,73,-99.99,,,-99.99,366.0,HOBO +U30 +Weather +,2013-05-04 21:39:00,
2013-05-04 17:40:00,49.8,41.8,-100.00,North,-999,-999.0,-999.0,73,-99.99,,,-99.99,168.0,HOBO +U30 +Weather +,2013-05-04 21:40:00,
2013-05-04 17:41:00,49.8,41.8,-100.00,North,-999,-999.0,-999.0,73,-99.99,,,-99.99,168.0,HOBO +U30 +Weather +,2013-05-04 21:41:00,
2013-05-04 17:42:00,49.7,41.6,-100.00,North,-999,-999.0,-999.0,73,-99.99,,,-99.99,306.0,HOBO +U30 +Weather +,2013-05-04 21:42:00,
2013-05-04 17:43:00,49.9,41.7,-100.00,North,-999,-999.0,-999.0,73,-99.99,,,-99.99,183.0,HOBO +U30 +Weather +,2013-05-04 21:43:00,
2013-05-04 17:44:00,49.9,41.7,-100.00,North,-999,-999.0,-999.0,73,-99.99,,,-99.99,154.0,HOBO +U30 +Weather +,2013-05-04 21:44:00,
2013-05-04 17:45:00,49.7,41.5,-100.00,North,-999,-999.0,-999.0,73,-99.99,,,-99.99,134.0,HOBO +U30 +Weather +,2013-05-04 21:45:00,
2013-05-04 17:46:00,49.5,41.4,-100.00,North,-999,-999.0,-999.0,73,-99.99,,,-99.99,146.0,HOBO +U30 +Weather +,2013-05-04 21:46:00,
2013-05-04 17:47:00,49.2,41.2,-100.00,North,-999,-999.0,-999.0,73,-99.99,,,-99.99,336.0,HOBO +U30 +Weather +,2013-05-04 21:47:00,
2013-05-04 17:48:00,49.5,41.6,-100.00,North,-999,-999.0,-999.0,74,-99.99,,,-99.99,189.0,HOBO +U30 +Weather +,2013-05-04 21:48:00,
2013-05-04 17:49:00,49.6,41.5,-100.00,North,-999,-999.0,-999.0,73,-99.99,,,-99.99,301.0,HOBO +U30 +Weather +,2013-05-04 21:49:00,
2013-05-04 17:50:00,49.6,41.6,-100.00,North,-999,-999.0,-999.0,74,-99.99,,,-99.99,133.0,HOBO +U30 +Weather +,2013-05-04 21:50:00,
2013-05-04 17:51:00,49.3,41.4,-100.00,North,-999,-999.0,-999.0,73,-99.99,,,-99.99,128.0,HOBO +U30 +Weather +,2013-05-04 21:51:00,
2013-05-04 17:52:00,49.2,41.4,-100.00,North,-999,-999.0,-999.0,74,-99.99,,,-99.99,118.0,HOBO +U30 +Weather +,2013-05-04 21:52:00,
2013-05-04 17:53:00,49.2,41.4,-100.00,North,-999,-999.0,-999.0,74,-99.99,,,-99.99,118.0,HOBO +U30 +Weather +,2013-05-04 21:53:00,
2013-05-04 17:54:00,49.2,41.4,-100.00,North,-999,-999.0,-999.0,74,-99.99,,,-99.99,106.0,HOBO +U30 +Weather +,2013-05-04 21:54:00,
2013-05-04 17:55:00,49.0,41.2,-100.00,North,-999,-999.0,-999.0,74,-99.99,,,-99.99,89.0,HOBO +U30 +Weather +,2013-05-04 21:55:00,
2013-05-04 17:56:00,48.9,41.0,-100.00,North,-999,-999.0,-999.0,74,-99.99,,,-99.99,66.0,HOBO +U30 +Weather +,2013-05-04 21:56:00,
2013-05-04 17:57:00,48.7,40.7,-100.00,North,-999,-999.0,-999.0,73,-99.99,,,-99.99,57.0,HOBO +U30 +Weather +,2013-05-04 21:57:00,
2013-05-04 17:58:00,48.5,40.6,-100.00,North,-999,-999.0,-999.0,74,-99.99,,,-99.99,62.0,HOBO +U30 +Weather +,2013-05-04 21:58:00,
2013-05-04 17:59:00,48.3,40.6,-100.00,North,-999,-999.0,-999.0,74,-99.99,,,-99.99,61.0,HOBO +U30 +Weather +,2013-05-04 21:59:00,
2013-05-04 18:00:00,48.2,40.5,-100.00,North,-999,-999.0,-999.0,74,-99.99,,,-99.99,63.0,HOBO +U30 +Weather +,2013-05-04 22:00:00,
2013-05-04 18:01:00,48.1,40.6,-100.00,North,-999,-999.0,-999.0,74,-99.99,,,-99.99,62.0,HOBO +U30 +Weather +,2013-05-04 22:01:00,
2013-05-04 18:02:00,48.0,40.4,-100.00,North,-999,-999.0,-999.0,74,-99.99,,,-99.99,69.0,HOBO +U30 +Weather +,2013-05-04 22:02:00,
2013-05-04 18:03:00,47.9,40.3,-100.00,North,-999,-999.0,-999.0,74,-99.99,,,-99.99,69.0,HOBO +U30 +Weather +,2013-05-04 22:03:00,
2013-05-04 18:04:00,47.8,40.3,-100.00,North,-999,-999.0,-999.0,75,-99.99,,,-99.99,76.0,HOBO +U30 +Weather +,2013-05-04 22:04:00,
2013-05-04 18:05:00,47.9,40.4,-100.00,North,-999,-999.0,-999.0,75,-99.99,,,-99.99,113.0,HOBO +U30 +Weather +,2013-05-04 22:05:00,
2013-05-04 18:06:00,48.1,40.6,-100.00,North,-999,-999.0,-999.0,75,-99.99,,,-99.99,123.0,HOBO +U30 +Weather +,2013-05-04 22:06:00,
2013-05-04 18:07:00,48.1,40.6,-100.00,North,-999,-999.0,-999.0,74,-99.99,,,-99.99,106.0,HOBO +U30 +Weather +,2013-05-04 22:07:00,
2013-05-04 18:08:00,48.2,40.6,-100.00,North,-999,-999.0,-999.0,74,-99.99,,,-99.99,112.0,HOBO +U30 +Weather +,2013-05-04 22:08:00,
2013-05-04 18:09:00,48.2,40.6,-100.00,North,-999,-999.0,-999.0,74,-99.99,,,-99.99,138.0,HOBO +U30 +Weather +,2013-05-04 22:09:00,
2013-05-04 18:10:00,48.2,40.6,-100.00,North,-999,-999.0,-999.0,74,-99.99,,,-99.99,218.0,HOBO +U30 +Weather +,2013-05-04 22:10:00,
2013-05-04 18:11:00,48.4,40.8,-100.00,North,-999,-999.0,-999.0,74,-99.99,,,-99.99,117.0,HOBO +U30 +Weather +,2013-05-04 22:11:00,
2013-05-04 18:12:00,48.4,40.8,-100.00,North,-999,-999.0,-999.0,74,-99.99,,,-99.99,114.0,HOBO +U30 +Weather +,2013-05-04 22:12:00,
2013-05-04 18:13:00,48.5,40.9,-100.00,North,-999,-999.0,-999.0,75,-99.99,,,-99.99,111.0,HOBO +U30 +Weather +,2013-05-04 22:13:00,
2013-05-04 18:14:00,48.5,40.9,-100.00,North,-999,-999.0,-999.0,74,-99.99,,,-99.99,107.0,HOBO +U30 +Weather +,2013-05-04 22:14:00,
2013-05-04 18:15:00,48.5,41.0,-100.00,North,-999,-999.0,-999.0,75,-99.99,,,-99.99,96.0,HOBO +U30 +Weather +,2013-05-04 22:15:00,
2013-05-04 18:16:00,48.5,41.0,-100.00,North,-999,-999.0,-999.0,75,-99.99,,,-99.99,93.0,HOBO +U30 +Weather +,2013-05-04 22:16:00,
2013-05-04 18:17:00,48.5,41.0,-100.00,North,-999,-999.0,-999.0,75,-99.99,,,-99.99,91.0,HOBO +U30 +Weather +,2013-05-04 22:17:00,
2013-05-04 18:18:00,48.4,41.0,-100.00,North,-999,-999.0,-999.0,75,-99.99,,,-99.99,82.0,HOBO +U30 +Weather +,2013-05-04 22:18:00,
2013-05-04 18:19:00,48.3,40.9,-100.00,North,-999,-999.0,-999.0,75,-99.99,,,-99.99,83.0,HOBO +U30 +Weather +,2013-05-04 22:19:00,
2013-05-04 18:20:00,48.3,41.0,-100.00,North,-999,-999.0,-999.0,75,-99.99,,,-99.99,82.0,HOBO +U30 +Weather +,2013-05-04 22:20:00,
2013-05-04 18:21:00,48.2,40.9,-100.00,North,-999,-999.0,-999.0,75,-99.99,,,-99.99,73.0,HOBO +U30 +Weather +,2013-05-04 22:21:00,
2013-05-04 18:22:00,48.1,40.9,-100.00,North,-999,-999.0,-999.0,75,-99.99,,,-99.99,67.0,HOBO +U30 +Weather +,2013-05-04 22:22:00,
2013-05-04 18:23:00,48.0,40.8,-100.00,North,-999,-999.0,-999.0,76,-99.99,,,-99.99,62.0,HOBO +U30 +Weather +,2013-05-04 22:23:00,
2013-05-04 18:24:00,47.9,40.7,-100.00,North,-999,-999.0,-999.0,75,-99.99,,,-99.99,61.0,HOBO +U30 +Weather +,2013-05-04 22:24:00,
2013-05-04 18:25:00,47.9,40.7,-100.00,North,-999,-999.0,-999.0,76,-99.99,,,-99.99,61.0,HOBO +U30 +Weather +,2013-05-04 22:25:00,
2013-05-04 18:26:00,47.9,40.7,-100.00,North,-999,-999.0,-999.0,76,-99.99,,,-99.99,53.0,HOBO +U30 +Weather +,2013-05-04 22:26:00,
2013-05-04 18:27:00,47.9,40.7,-100.00,North,-999,-999.0,-999.0,76,-99.99,,,-99.99,46.0,HOBO +U30 +Weather +,2013-05-04 22:27:00,
2013-05-04 18:28:00,47.8,40.7,-100.00,North,-999,-999.0,-999.0,76,-99.99,,,-99.99,44.0,HOBO +U30 +Weather +,2013-05-04 22:28:00,
2013-05-04 18:29:00,47.8,40.6,-100.00,North,-999,-999.0,-999.0,76,-99.99,,,-99.99,46.0,HOBO +U30 +Weather +,2013-05-04 22:29:00,
2013-05-04 18:30:00,47.8,40.6,-100.00,North,-999,-999.0,-999.0,76,-99.99,,,-99.99,42.0,HOBO +U30 +Weather +,2013-05-04 22:30:00,
2013-05-04 18:31:00,47.6,40.4,-100.00,North,-999,-999.0,-999.0,75,-99.99,,,-99.99,37.0,HOBO +U30 +Weather +,2013-05-04 22:31:00,
2013-05-04 18:32:00,47.5,40.4,-100.00,North,-999,-999.0,-999.0,76,-99.99,,,-99.99,38.0,HOBO +U30 +Weather +,2013-05-04 22:32:00,
2013-05-04 18:33:00,47.3,40.3,-100.00,North,-999,-999.0,-999.0,76,-99.99,,,-99.99,41.0,HOBO +U30 +Weather +,2013-05-04 22:33:00,
2013-05-04 18:34:00,47.2,40.2,-100.00,North,-999,-999.0,-999.0,76,-99.99,,,-99.99,44.0,HOBO +U30 +Weather +,2013-05-04 22:34:00,
2013-05-04 18:35:00,47.1,40.3,-100.00,North,-999,-999.0,-999.0,77,-99.99,,,-99.99,44.0,HOBO +U30 +Weather +,2013-05-04 22:35:00,
2013-05-04 18:36:00,47.1,40.4,-100.00,North,-999,-999.0,-999.0,77,-99.99,,,-99.99,46.0,HOBO +U30 +Weather +,2013-05-04 22:36:00,
2013-05-04 18:37:00,47.1,40.4,-100.00,North,-999,-999.0,-999.0,77,-99.99,,,-99.99,44.0,HOBO +U30 +Weather +,2013-05-04 22:37:00,
2013-05-04 18:38:00,47.1,40.4,-100.00,North,-999,-999.0,-999.0,77,-99.99,,,-99.99,38.0,HOBO +U30 +Weather +,2013-05-04 22:38:00,
2013-05-04 18:39:00,47.1,40.4,-100.00,North,-999,-999.0,-999.0,77,-99.99,,,-99.99,33.0,HOBO +U30 +Weather +,2013-05-04 22:39:00,
2013-05-04 18:40:00,47.1,40.4,-100.00,North,-999,-999.0,-999.0,77,-99.99,,,-99.99,34.0,HOBO +U30 +Weather +,2013-05-04 22:40:00,
2013-05-04 18:41:00,47.1,40.4,-100.00,North,-999,-999.0,-999.0,77,-99.99,,,-99.99,38.0,HOBO +U30 +Weather +,2013-05-04 22:41:00,
2013-05-04 18:42:00,47.1,40.5,-100.00,North,-999,-999.0,-999.0,77,-99.99,,,-99.99,36.0,HOBO +U30 +Weather +,2013-05-04 22:42:00,
2013-05-04 18:43:00,47.2,40.5,-100.00,North,-999,-999.0,-999.0,77,-99.99,,,-99.99,32.0,HOBO +U30 +Weather +,2013-05-04 22:43:00,
2013-05-04 18:44:00,47.1,40.5,-100.00,North,-999,-999.0,-999.0,77,-99.99,,,-99.99,34.0,HOBO +U30 +Weather +,2013-05-04 22:44:00,
2013-05-04 18:45:00,47.1,40.5,-100.00,North,-999,-999.0,-999.0,77,-99.99,,,-99.99,39.0,HOBO +U30 +Weather +,2013-05-04 22:45:00,
2013-05-04 18:46:00,47.2,40.6,-100.00,North,-999,-999.0,-999.0,77,-99.99,,,-99.99,37.0,HOBO +U30 +Weather +,2013-05-04 22:46:00,
2013-05-04 18:47:00,47.2,40.6,-100.00,North,-999,-999.0,-999.0,77,-99.99,,,-99.99,33.0,HOBO +U30 +Weather +,2013-05-04 22:47:00,
2013-05-04 18:48:00,47.2,40.6,-100.00,North,-999,-999.0,-999.0,77,-99.99,,,-99.99,33.0,HOBO +U30 +Weather +,2013-05-04 22:48:00,
2013-05-04 18:49:00,47.2,40.6,-100.00,North,-999,-999.0,-999.0,77,-99.99,,,-99.99,36.0,HOBO +U30 +Weather +,2013-05-04 22:49:00,
2013-05-04 18:50:00,47.2,40.5,-100.00,North,-999,-999.0,-999.0,77,-99.99,,,-99.99,33.0,HOBO +U30 +Weather +,2013-05-04 22:50:00,
2013-05-04 18:51:00,47.1,40.5,-100.00,North,-999,-999.0,-999.0,77,-99.99,,,-99.99,28.0,HOBO +U30 +Weather +,2013-05-04 22:51:00,
2013-05-04 18:52:00,47.1,40.6,-100.00,North,-999,-999.0,-999.0,78,-99.99,,,-99.99,31.0,HOBO +U30 +Weather +,2013-05-04 22:52:00,
2013-05-04 18:53:00,47.1,40.6,-100.00,North,-999,-999.0,-999.0,78,-99.99,,,-99.99,28.0,HOBO +U30 +Weather +,2013-05-04 22:53:00,
2013-05-04 18:54:00,47.0,40.5,-100.00,North,-999,-999.0,-999.0,78,-99.99,,,-99.99,22.0,HOBO +U30 +Weather +,2013-05-04 22:54:00,
2013-05-04 18:55:00,47.0,40.6,-100.00,North,-999,-999.0,-999.0,78,-99.99,,,-99.99,21.0,HOBO +U30 +Weather +,2013-05-04 22:55:00,
2013-05-04 18:56:00,47.0,40.5,-100.00,North,-999,-999.0,-999.0,78,-99.99,,,-99.99,23.0,HOBO +U30 +Weather +,2013-05-04 22:56:00,
2013-05-04 18:57:00,46.9,40.5,-100.00,North,-999,-999.0,-999.0,78,-99.99,,,-99.99,21.0,HOBO +U30 +Weather +,2013-05-04 22:57:00,
2013-05-04 18:58:00,46.9,40.5,-100.00,North,-999,-999.0,-999.0,78,-99.99,,,-99.99,17.0,HOBO +U30 +Weather +,2013-05-04 22:58:00,
2013-05-04 18:59:00,46.9,40.6,-100.00,North,-999,-999.0,-999.0,78,-99.99,,,-99.99,18.0,HOBO +U30 +Weather +,2013-05-04 22:59:00,
2013-05-04 19:00:00,46.9,40.5,-100.00,North,-999,-999.0,-999.0,78,-99.99,,,-99.99,17.0,HOBO +U30 +Weather +,2013-05-04 23:00:00,
2013-05-04 19:01:00,46.8,40.5,-100.00,North,-999,-999.0,-999.0,78,-99.99,,,-99.99,16.0,HOBO +U30 +Weather +,2013-05-04 23:01:00,
2013-05-04 19:02:00,46.8,40.5,-100.00,North,-999,-999.0,-999.0,78,-99.99,,,-99.99,14.0,HOBO +U30 +Weather +,2013-05-04 23:02:00,
2013-05-04 19:03:00,46.7,40.4,-100.00,North,-999,-999.0,-999.0,78,-99.99,,,-99.99,12.0,HOBO +U30 +Weather +,2013-05-04 23:03:00,
2013-05-04 19:04:00,46.7,40.4,-100.00,North,-999,-999.0,-999.0,78,-99.99,,,-99.99,12.0,HOBO +U30 +Weather +,2013-05-04 23:04:00,
2013-05-04 19:05:00,46.7,40.4,-100.00,North,-999,-999.0,-999.0,78,-99.99,,,-99.99,11.0,HOBO +U30 +Weather +,2013-05-04 23:05:00,
2013-05-04 19:06:00,46.7,40.4,-100.00,North,-999,-999.0,-999.0,78,-99.99,,,-99.99,9.0,HOBO +U30 +Weather +,2013-05-04 23:06:00,
2013-05-04 19:07:00,46.7,40.4,-100.00,North,-999,-999.0,-999.0,78,-99.99,,,-99.99,9.0,HOBO +U30 +Weather +,2013-05-04 23:07:00,
2013-05-04 19:08:00,46.6,40.4,-100.00,North,-999,-999.0,-999.0,78,-99.99,,,-99.99,8.0,HOBO +U30 +Weather +,2013-05-04 23:08:00,
2013-05-04 19:09:00,46.6,40.5,-100.00,North,-999,-999.0,-999.0,79,-99.99,,,-99.99,7.0,HOBO +U30 +Weather +,2013-05-04 23:09:00,
2013-05-04 19:10:00,46.5,40.4,-100.00,North,-999,-999.0,-999.0,79,-99.99,,,-99.99,7.0,HOBO +U30 +Weather +,2013-05-04 23:10:00,
2013-05-04 19:11:00,46.4,40.3,-100.00,North,-999,-999.0,-999.0,79,-99.99,,,-99.99,7.0,HOBO +U30 +Weather +,2013-05-04 23:11:00,
2013-05-04 19:12:00,46.4,40.3,-100.00,North,-999,-999.0,-999.0,79,-99.99,,,-99.99,6.0,HOBO +U30 +Weather +,2013-05-04 23:12:00,
2013-05-04 19:13:00,46.3,40.3,-100.00,North,-999,-999.0,-999.0,79,-99.99,,,-99.99,6.0,HOBO +U30 +Weather +,2013-05-04 23:13:00,
2013-05-04 19:14:00,46.3,40.3,-100.00,North,-999,-999.0,-999.0,79,-99.99,,,-99.99,4.0,HOBO +U30 +Weather +,2013-05-04 23:14:00,
2013-05-04 19:15:00,46.2,40.2,-100.00,North,-999,-999.0,-999.0,79,-99.99,,,-99.99,4.0,HOBO +U30 +Weather +,2013-05-04 23:15:00,
2013-05-04 19:16:00,46.2,40.2,-100.00,North,-999,-999.0,-999.0,79,-99.99,,,-99.99,4.0,HOBO +U30 +Weather +,2013-05-04 23:16:00,
2013-05-04 19:17:00,46.2,40.3,-100.00,North,-999,-999.0,-999.0,79,-99.99,,,-99.99,3.0,HOBO +U30 +Weather +,2013-05-04 23:17:00,
2013-05-04 19:18:00,46.2,40.3,-100.00,North,-999,-999.0,-999.0,79,-99.99,,,-99.99,3.0,HOBO +U30 +Weather +,2013-05-04 23:18:00,
2013-05-04 19:19:00,46.1,40.2,-100.00,North,-999,-999.0,-999.0,79,-99.99,,,-99.99,3.0,HOBO +U30 +Weather +,2013-05-04 23:19:00,
2013-05-04 19:20:00,46.0,40.2,-100.00,North,-999,-999.0,-999.0,79,-99.99,,,-99.99,2.0,HOBO +U30 +Weather +,2013-05-04 23:20:00,
2013-05-04 19:21:00,46.0,40.1,-100.00,North,-999,-999.0,-999.0,79,-99.99,,,-99.99,2.0,HOBO +U30 +Weather +,2013-05-04 23:21:00,
2013-05-04 19:22:00,45.9,40.1,-100.00,North,-999,-999.0,-999.0,79,-99.99,,,-99.99,2.0,HOBO +U30 +Weather +,2013-05-04 23:22:00,
2013-05-04 19:23:00,45.9,40.1,-100.00,North,-999,-999.0,-999.0,80,-99.99,,,-99.99,2.0,HOBO +U30 +Weather +,2013-05-04 23:23:00,
2013-05-04 19:24:00,45.8,40.1,-100.00,North,-999,-999.0,-999.0,80,-99.99,,,-99.99,1.0,HOBO +U30 +Weather +,2013-05-04 23:24:00,
2013-05-04 19:25:00,45.8,40.1,-100.00,North,-999,-999.0,-999.0,80,-99.99,,,-99.99,1.0,HOBO +U30 +Weather +,2013-05-04 23:25:00,
2013-05-04 19:26:00,45.8,40.0,-100.00,North,-999,-999.0,-999.0,80,-99.99,,,-99.99,1.0,HOBO +U30 +Weather +,2013-05-04 23:26:00,
2013-05-04 19:27:00,45.7,40.0,-100.00,North,-999,-999.0,-999.0,80,-99.99,,,-99.99,1.0,HOBO +U30 +Weather +,2013-05-04 23:27:00,
2013-05-04 19:28:00,45.7,39.9,-100.00,North,-999,-999.0,-999.0,80,-99.99,,,-99.99,1.0,HOBO +U30 +Weather +,2013-05-04 23:28:00,
2013-05-04 19:29:00,45.6,39.9,-100.00,North,-999,-999.0,-999.0,80,-99.99,,,-99.99,1.0,HOBO +U30 +Weather +,2013-05-04 23:29:00,
2013-05-04 19:30:00,45.5,39.9,-100.00,North,-999,-999.0,-999.0,80,-99.99,,,-99.99,1.0,HOBO +U30 +Weather +,2013-05-04 23:30:00,
2013-05-04 19:31:00,45.5,39.9,-100.00,North,-999,-999.0,-999.0,80,-99.99,,,-99.99,1.0,HOBO +U30 +Weather +,2013-05-04 23:31:00,
2013-05-04 19:32:00,45.4,39.9,-100.00,North,-999,-999.0,-999.0,80,-99.99,,,-99.99,1.0,HOBO +U30 +Weather +,2013-05-04 23:32:00,
2013-05-04 19:33:00,45.4,39.8,-100.00,North,-999,-999.0,-999.0,80,-99.99,,,-99.99,1.0,HOBO +U30 +Weather +,2013-05-04 23:33:00,
2013-05-04 19:34:00,45.3,39.8,-100.00,North,-999,-999.0,-999.0,81,-99.99,,,-99.99,1.0,HOBO +U30 +Weather +,2013-05-04 23:34:00,
2013-05-04 19:35:00,45.2,39.8,-100.00,North,-999,-999.0,-999.0,81,-99.99,,,-99.99,1.0,HOBO +U30 +Weather +,2013-05-04 23:35:00,
2013-05-04 19:36:00,45.2,39.8,-100.00,North,-999,-999.0,-999.0,81,-99.99,,,-99.99,1.0,HOBO +U30 +Weather +,2013-05-04 23:36:00,
2013-05-04 19:37:00,45.1,39.8,-100.00,North,-999,-999.0,-999.0,81,-99.99,,,-99.99,1.0,HOBO +U30 +Weather +,2013-05-04 23:37:00,
2013-05-04 19:38:00,45.0,39.7,-100.00,North,-999,-999.0,-999.0,81,-99.99,,,-99.99,1.0,HOBO +U30 +Weather +,2013-05-04 23:38:00,
2013-05-04 19:39:00,45.0,39.8,-100.00,North,-999,-999.0,-999.0,81,-99.99,,,-99.99,1.0,HOBO +U30 +Weather +,2013-05-04 23:39:00,
2013-05-04 19:40:00,45.0,39.7,-100.00,North,-999,-999.0,-999.0,81,-99.99,,,-99.99,1.0,HOBO +U30 +Weather +,2013-05-04 23:40:00,
2013-05-04 19:41:00,44.9,39.7,-100.00,North,-999,-999.0,-999.0,81,-99.99,,,-99.99,1.0,HOBO +U30 +Weather +,2013-05-04 23:41:00,
2013-05-04 19:42:00,44.9,39.7,-100.00,North,-999,-999.0,-999.0,81,-99.99,,,-99.99,1.0,HOBO +U30 +Weather +,2013-05-04 23:42:00,
2013-05-04 19:43:00,44.9,39.7,-100.00,North,-999,-999.0,-999.0,81,-99.99,,,-99.99,1.0,HOBO +U30 +Weather +,2013-05-04 23:43:00,
2013-05-04 19:44:00,44.8,39.7,-100.00,North,-999,-999.0,-999.0,81,-99.99,,,-99.99,1.0,HOBO +U30 +Weather +,2013-05-04 23:44:00,
2013-05-04 19:45:00,44.8,39.6,-100.00,North,-999,-999.0,-999.0,82,-99.99,,,-99.99,1.0,HOBO +U30 +Weather +,2013-05-04 23:45:00,
2013-05-04 19:46:00,44.7,39.6,-100.00,North,-999,-999.0,-999.0,82,-99.99,,,-99.99,1.0,HOBO +U30 +Weather +,2013-05-04 23:46:00,
2013-05-04 19:47:00,44.7,39.6,-100.00,North,-999,-999.0,-999.0,82,-99.99,,,-99.99,1.0,HOBO +U30 +Weather +,2013-05-04 23:47:00,
2013-05-04 19:48:00,44.6,39.5,-100.00,North,-999,-999.0,-999.0,82,-99.99,,,-99.99,1.0,HOBO +U30 +Weather +,2013-05-04 23:48:00,
2013-05-04 19:49:00,44.5,39.5,-100.00,North,-999,-999.0,-999.0,82,-99.99,,,-99.99,1.0,HOBO +U30 +Weather +,2013-05-04 23:49:00,
2013-05-04 19:50:00,44.3,39.3,-100.00,North,-999,-999.0,-999.0,82,-99.99,,,-99.99,1.0,HOBO +U30 +Weather +,2013-05-04 23:50:00,
2013-05-04 19:51:00,44.2,39.3,-100.00,North,-999,-999.0,-999.0,82,-99.99,,,-99.99,1.0,HOBO +U30 +Weather +,2013-05-04 23:51:00,
2013-05-04 19:52:00,44.1,39.2,-100.00,North,-999,-999.0,-999.0,82,-99.99,,,-99.99,1.0,HOBO +U30 +Weather +,2013-05-04 23:52:00,
2013-05-04 19:53:00,44.0,39.2,-100.00,North,-999,-999.0,-999.0,83,-99.99,,,-99.99,1.0,HOBO +U30 +Weather +,2013-05-04 23:53:00,
2013-05-04 19:54:00,43.9,39.1,-100.00,North,-999,-999.0,-999.0,83,-99.99,,,-99.99,1.0,HOBO +U30 +Weather +,2013-05-04 23:54:00,
2013-05-04 19:55:00,43.9,39.2,-100.00,North,-999,-999.0,-999.0,83,-99.99,,,-99.99,1.0,HOBO +U30 +Weather +,2013-05-04 23:55:00,
2013-05-04 19:56:00,43.8,39.1,-100.00,North,-999,-999.0,-999.0,83,-99.99,,,-99.99,1.0,HOBO +U30 +Weather +,2013-05-04 23:56:00,
2013-05-04 19:57:00,43.7,39.0,-100.00,North,-999,-999.0,-999.0,83,-99.99,,,-99.99,1.0,HOBO +U30 +Weather +,2013-05-04 23:57:00,
2013-05-04 19:58:00,43.6,38.9,-100.00,North,-999,-999.0,-999.0,83,-99.99,,,-99.99,1.0,HOBO +U30 +Weather +,2013-05-04 23:58:00,
2013-05-04 19:59:00,43.5,38.9,-100.00,North,-999,-999.0,-999.0,83,-99.99,,,-99.99,1.0,HOBO +U30 +Weather +,2013-05-04 23:59:00,
2013-05-04 20:00:00,43.3,38.8,-100.00,North,-999,-999.0,-999.0,83,-99.99,,,-99.99,1.0,HOBO +U30 +Weather +,2013-05-05 00:00:00,
2013-05-04 20:01:00,43.2,38.8,-100.00,North,-999,-999.0,-999.0,84,-99.99,,,-99.99,1.0,HOBO +U30 +Weather +,2013-05-05 00:01:00,
2013-05-04 20:02:00,43.2,38.9,-100.00,North,-999,-999.0,-999.0,84,-99.99,,,-99.99,1.0,HOBO +U30 +Weather +,2013-05-05 00:02:00,
2013-05-04 20:03:00,43.3,39.0,-100.00,North,-999,-999.0,-999.0,84,-99.99,,,-99.99,1.0,HOBO +U30 +Weather +,2013-05-05 00:03:00,
2013-05-04 20:04:00,43.4,39.0,-100.00,North,-999,-999.0,-999.0,84,-99.99,,,-99.99,1.0,HOBO +U30 +Weather +,2013-05-05 00:04:00,
2013-05-04 20:05:00,43.4,39.0,-100.00,North,-999,-999.0,-999.0,84,-99.99,,,-99.99,1.0,HOBO +U30 +Weather +,2013-05-05 00:05:00,
2013-05-04 20:06:00,43.4,39.0,-100.00,North,-999,-999.0,-999.0,84,-99.99,,,-99.99,1.0,HOBO +U30 +Weather +,2013-05-05 00:06:00,
2013-05-04 20:07:00,43.4,38.9,-100.00,North,-999,-999.0,-999.0,84,-99.99,,,-99.99,1.0,HOBO +U30 +Weather +,2013-05-05 00:07:00,
2013-05-04 20:08:00,43.3,38.9,-100.00,North,-999,-999.0,-999.0,84,-99.99,,,-99.99,1.0,HOBO +U30 +Weather +,2013-05-05 00:08:00,
2013-05-04 20:09:00,43.1,38.8,-100.00,North,-999,-999.0,-999.0,84,-99.99,,,-99.99,1.0,HOBO +U30 +Weather +,2013-05-05 00:09:00,
2013-05-04 20:10:00,43.0,38.6,-100.00,North,-999,-999.0,-999.0,84,-99.99,,,-99.99,1.0,HOBO +U30 +Weather +,2013-05-05 00:10:00,
2013-05-04 20:11:00,42.9,38.6,-100.00,North,-999,-999.0,-999.0,84,-99.99,,,-99.99,1.0,HOBO +U30 +Weather +,2013-05-05 00:11:00,
2013-05-04 20:12:00,42.7,38.5,-100.00,North,-999,-999.0,-999.0,84,-99.99,,,-99.99,1.0,HOBO +U30 +Weather +,2013-05-05 00:12:00,
2013-05-04 20:13:00,42.6,38.4,-100.00,North,-999,-999.0,-999.0,85,-99.99,,,-99.99,1.0,HOBO +U30 +Weather +,2013-05-05 00:13:00,
2013-05-04 20:14:00,42.4,38.4,-100.00,North,-999,-999.0,-999.0,85,-99.99,,,-99.99,1.0,HOBO +U30 +Weather +,2013-05-05 00:14:00,
2013-05-04 20:15:00,42.3,38.2,-100.00,North,-999,-999.0,-999.0,85,-99.99,,,-99.99,1.0,HOBO +U30 +Weather +,2013-05-05 00:15:00,
2013-05-04 20:16:00,42.2,38.2,-100.00,North,-999,-999.0,-999.0,85,-99.99,,,-99.99,1.0,HOBO +U30 +Weather +,2013-05-05 00:16:00,
2013-05-04 20:17:00,42.0,38.0,-100.00,North,-999,-999.0,-999.0,85,-99.99,,,-99.99,1.0,HOBO +U30 +Weather +,2013-05-05 00:17:00,
2013-05-04 20:18:00,41.8,37.9,-100.00,North,-999,-999.0,-999.0,85,-99.99,,,-99.99,1.0,HOBO +U30 +Weather +,2013-05-05 00:18:00,
2013-05-04 20:19:00,41.7,37.8,-100.00,North,-999,-999.0,-999.0,85,-99.99,,,-99.99,1.0,HOBO +U30 +Weather +,2013-05-05 00:19:00,
2013-05-04 20:20:00,41.6,37.8,-100.00,North,-999,-999.0,-999.0,86,-99.99,,,-99.99,1.0,HOBO +U30 +Weather +,2013-05-05 00:20:00,
2013-05-04 20:21:00,41.5,37.8,-100.00,North,-999,-999.0,-999.0,86,-99.99,,,-99.99,1.0,HOBO +U30 +Weather +,2013-05-05 00:21:00,
2013-05-04 20:22:00,41.4,37.7,-100.00,North,-999,-999.0,-999.0,86,-99.99,,,-99.99,1.0,HOBO +U30 +Weather +,2013-05-05 00:22:00,
2013-05-04 20:23:00,41.3,37.6,-100.00,North,-999,-999.0,-999.0,86,-99.99,,,-99.99,1.0,HOBO +U30 +Weather +,2013-05-05 00:23:00,
2013-05-04 20:24:00,41.1,37.5,-100.00,North,-999,-999.0,-999.0,86,-99.99,,,-99.99,1.0,HOBO +U30 +Weather +,2013-05-05 00:24:00,
2013-05-04 20:25:00,41.0,37.3,-100.00,North,-999,-999.0,-999.0,86,-99.99,,,-99.99,1.0,HOBO +U30 +Weather +,2013-05-05 00:25:00,
2013-05-04 20:26:00,40.9,37.3,-100.00,North,-999,-999.0,-999.0,86,-99.99,,,-99.99,1.0,HOBO +U30 +Weather +,2013-05-05 00:26:00,
2013-05-04 20:27:00,40.8,37.2,-100.00,North,-999,-999.0,-999.0,87,-99.99,,,-99.99,1.0,HOBO +U30 +Weather +,2013-05-05 00:27:00,
2013-05-04 20:28:00,40.7,37.2,-100.00,North,-999,-999.0,-999.0,87,-99.99,,,-99.99,1.0,HOBO +U30 +Weather +,2013-05-05 00:28:00,
2013-05-04 20:29:00,40.6,37.2,-100.00,North,-999,-999.0,-999.0,87,-99.99,,,-99.99,1.0,HOBO +U30 +Weather +,2013-05-05 00:29:00,
2013-05-04 20:30:00,40.5,37.1,-100.00,North,-999,-999.0,-999.0,87,-99.99,,,-99.99,1.0,HOBO +U30 +Weather +,2013-05-05 00:30:00,
2013-05-04 20:31:00,40.4,37.0,-100.00,North,-999,-999.0,-999.0,87,-99.99,,,-99.99,1.0,HOBO +U30 +Weather +,2013-05-05 00:31:00,
2013-05-04 20:32:00,40.2,36.9,-100.00,North,-999,-999.0,-999.0,87,-99.99,,,-99.99,1.0,HOBO +U30 +Weather +,2013-05-05 00:32:00,
2013-05-04 20:33:00,40.1,36.9,-100.00,North,-999,-999.0,-999.0,88,-99.99,,,-99.99,1.0,HOBO +U30 +Weather +,2013-05-05 00:33:00,
2013-05-04 20:34:00,40.1,36.9,-100.00,North,-999,-999.0,-999.0,88,-99.99,,,-99.99,1.0,HOBO +U30 +Weather +,2013-05-05 00:34:00,
2013-05-04 20:35:00,40.1,36.9,-100.00,North,-999,-999.0,-999.0,88,-99.99,,,-99.99,1.0,HOBO +U30 +Weather +,2013-05-05 00:35:00,
2013-05-04 20:36:00,40.1,36.8,-100.00,North,-999,-999.0,-999.0,87,-99.99,,,-99.99,1.0,HOBO +U30 +Weather +,2013-05-05 00:36:00,
2013-05-04 20:37:00,40.0,36.7,-100.00,North,-999,-999.0,-999.0,87,-99.99,,,-99.99,1.0,HOBO +U30 +Weather +,2013-05-05 00:37:00,
2013-05-04 20:38:00,39.9,36.7,-100.00,North,-999,-999.0,-999.0,88,-99.99,,,-99.99,1.0,HOBO +U30 +Weather +,2013-05-05 00:38:00,
2013-05-04 20:39:00,39.9,36.6,-100.00,North,-999,-999.0,-999.0,87,-99.99,,,-99.99,1.0,HOBO +U30 +Weather +,2013-05-05 00:39:00,
2013-05-04 20:40:00,39.9,36.6,-100.00,North,-999,-999.0,-999.0,87,-99.99,,,-99.99,1.0,HOBO +U30 +Weather +,2013-05-05 00:40:00,
2013-05-04 20:41:00,39.8,36.5,-100.00,North,-999,-999.0,-999.0,87,-99.99,,,-99.99,1.0,HOBO +U30 +Weather +,2013-05-05 00:41:00,
2013-05-04 20:42:00,39.8,36.6,-100.00,North,-999,-999.0,-999.0,88,-99.99,,,-99.99,1.0,HOBO +U30 +Weather +,2013-05-05 00:42:00,
2013-05-04 20:43:00,39.7,36.4,-100.00,North,-999,-999.0,-999.0,87,-99.99,,,-99.99,1.0,HOBO +U30 +Weather +,2013-05-05 00:43:00,
2013-05-04 20:44:00,39.8,36.5,-100.00,North,-999,-999.0,-999.0,88,-99.99,,,-99.99,1.0,HOBO +U30 +Weather +,2013-05-05 00:44:00,
2013-05-04 20:45:00,39.8,36.5,-100.00,North,-999,-999.0,-999.0,88,-99.99,,,-99.99,1.0,HOBO +U30 +Weather +,2013-05-05 00:45:00,
2013-05-04 20:46:00,39.8,36.5,-100.00,North,-999,-999.0,-999.0,88,-99.99,,,-99.99,1.0,HOBO +U30 +Weather +,2013-05-05 00:46:00,
2013-05-04 20:47:00,39.7,36.5,-100.00,North,-999,-999.0,-999.0,87,-99.99,,,-99.99,1.0,HOBO +U30 +Weather +,2013-05-05 00:47:00,
2013-05-04 20:48:00,39.7,36.4,-100.00,North,-999,-999.0,-999.0,87,-99.99,,,-99.99,1.0,HOBO +U30 +Weather +,2013-05-05 00:48:00,
2013-05-04 20:49:00,39.7,36.4,-100.00,North,-999,-999.0,-999.0,87,-99.99,,,-99.99,1.0,HOBO +U30 +Weather +,2013-05-05 00:49:00,
2013-05-04 20:50:00,39.5,36.2,-100.00,North,-999,-999.0,-999.0,87,-99.99,,,-99.99,1.0,HOBO +U30 +Weather +,2013-05-05 00:50:00,
2013-05-04 20:51:00,39.5,36.1,-100.00,North,-999,-999.0,-999.0,87,-99.99,,,-99.99,1.0,HOBO +U30 +Weather +,2013-05-05 00:51:00,
2013-05-04 20:52:00,39.3,36.0,-100.00,North,-999,-999.0,-999.0,87,-99.99,,,-99.99,1.0,HOBO +U30 +Weather +,2013-05-05 00:52:00,
2013-05-04 20:53:00,39.2,35.8,-100.00,North,-999,-999.0,-999.0,87,-99.99,,,-99.99,1.0,HOBO +U30 +Weather +,2013-05-05 00:53:00,
2013-05-04 20:54:00,39.0,35.7,-100.00,North,-999,-999.0,-999.0,87,-99.99,,,-99.99,1.0,HOBO +U30 +Weather +,2013-05-05 00:54:00,
2013-05-04 20:55:00,38.9,35.7,-100.00,North,-999,-999.0,-999.0,87,-99.99,,,-99.99,1.0,HOBO +U30 +Weather +,2013-05-05 00:55:00,
2013-05-04 20:56:00,38.8,35.6,-100.00,North,-999,-999.0,-999.0,88,-99.99,,,-99.99,1.0,HOBO +U30 +Weather +,2013-05-05 00:56:00,
2013-05-04 20:57:00,38.8,35.6,-100.00,North,-999,-999.0,-999.0,88,-99.99,,,-99.99,1.0,HOBO +U30 +Weather +,2013-05-05 00:57:00,
2013-05-04 20:58:00,38.8,35.6,-100.00,North,-999,-999.0,-999.0,88,-99.99,,,-99.99,1.0,HOBO +U30 +Weather +,2013-05-05 00:58:00,
2013-05-04 20:59:00,38.7,35.6,-100.00,North,-999,-999.0,-999.0,88,-99.99,,,-99.99,1.0,HOBO +U30 +Weather +,2013-05-05 00:59:00,
2013-05-04 21:00:00,38.6,35.5,-100.00,North,-999,-999.0,-999.0,88,-99.99,,,-99.99,1.0,HOBO +U30 +Weather +,2013-05-05 01:00:00,
2013-05-04 21:01:00,38.5,35.4,-100.00,North,-999,-999.0,-999.0,88,-99.99,,,-99.99,1.0,HOBO +U30 +Weather +,2013-05-05 01:01:00,
2013-05-04 21:02:00,38.5,35.4,-100.00,North,-999,-999.0,-999.0,88,-99.99,,,-99.99,1.0,HOBO +U30 +Weather +,2013-05-05 01:02:00,
2013-05-04 21:03:00,38.5,35.5,-100.00,North,-999,-999.0,-999.0,88,-99.99,,,-99.99,1.0,HOBO +U30 +Weather +,2013-05-05 01:03:00,
2013-05-04 21:04:00,38.5,35.5,-100.00,North,-999,-999.0,-999.0,88,-99.99,,,-99.99,1.0,HOBO +U30 +Weather +,2013-05-05 01:04:00,
2013-05-04 21:05:00,38.4,35.4,-100.00,North,-999,-999.0,-999.0,88,-99.99,,,-99.99,1.0,HOBO +U30 +Weather +,2013-05-05 01:05:00,
2013-05-04 21:06:00,38.3,35.3,-100.00,North,-999,-999.0,-999.0,88,-99.99,,,-99.99,1.0,HOBO +U30 +Weather +,2013-05-05 01:06:00,
2013-05-04 21:07:00,38.3,35.4,-100.00,North,-999,-999.0,-999.0,89,-99.99,,,-99.99,1.0,HOBO +U30 +Weather +,2013-05-05 01:07:00,
2013-05-04 21:08:00,38.4,35.5,-100.00,North,-999,-999.0,-999.0,89,-99.99,,,-99.99,1.0,HOBO +U30 +Weather +,2013-05-05 01:08:00,
2013-05-04 21:09:00,38.3,35.4,-100.00,North,-999,-999.0,-999.0,89,-99.99,,,-99.99,1.0,HOBO +U30 +Weather +,2013-05-05 01:09:00,
2013-05-04 21:10:00,38.3,35.4,-100.00,North,-999,-999.0,-999.0,89,-99.99,,,-99.99,1.0,HOBO +U30 +Weather +,2013-05-05 01:10:00,
2013-05-04 21:11:00,38.2,35.3,-100.00,North,-999,-999.0,-999.0,89,-99.99,,,-99.99,1.0,HOBO +U30 +Weather +,2013-05-05 01:11:00,
2013-05-04 21:12:00,38.1,35.2,-100.00,North,-999,-999.0,-999.0,89,-99.99,,,-99.99,1.0,HOBO +U30 +Weather +,2013-05-05 01:12:00,
2013-05-04 21:13:00,38.1,35.2,-100.00,North,-999,-999.0,-999.0,89,-99.99,,,-99.99,1.0,HOBO +U30 +Weather +,2013-05-05 01:13:00,
2013-05-04 21:14:00,38.0,35.1,-100.00,North,-999,-999.0,-999.0,89,-99.99,,,-99.99,1.0,HOBO +U30 +Weather +,2013-05-05 01:14:00,
2013-05-04 21:15:00,38.0,35.2,-100.00,North,-999,-999.0,-999.0,89,-99.99,,,-99.99,1.0,HOBO +U30 +Weather +,2013-05-05 01:15:00,
2013-05-04 21:16:00,37.9,35.1,-100.00,North,-999,-999.0,-999.0,89,-99.99,,,-99.99,1.0,HOBO +U30 +Weather +,2013-05-05 01:16:00,
2013-05-04 21:17:00,37.8,35.0,-100.00,North,-999,-999.0,-999.0,89,-99.99,,,-99.99,1.0,HOBO +U30 +Weather +,2013-05-05 01:17:00,
2013-05-04 21:18:00,37.7,34.9,-100.00,North,-999,-999.0,-999.0,89,-99.99,,,-99.99,1.0,HOBO +U30 +Weather +,2013-05-05 01:18:00,
2013-05-04 21:19:00,37.7,35.0,-100.00,North,-999,-999.0,-999.0,89,-99.99,,,-99.99,1.0,HOBO +U30 +Weather +,2013-05-05 01:19:00,
2013-05-04 21:20:00,37.7,35.0,-100.00,North,-999,-999.0,-999.0,89,-99.99,,,-99.99,1.0,HOBO +U30 +Weather +,2013-05-05 01:20:00,
2013-05-04 21:21:00,37.7,35.0,-100.00,North,-999,-999.0,-999.0,89,-99.99,,,-99.99,1.0,HOBO +U30 +Weather +,2013-05-05 01:21:00,
2013-05-04 21:22:00,37.8,35.1,-100.00,North,-999,-999.0,-999.0,89,-99.99,,,-99.99,1.0,HOBO +U30 +Weather +,2013-05-05 01:22:00,
2013-05-04 21:23:00,37.8,35.0,-100.00,North,-999,-999.0,-999.0,89,-99.99,,,-99.99,1.0,HOBO +U30 +Weather +,2013-05-05 01:23:00,
2013-05-04 21:24:00,37.7,35.0,-100.00,North,-999,-999.0,-999.0,89,-99.99,,,-99.99,1.0,HOBO +U30 +Weather +,2013-05-05 01:24:00,
2013-05-04 21:25:00,37.7,35.0,-100.00,North,-999,-999.0,-999.0,89,-99.99,,,-99.99,1.0,HOBO +U30 +Weather +,2013-05-05 01:25:00,
2013-05-04 21:26:00,37.7,34.9,-100.00,North,-999,-999.0,-999.0,89,-99.99,,,-99.99,1.0,HOBO +U30 +Weather +,2013-05-05 01:26:00,
2013-05-04 21:27:00,37.7,35.0,-100.00,North,-999,-999.0,-999.0,89,-99.99,,,-99.99,1.0,HOBO +U30 +Weather +,2013-05-05 01:27:00,
2013-05-04 21:28:00,37.7,34.9,-100.00,North,-999,-999.0,-999.0,89,-99.99,,,-99.99,1.0,HOBO +U30 +Weather +,2013-05-05 01:28:00,
2013-05-04 21:29:00,37.7,34.8,-100.00,North,-999,-999.0,-999.0,89,-99.99,,,-99.99,1.0,HOBO +U30 +Weather +,2013-05-05 01:29:00,
2013-05-04 21:30:00,37.6,34.8,-100.00,North,-999,-999.0,-999.0,89,-99.99,,,-99.99,1.0,HOBO +U30 +Weather +,2013-05-05 01:30:00,
2013-05-04 21:31:00,37.6,34.7,-100.00,North,-999,-999.0,-999.0,89,-99.99,,,-99.99,1.0,HOBO +U30 +Weather +,2013-05-05 01:31:00,
2013-05-04 21:32:00,37.5,34.7,-100.00,North,-999,-999.0,-999.0,89,-99.99,,,-99.99,1.0,HOBO +U30 +Weather +,2013-05-05 01:32:00,
2013-05-04 21:33:00,37.5,34.6,-100.00,North,-999,-999.0,-999.0,89,-99.99,,,-99.99,1.0,HOBO +U30 +Weather +,2013-05-05 01:33:00,
2013-05-04 21:34:00,37.5,34.6,-100.00,North,-999,-999.0,-999.0,89,-99.99,,,-99.99,1.0,HOBO +U30 +Weather +,2013-05-05 01:34:00,
2013-05-04 21:35:00,37.4,34.6,-100.00,North,-999,-999.0,-999.0,89,-99.99,,,-99.99,1.0,HOBO +U30 +Weather +,2013-05-05 01:35:00,
2013-05-04 21:36:00,37.4,34.6,-100.00,North,-999,-999.0,-999.0,89,-99.99,,,-99.99,1.0,HOBO +U30 +Weather +,2013-05-05 01:36:00,
2013-05-04 21:37:00,37.3,34.5,-100.00,North,-999,-999.0,-999.0,89,-99.99,,,-99.99,1.0,HOBO +U30 +Weather +,2013-05-05 01:37:00,
2013-05-04 21:38:00,37.3,34.6,-100.00,North,-999,-999.0,-999.0,89,-99.99,,,-99.99,1.0,HOBO +U30 +Weather +,2013-05-05 01:38:00,
2013-05-04 21:39:00,37.3,34.6,-100.00,North,-999,-999.0,-999.0,89,-99.99,,,-99.99,1.0,HOBO +U30 +Weather +,2013-05-05 01:39:00,
2013-05-04 21:40:00,37.3,34.5,-100.00,North,-999,-999.0,-999.0,89,-99.99,,,-99.99,1.0,HOBO +U30 +Weather +,2013-05-05 01:40:00,
2013-05-04 21:41:00,37.3,34.6,-100.00,North,-999,-999.0,-999.0,89,-99.99,,,-99.99,1.0,HOBO +U30 +Weather +,2013-05-05 01:41:00,
2013-05-04 21:42:00,37.3,34.6,-100.00,North,-999,-999.0,-999.0,89,-99.99,,,-99.99,1.0,HOBO +U30 +Weather +,2013-05-05 01:42:00,
2013-05-04 21:43:00,37.4,34.8,-100.00,North,-999,-999.0,-999.0,90,-99.99,,,-99.99,1.0,HOBO +U30 +Weather +,2013-05-05 01:43:00,
2013-05-04 21:44:00,37.4,34.7,-100.00,North,-999,-999.0,-999.0,89,-99.99,,,-99.99,1.0,HOBO +U30 +Weather +,2013-05-05 01:44:00,
2013-05-04 21:45:00,37.4,34.6,-100.00,North,-999,-999.0,-999.0,89,-99.99,,,-99.99,1.0,HOBO +U30 +Weather +,2013-05-05 01:45:00,
2013-05-04 21:46:00,37.4,34.6,-100.00,North,-999,-999.0,-999.0,89,-99.99,,,-99.99,1.0,HOBO +U30 +Weather +,2013-05-05 01:46:00,
2013-05-04 21:47:00,37.4,34.6,-100.00,North,-999,-999.0,-999.0,89,-99.99,,,-99.99,1.0,HOBO +U30 +Weather +,2013-05-05 01:47:00,
2013-05-04 21:48:00,37.3,34.5,-100.00,North,-999,-999.0,-999.0,89,-99.99,,,-99.99,1.0,HOBO +U30 +Weather +,2013-05-05 01:48:00,
2013-05-04 21:49:00,37.2,34.4,-100.00,North,-999,-999.0,-999.0,89,-99.99,,,-99.99,1.0,HOBO +U30 +Weather +,2013-05-05 01:49:00,
2013-05-04 21:50:00,37.2,34.4,-100.00,North,-999,-999.0,-999.0,89,-99.99,,,-99.99,1.0,HOBO +U30 +Weather +,2013-05-05 01:50:00,
2013-05-04 21:51:00,37.1,34.3,-100.00,North,-999,-999.0,-999.0,89,-99.99,,,-99.99,1.0,HOBO +U30 +Weather +,2013-05-05 01:51:00,
2013-05-04 21:52:00,37.1,34.3,-100.00,North,-999,-999.0,-999.0,89,-99.99,,,-99.99,1.0,HOBO +U30 +Weather +,2013-05-05 01:52:00,
2013-05-04 21:53:00,37.0,34.2,-100.00,North,-999,-999.0,-999.0,89,-99.99,,,-99.99,1.0,HOBO +U30 +Weather +,2013-05-05 01:53:00,
2013-05-04 21:54:00,37.0,34.3,-100.00,North,-999,-999.0,-999.0,89,-99.99,,,-99.99,1.0,HOBO +U30 +Weather +,2013-05-05 01:54:00,
2013-05-04 21:55:00,37.0,34.3,-100.00,North,-999,-999.0,-999.0,89,-99.99,,,-99.99,1.0,HOBO +U30 +Weather +,2013-05-05 01:55:00,
2013-05-04 21:56:00,36.9,34.1,-100.00,North,-999,-999.0,-999.0,89,-99.99,,,-99.99,1.0,HOBO +U30 +Weather +,2013-05-05 01:56:00,
2013-05-04 21:57:00,36.9,34.1,-100.00,North,-999,-999.0,-999.0,89,-99.99,,,-99.99,1.0,HOBO +U30 +Weather +,2013-05-05 01:57:00,
2013-05-04 21:58:00,36.9,34.2,-100.00,North,-999,-999.0,-999.0,89,-99.99,,,-99.99,1.0,HOBO +U30 +Weather +,2013-05-05 01:58:00,
2013-05-04 21:59:00,36.9,34.2,-100.00,North,-999,-999.0,-999.0,89,-99.99,,,-99.99,1.0,HOBO +U30 +Weather +,2013-05-05 01:59:00,
2013-05-04 22:00:00,36.9,34.2,-100.00,North,-999,-999.0,-999.0,89,-99.99,,,-99.99,1.0,HOBO +U30 +Weather +,2013-05-05 02:00:00,
2013-05-04 22:01:00,36.8,34.1,-100.00,North,-999,-999.0,-999.0,89,-99.99,,,-99.99,1.0,HOBO +U30 +Weather +,2013-05-05 02:01:00,
2013-05-04 22:02:00,36.8,34.0,-100.00,North,-999,-999.0,-999.0,89,-99.99,,,-99.99,1.0,HOBO +U30 +Weather +,2013-05-05 02:02:00,
2013-05-04 22:03:00,36.8,34.0,-100.00,North,-999,-999.0,-999.0,89,-99.99,,,-99.99,1.0,HOBO +U30 +Weather +,2013-05-05 02:03:00,
2013-05-04 22:04:00,36.8,34.1,-100.00,North,-999,-999.0,-999.0,90,-99.99,,,-99.99,1.0,HOBO +U30 +Weather +,2013-05-05 02:04:00,
2013-05-04 22:05:00,36.8,34.2,-100.00,North,-999,-999.0,-999.0,90,-99.99,,,-99.99,1.0,HOBO +U30 +Weather +,2013-05-05 02:05:00,
2013-05-04 22:06:00,36.8,34.2,-100.00,North,-999,-999.0,-999.0,90,-99.99,,,-99.99,1.0,HOBO +U30 +Weather +,2013-05-05 02:06:00,
2013-05-04 22:07:00,36.8,34.2,-100.00,North,-999,-999.0,-999.0,90,-99.99,,,-99.99,1.0,HOBO +U30 +Weather +,2013-05-05 02:07:00,
2013-05-04 22:08:00,36.8,34.2,-100.00,North,-999,-999.0,-999.0,90,-99.99,,,-99.99,1.0,HOBO +U30 +Weather +,2013-05-05 02:08:00,
2013-05-04 22:09:00,36.8,34.2,-100.00,North,-999,-999.0,-999.0,90,-99.99,,,-99.99,1.0,HOBO +U30 +Weather +,2013-05-05 02:09:00,
2013-05-04 22:10:00,36.8,34.3,-100.00,North,-999,-999.0,-999.0,90,-99.99,,,-99.99,1.0,HOBO +U30 +Weather +,2013-05-05 02:10:00,
2013-05-04 22:11:00,36.8,34.3,-100.00,North,-999,-999.0,-999.0,90,-99.99,,,-99.99,1.0,HOBO +U30 +Weather +,2013-05-05 02:11:00,
2013-05-04 22:12:00,36.8,34.2,-100.00,North,-999,-999.0,-999.0,90,-99.99,,,-99.99,1.0,HOBO +U30 +Weather +,2013-05-05 02:12:00,
2013-05-04 22:13:00,36.7,34.1,-100.00,North,-999,-999.0,-999.0,90,-99.99,,,-99.99,1.0,HOBO +U30 +Weather +,2013-05-05 02:13:00,
2013-05-04 22:14:00,36.6,34.0,-100.00,North,-999,-999.0,-999.0,90,-99.99,,,-99.99,1.0,HOBO +U30 +Weather +,2013-05-05 02:14:00,
2013-05-04 22:15:00,36.5,33.9,-100.00,North,-999,-999.0,-999.0,90,-99.99,,,-99.99,1.0,HOBO +U30 +Weather +,2013-05-05 02:15:00,
2013-05-04 22:16:00,36.5,33.8,-100.00,North,-999,-999.0,-999.0,90,-99.99,,,-99.99,1.0,HOBO +U30 +Weather +,2013-05-05 02:16:00,
2013-05-04 22:17:00,36.4,33.8,-100.00,North,-999,-999.0,-999.0,90,-99.99,,,-99.99,1.0,HOBO +U30 +Weather +,2013-05-05 02:17:00,
2013-05-04 22:18:00,36.5,34.0,-100.00,North,-999,-999.0,-999.0,90,-99.99,,,-99.99,1.0,HOBO +U30 +Weather +,2013-05-05 02:18:00,
2013-05-04 22:19:00,36.6,34.0,-100.00,North,-999,-999.0,-999.0,90,-99.99,,,-99.99,1.0,HOBO +U30 +Weather +,2013-05-05 02:19:00,
2013-05-04 22:20:00,36.6,34.0,-100.00,North,-999,-999.0,-999.0,90,-99.99,,,-99.99,1.0,HOBO +U30 +Weather +,2013-05-05 02:20:00,
2013-05-04 22:21:00,36.6,34.0,-100.00,North,-999,-999.0,-999.0,90,-99.99,,,-99.99,1.0,HOBO +U30 +Weather +,2013-05-05 02:21:00,
2013-05-04 22:22:00,36.6,34.1,-100.00,North,-999,-999.0,-999.0,90,-99.99,,,-99.99,1.0,HOBO +U30 +Weather +,2013-05-05 02:22:00,
2013-05-04 22:23:00,36.6,34.2,-100.00,North,-999,-999.0,-999.0,90,-99.99,,,-99.99,1.0,HOBO +U30 +Weather +,2013-05-05 02:23:00,
2013-05-04 22:24:00,36.7,34.2,-100.00,North,-999,-999.0,-999.0,90,-99.99,,,-99.99,1.0,HOBO +U30 +Weather +,2013-05-05 02:24:00,
2013-05-04 22:25:00,36.7,34.2,-100.00,North,-999,-999.0,-999.0,90,-99.99,,,-99.99,1.0,HOBO +U30 +Weather +,2013-05-05 02:25:00,
2013-05-04 22:26:00,36.7,34.2,-100.00,North,-999,-999.0,-999.0,90,-99.99,,,-99.99,1.0,HOBO +U30 +Weather +,2013-05-05 02:26:00,
2013-05-04 22:27:00,36.8,34.3,-100.00,North,-999,-999.0,-999.0,90,-99.99,,,-99.99,1.0,HOBO +U30 +Weather +,2013-05-05 02:27:00,
2013-05-04 22:28:00,36.8,34.3,-100.00,North,-999,-999.0,-999.0,90,-99.99,,,-99.99,1.0,HOBO +U30 +Weather +,2013-05-05 02:28:00,
2013-05-04 22:29:00,37.0,34.8,-100.00,North,-999,-999.0,-999.0,91,-99.99,,,-99.99,1.0,HOBO +U30 +Weather +,2013-05-05 02:29:00,
2013-05-04 22:30:00,37.2,35.0,-100.00,North,-999,-999.0,-999.0,91,-99.99,,,-99.99,1.0,HOBO +U30 +Weather +,2013-05-05 02:30:00,
2013-05-04 22:31:00,37.3,35.0,-100.00,North,-999,-999.0,-999.0,91,-99.99,,,-99.99,1.0,HOBO +U30 +Weather +,2013-05-05 02:31:00,
2013-05-04 22:32:00,37.5,35.3,-100.00,North,-999,-999.0,-999.0,91,-99.99,,,-99.99,1.0,HOBO +U30 +Weather +,2013-05-05 02:32:00,
2013-05-04 22:33:00,38.1,36.0,-100.00,North,-999,-999.0,-999.0,92,-99.99,,,-99.99,1.0,HOBO +U30 +Weather +,2013-05-05 02:33:00,
2013-05-04 22:34:00,38.2,36.0,-100.00,North,-999,-999.0,-999.0,91,-99.99,,,-99.99,1.0,HOBO +U30 +Weather +,2013-05-05 02:34:00,
2013-05-04 22:35:00,38.3,36.0,-100.00,North,-999,-999.0,-999.0,91,-99.99,,,-99.99,1.0,HOBO +U30 +Weather +,2013-05-05 02:35:00,
2013-05-04 22:36:00,38.3,36.0,-100.00,North,-999,-999.0,-999.0,91,-99.99,,,-99.99,1.0,HOBO +U30 +Weather +,2013-05-05 02:36:00,
2013-05-04 22:37:00,38.3,36.0,-100.00,North,-999,-999.0,-999.0,91,-99.99,,,-99.99,1.0,HOBO +U30 +Weather +,2013-05-05 02:37:00,
2013-05-04 22:38:00,38.2,35.9,-100.00,North,-999,-999.0,-999.0,91,-99.99,,,-99.99,1.0,HOBO +U30 +Weather +,2013-05-05 02:38:00,
2013-05-04 22:39:00,38.2,35.9,-100.00,North,-999,-999.0,-999.0,91,-99.99,,,-99.99,1.0,HOBO +U30 +Weather +,2013-05-05 02:39:00,
2013-05-04 22:40:00,38.4,36.1,-100.00,North,-999,-999.0,-999.0,91,-99.99,,,-99.99,1.0,HOBO +U30 +Weather +,2013-05-05 02:40:00,
2013-05-04 22:41:00,38.4,36.1,-100.00,North,-999,-999.0,-999.0,91,-99.99,,,-99.99,1.0,HOBO +U30 +Weather +,2013-05-05 02:41:00,
2013-05-04 22:42:00,38.4,36.2,-100.00,North,-999,-999.0,-999.0,91,-99.99,,,-99.99,1.0,HOBO +U30 +Weather +,2013-05-05 02:42:00,
2013-05-04 22:43:00,38.5,36.3,-100.00,North,-999,-999.0,-999.0,91,-99.99,,,-99.99,1.0,HOBO +U30 +Weather +,2013-05-05 02:43:00,
2013-05-04 22:44:00,38.6,36.4,-100.00,North,-999,-999.0,-999.0,91,-99.99,,,-99.99,1.0,HOBO +U30 +Weather +,2013-05-05 02:44:00,
2013-05-04 22:45:00,38.6,36.4,-100.00,North,-999,-999.0,-999.0,91,-99.99,,,-99.99,1.0,HOBO +U30 +Weather +,2013-05-05 02:45:00,
2013-05-04 22:46:00,38.7,36.4,-100.00,North,-999,-999.0,-999.0,91,-99.99,,,-99.99,1.0,HOBO +U30 +Weather +,2013-05-05 02:46:00,
2013-05-04 22:47:00,38.7,36.5,-100.00,North,-999,-999.0,-999.0,91,-99.99,,,-99.99,1.0,HOBO +U30 +Weather +,2013-05-05 02:47:00,
2013-05-04 22:48:00,38.6,36.4,-100.00,North,-999,-999.0,-999.0,91,-99.99,,,-99.99,1.0,HOBO +U30 +Weather +,2013-05-05 02:48:00,
2013-05-04 22:49:00,38.6,36.4,-100.00,North,-999,-999.0,-999.0,91,-99.99,,,-99.99,1.0,HOBO +U30 +Weather +,2013-05-05 02:49:00,
2013-05-04 22:50:00,38.6,36.4,-100.00,North,-999,-999.0,-999.0,91,-99.99,,,-99.99,1.0,HOBO +U30 +Weather +,2013-05-05 02:50:00,
2013-05-04 22:51:00,38.6,36.4,-100.00,North,-999,-999.0,-999.0,91,-99.99,,,-99.99,1.0,HOBO +U30 +Weather +,2013-05-05 02:51:00,
2013-05-04 22:52:00,38.6,36.4,-100.00,North,-999,-999.0,-999.0,91,-99.99,,,-99.99,1.0,HOBO +U30 +Weather +,2013-05-05 02:52:00,
2013-05-04 22:53:00,38.5,36.3,-100.00,North,-999,-999.0,-999.0,91,-99.99,,,-99.99,1.0,HOBO +U30 +Weather +,2013-05-05 02:53:00,
2013-05-04 22:54:00,38.5,36.3,-100.00,North,-999,-999.0,-999.0,91,-99.99,,,-99.99,1.0,HOBO +U30 +Weather +,2013-05-05 02:54:00,
2013-05-04 22:55:00,38.5,36.4,-100.00,North,-999,-999.0,-999.0,92,-99.99,,,-99.99,1.0,HOBO +U30 +Weather +,2013-05-05 02:55:00,
2013-05-04 22:56:00,38.5,36.4,-100.00,North,-999,-999.0,-999.0,91,-99.99,,,-99.99,1.0,HOBO +U30 +Weather +,2013-05-05 02:56:00,
2013-05-04 22:57:00,38.5,36.4,-100.00,North,-999,-999.0,-999.0,91,-99.99,,,-99.99,1.0,HOBO +U30 +Weather +,2013-05-05 02:57:00,
2013-05-04 22:58:00,38.5,36.3,-100.00,North,-999,-999.0,-999.0,91,-99.99,,,-99.99,1.0,HOBO +U30 +Weather +,2013-05-05 02:58:00,
2013-05-04 22:59:00,38.4,36.2,-100.00,North,-999,-999.0,-999.0,91,-99.99,,,-99.99,1.0,HOBO +U30 +Weather +,2013-05-05 02:59:00,
2013-05-04 23:00:00,38.3,36.1,-100.00,North,-999,-999.0,-999.0,91,-99.99,,,-99.99,1.0,HOBO +U30 +Weather +,2013-05-05 03:00:00,
2013-05-04 23:01:00,38.2,35.9,-100.00,North,-999,-999.0,-999.0,91,-99.99,,,-99.99,1.0,HOBO +U30 +Weather +,2013-05-05 03:01:00,
2013-05-04 23:02:00,38.2,35.9,-100.00,North,-999,-999.0,-999.0,91,-99.99,,,-99.99,1.0,HOBO +U30 +Weather +,2013-05-05 03:02:00,
2013-05-04 23:03:00,38.2,36.0,-100.00,North,-999,-999.0,-999.0,91,-99.99,,,-99.99,1.0,HOBO +U30 +Weather +,2013-05-05 03:03:00,
2013-05-04 23:04:00,38.2,35.9,-100.00,North,-999,-999.0,-999.0,91,-99.99,,,-99.99,1.0,HOBO +U30 +Weather +,2013-05-05 03:04:00,
2013-05-04 23:05:00,38.1,35.9,-100.00,North,-999,-999.0,-999.0,91,-99.99,,,-99.99,1.0,HOBO +U30 +Weather +,2013-05-05 03:05:00,
2013-05-04 23:06:00,38.1,35.9,-100.00,North,-999,-999.0,-999.0,91,-99.99,,,-99.99,1.0,HOBO +U30 +Weather +,2013-05-05 03:06:00,
2013-05-04 23:07:00,38.1,35.9,-100.00,North,-999,-999.0,-999.0,91,-99.99,,,-99.99,1.0,HOBO +U30 +Weather +,2013-05-05 03:07:00,
2013-05-04 23:08:00,38.1,35.9,-100.00,North,-999,-999.0,-999.0,91,-99.99,,,-99.99,1.0,HOBO +U30 +Weather +,2013-05-05 03:08:00,
2013-05-04 23:09:00,38.1,35.9,-100.00,North,-999,-999.0,-999.0,91,-99.99,,,-99.99,1.0,HOBO +U30 +Weather +,2013-05-05 03:09:00,
2013-05-04 23:10:00,38.2,36.0,-100.00,North,-999,-999.0,-999.0,91,-99.99,,,-99.99,1.0,HOBO +U30 +Weather +,2013-05-05 03:10:00,
2013-05-04 23:11:00,38.2,36.0,-100.00,North,-999,-999.0,-999.0,91,-99.99,,,-99.99,1.0,HOBO +U30 +Weather +,2013-05-05 03:11:00,
2013-05-04 23:12:00,38.2,35.9,-100.00,North,-999,-999.0,-999.0,91,-99.99,,,-99.99,1.0,HOBO +U30 +Weather +,2013-05-05 03:12:00,
2013-05-04 23:13:00,38.1,35.9,-100.00,North,-999,-999.0,-999.0,91,-99.99,,,-99.99,1.0,HOBO +U30 +Weather +,2013-05-05 03:13:00,
2013-05-04 23:14:00,38.1,35.9,-100.00,North,-999,-999.0,-999.0,91,-99.99,,,-99.99,1.0,HOBO +U30 +Weather +,2013-05-05 03:14:00,
2013-05-04 23:15:00,38.1,35.8,-100.00,North,-999,-999.0,-999.0,91,-99.99,,,-99.99,1.0,HOBO +U30 +Weather +,2013-05-05 03:15:00,
2013-05-04 23:16:00,38.0,35.8,-100.00,North,-999,-999.0,-999.0,91,-99.99,,,-99.99,1.0,HOBO +U30 +Weather +,2013-05-05 03:16:00,
2013-05-04 23:17:00,38.0,35.8,-100.00,North,-999,-999.0,-999.0,91,-99.99,,,-99.99,1.0,HOBO +U30 +Weather +,2013-05-05 03:17:00,
2013-05-04 23:18:00,37.9,35.7,-100.00,North,-999,-999.0,-999.0,91,-99.99,,,-99.99,1.0,HOBO +U30 +Weather +,2013-05-05 03:18:00,
2013-05-04 23:19:00,37.8,35.6,-100.00,North,-999,-999.0,-999.0,91,-99.99,,,-99.99,1.0,HOBO +U30 +Weather +,2013-05-05 03:19:00,
2013-05-04 23:20:00,37.8,35.6,-100.00,North,-999,-999.0,-999.0,91,-99.99,,,-99.99,1.0,HOBO +U30 +Weather +,2013-05-05 03:20:00,
2013-05-04 23:21:00,37.8,35.6,-100.00,North,-999,-999.0,-999.0,91,-99.99,,,-99.99,1.0,HOBO +U30 +Weather +,2013-05-05 03:21:00,
2013-05-04 23:22:00,37.8,35.6,-100.00,North,-999,-999.0,-999.0,91,-99.99,,,-99.99,1.0,HOBO +U30 +Weather +,2013-05-05 03:22:00,
2013-05-04 23:23:00,37.9,35.7,-100.00,North,-999,-999.0,-999.0,91,-99.99,,,-99.99,1.0,HOBO +U30 +Weather +,2013-05-05 03:23:00,
2013-05-04 23:24:00,37.9,35.7,-100.00,North,-999,-999.0,-999.0,91,-99.99,,,-99.99,1.0,HOBO +U30 +Weather +,2013-05-05 03:24:00,
2013-05-04 23:25:00,37.9,35.7,-100.00,North,-999,-999.0,-999.0,91,-99.99,,,-99.99,1.0,HOBO +U30 +Weather +,2013-05-05 03:25:00,
2013-05-04 23:26:00,37.9,35.7,-100.00,North,-999,-999.0,-999.0,91,-99.99,,,-99.99,1.0,HOBO +U30 +Weather +,2013-05-05 03:26:00,
2013-05-04 23:27:00,37.9,35.8,-100.00,North,-999,-999.0,-999.0,91,-99.99,,,-99.99,1.0,HOBO +U30 +Weather +,2013-05-05 03:27:00,
2013-05-04 23:28:00,37.8,35.7,-100.00,North,-999,-999.0,-999.0,91,-99.99,,,-99.99,1.0,HOBO +U30 +Weather +,2013-05-05 03:28:00,
2013-05-04 23:29:00,37.8,35.6,-100.00,North,-999,-999.0,-999.0,91,-99.99,,,-99.99,1.0,HOBO +U30 +Weather +,2013-05-05 03:29:00,
2013-05-04 23:30:00,37.7,35.6,-100.00,North,-999,-999.0,-999.0,91,-99.99,,,-99.99,1.0,HOBO +U30 +Weather +,2013-05-05 03:30:00,
2013-05-04 23:31:00,37.7,35.6,-100.00,North,-999,-999.0,-999.0,91,-99.99,,,-99.99,1.0,HOBO +U30 +Weather +,2013-05-05 03:31:00,
2013-05-04 23:32:00,37.7,35.6,-100.00,North,-999,-999.0,-999.0,91,-99.99,,,-99.99,1.0,HOBO +U30 +Weather +,2013-05-05 03:32:00,
2013-05-04 23:33:00,37.7,35.6,-100.00,North,-999,-999.0,-999.0,92,-99.99,,,-99.99,1.0,HOBO +U30 +Weather +,2013-05-05 03:33:00,
2013-05-04 23:34:00,37.8,35.7,-100.00,North,-999,-999.0,-999.0,92,-99.99,,,-99.99,1.0,HOBO +U30 +Weather +,2013-05-05 03:34:00,
2013-05-04 23:35:00,37.9,35.9,-100.00,North,-999,-999.0,-999.0,92,-99.99,,,-99.99,1.0,HOBO +U30 +Weather +,2013-05-05 03:35:00,
2013-05-04 23:36:00,37.9,35.8,-100.00,North,-999,-999.0,-999.0,92,-99.99,,,-99.99,1.0,HOBO +U30 +Weather +,2013-05-05 03:36:00,
2013-05-04 23:37:00,37.9,35.8,-100.00,North,-999,-999.0,-999.0,92,-99.99,,,-99.99,1.0,HOBO +U30 +Weather +,2013-05-05 03:37:00,
2013-05-04 23:38:00,37.9,35.9,-100.00,North,-999,-999.0,-999.0,92,-99.99,,,-99.99,1.0,HOBO +U30 +Weather +,2013-05-05 03:38:00,
2013-05-04 23:39:00,37.9,35.9,-100.00,North,-999,-999.0,-999.0,92,-99.99,,,-99.99,1.0,HOBO +U30 +Weather +,2013-05-05 03:39:00,
2013-05-04 23:40:00,37.8,35.8,-100.00,North,-999,-999.0,-999.0,92,-99.99,,,-99.99,1.0,HOBO +U30 +Weather +,2013-05-05 03:40:00,
2013-05-04 23:41:00,37.7,35.7,-100.00,North,-999,-999.0,-999.0,92,-99.99,,,-99.99,1.0,HOBO +U30 +Weather +,2013-05-05 03:41:00,
2013-05-04 23:42:00,37.7,35.6,-100.00,North,-999,-999.0,-999.0,92,-99.99,,,-99.99,1.0,HOBO +U30 +Weather +,2013-05-05 03:42:00,
2013-05-04 23:43:00,37.5,35.4,-100.00,North,-999,-999.0,-999.0,92,-99.99,,,-99.99,1.0,HOBO +U30 +Weather +,2013-05-05 03:43:00,
2013-05-04 23:44:00,37.4,35.3,-100.00,North,-999,-999.0,-999.0,92,-99.99,,,-99.99,1.0,HOBO +U30 +Weather +,2013-05-05 03:44:00,
2013-05-04 23:45:00,37.3,35.2,-100.00,North,-999,-999.0,-999.0,92,-99.99,,,-99.99,1.0,HOBO +U30 +Weather +,2013-05-05 03:45:00,
2013-05-04 23:46:00,37.2,35.2,-100.00,North,-999,-999.0,-999.0,92,-99.99,,,-99.99,1.0,HOBO +U30 +Weather +,2013-05-05 03:46:00,
2013-05-04 23:47:00,37.3,35.4,-100.00,North,-999,-999.0,-999.0,92,-99.99,,,-99.99,1.0,HOBO +U30 +Weather +,2013-05-05 03:47:00,
2013-05-04 23:48:00,37.4,35.5,-100.00,North,-999,-999.0,-999.0,92,-99.99,,,-99.99,1.0,HOBO +U30 +Weather +,2013-05-05 03:48:00,
2013-05-04 23:49:00,37.6,35.7,-100.00,North,-999,-999.0,-999.0,92,-99.99,,,-99.99,1.0,HOBO +U30 +Weather +,2013-05-05 03:49:00,
2013-05-04 23:50:00,37.8,36.0,-100.00,North,-999,-999.0,-999.0,93,-99.99,,,-99.99,1.0,HOBO +U30 +Weather +,2013-05-05 03:50:00,
2013-05-04 23:51:00,38.1,36.3,-100.00,North,-999,-999.0,-999.0,93,-99.99,,,-99.99,1.0,HOBO +U30 +Weather +,2013-05-05 03:51:00,
2013-05-04 23:52:00,38.2,36.3,-100.00,North,-999,-999.0,-999.0,92,-99.99,,,-99.99,1.0,HOBO +U30 +Weather +,2013-05-05 03:52:00,
2013-05-04 23:53:00,38.3,36.4,-100.00,North,-999,-999.0,-999.0,92,-99.99,,,-99.99,1.0,HOBO +U30 +Weather +,2013-05-05 03:53:00,
2013-05-04 23:54:00,38.2,36.3,-100.00,North,-999,-999.0,-999.0,92,-99.99,,,-99.99,1.0,HOBO +U30 +Weather +,2013-05-05 03:54:00,
2013-05-04 23:55:00,38.2,36.3,-100.00,North,-999,-999.0,-999.0,92,-99.99,,,-99.99,1.0,HOBO +U30 +Weather +,2013-05-05 03:55:00,
2013-05-04 23:56:00,38.1,36.2,-100.00,North,-999,-999.0,-999.0,92,-99.99,,,-99.99,1.0,HOBO +U30 +Weather +,2013-05-05 03:56:00,
2013-05-04 23:57:00,38.0,36.1,-100.00,North,-999,-999.0,-999.0,92,-99.99,,,-99.99,1.0,HOBO +U30 +Weather +,2013-05-05 03:57:00,
2013-05-04 23:58:00,38.0,36.1,-100.00,North,-999,-999.0,-999.0,92,-99.99,,,-99.99,1.0,HOBO +U30 +Weather +,2013-05-05 03:58:00,
2013-05-04 23:59:00,37.9,36.0,-100.00,North,-999,-999.0,-999.0,92,-99.99,,,-99.99,1.0,HOBO +U30 +Weather +,2013-05-05 03:59:00,